[[{"header":{"parameterUnit":"m.s-1","parameterCategory":1,"la1":30.6,"la2":29.2853,"lo1":-89.7004,"lo2":-87.6739,"dy":0.0162,"dx":0.0183,"nx":112,"ny":82,"refTime":"2023-07-25T12:00:00:Z","depth":0,"parameterNumber":2,"parameterNumberName":"U-component_of_WINDS"},"data":[0.0,0.0,0.0,0.0,0.0,0.0,0.0,0.0,0.0,0.0,0.0,0.0,0.0,0.0,0.0,0.0,0.0,0.0,0.0,0.0,0.0,0.0,0.0,0.0,0.0,0.0,0.0,0.0,0.0,0.0,0.0,0.0,0.0,0.0,0.0,0.0,0.0,0.0,0.0,0.0,0.0,0.0,0.0,0.0,0.0,0.0,0.0,0.0,0.0,0.0,0.0,0.0,0.0,0.0,0.0,0.0,0.0,0.0,0.0,0.0,0.0,0.0,0.0,0.0,0.0,0.0,0.0,0.0,0.0,0.0,0.0,0.0,0.0,0.0,0.0,0.0,0.0,0.0,0.0,0.0,0.0,0.0,0.0,0.0,0.0,0.0,0.0,0.0,0.0,0.0,0.0,-1.6237,-1.7901,-1.8904,-1.8904,-1.7545,-1.6693,-1.6693,0.0,0.0,0.0,0.0,0.0,0.0,0.0,0.0,0.0,0.0,0.0,0.0,0.0,0.0,0.0,0.0,0.0,0.0,0.0,0.0,0.0,0.0,0.0,0.0,0.0,0.0,0.0,0.0,0.0,0.0,0.0,0.0,0.0,0.0,0.0,0.0,0.0,0.0,0.0,0.0,0.0,0.0,0.0,0.0,0.0,0.0,0.0,0.0,0.0,0.0,0.0,0.0,0.0,0.0,0.0,0.0,0.0,0.0,0.0,0.0,0.0,0.0,0.0,0.0,0.0,0.0,0.0,0.0,0.0,0.0,0.0,0.0,0.0,0.0,0.0,0.0,0.0,0.0,0.0,0.0,0.0,0.0,0.0,0.0,0.0,0.0,0.0,0.0,0.0,0.0,0.0,0.0,0.0,0.0,0.0,0.0,0.0,0.0,0.0,0.0,0.0,0.0,0.0,0.0,-1.4624,-1.6237,-1.7901,-1.8904,-1.8904,-1.7545,-1.6693,-1.6693,0.0,0.0,0.0,0.0,0.0,0.0,0.0,0.0,0.0,0.0,0.0,0.0,0.0,0.0,0.0,0.0,0.0,0.0,0.0,0.0,0.0,0.0,0.0,0.0,0.0,0.0,0.0,0.0,0.0,0.0,0.0,0.0,0.0,0.0,0.0,0.0,0.0,0.0,0.0,0.0,0.0,0.0,0.0,0.0,0.0,0.0,0.0,0.0,0.0,0.0,0.0,0.0,0.0,0.0,0.0,0.0,0.0,0.0,0.0,0.0,0.0,0.0,0.0,0.0,0.0,0.0,0.0,0.0,0.0,0.0,0.0,0.0,0.0,0.0,0.0,0.0,0.0,0.0,0.0,0.0,0.0,0.0,0.0,0.0,0.0,0.0,0.0,0.0,0.0,0.0,0.0,0.0,0.0,0.0,0.0,0.0,0.0,0.0,0.0,0.0,0.0,0.0,0.0,-1.4744,-1.5597,-1.6368,-1.7927,-1.8733,-1.8336,-1.7318,-1.6331,-1.5447,-1.4698,0.0,0.0,0.0,0.0,0.0,0.0,0.0,0.0,0.0,0.0,0.0,0.0,0.0,0.0,0.0,0.0,0.0,0.0,0.0,0.0,0.0,0.0,0.0,0.0,0.0,0.0,0.0,0.0,0.0,0.0,0.0,0.0,0.0,0.0,0.0,0.0,0.0,0.0,0.0,0.0,0.0,0.0,0.0,0.0,0.0,0.0,0.0,0.0,0.0,0.0,0.0,0.0,0.0,0.0,0.0,0.0,0.0,0.0,0.0,0.0,0.0,0.0,0.0,0.0,0.0,0.0,0.0,0.0,0.0,0.0,0.0,0.0,0.0,0.0,0.0,0.0,0.0,0.0,0.0,0.0,0.0,0.0,0.0,0.0,0.0,0.0,0.0,0.0,0.0,0.0,0.0,0.0,0.0,0.0,0.0,0.0,0.0,0.0,0.0,0.0,0.0,0.0,-1.5406,-1.6423,-1.6481,-1.7774,-1.8409,-1.7848,-1.6783,-1.5617,-1.4372,-1.4119,0.0,0.0,0.0,0.0,0.0,0.0,0.0,0.0,0.0,0.0,0.0,0.0,0.0,0.0,0.0,0.0,0.0,0.0,0.0,0.0,0.0,0.0,0.0,0.0,0.0,0.0,0.0,0.0,0.0,0.0,0.0,0.0,0.0,0.0,0.0,0.0,0.0,0.0,0.0,0.0,0.0,0.0,0.0,0.0,0.0,0.0,0.0,0.0,0.0,0.0,0.0,0.0,0.0,0.0,0.0,0.0,0.0,0.0,0.0,0.0,0.0,0.0,0.0,0.0,0.0,0.0,0.0,0.0,0.0,0.0,0.0,0.0,0.0,0.0,0.0,0.0,0.0,0.0,0.0,0.0,0.0,0.0,0.0,0.0,0.0,0.0,0.0,0.0,0.0,0.0,0.0,0.0,0.0,0.0,0.0,0.0,0.0,0.0,0.0,0.0,0.0,0.0,-1.5406,-1.6425,-1.6499,-1.7265,-1.7791,-1.7794,-1.5756,-1.4427,-1.4318,-1.3594,0.0,0.0,0.0,0.0,0.0,0.0,0.0,0.0,0.0,0.0,0.0,0.0,0.0,0.0,0.0,0.0,0.0,0.0,0.0,0.0,0.0,0.0,0.0,0.0,0.0,0.0,0.0,0.0,0.0,0.0,0.0,0.0,0.0,0.0,0.0,0.0,0.0,0.0,0.0,0.0,0.0,0.0,0.0,0.0,0.0,0.0,0.0,0.0,0.0,0.0,0.0,0.0,0.0,0.0,0.0,0.0,0.0,0.0,0.0,0.0,0.0,0.0,0.0,0.0,0.0,0.0,0.0,0.0,0.0,0.0,0.0,0.0,0.0,0.0,0.0,0.0,0.0,0.0,0.0,0.0,0.0,0.0,0.0,0.0,0.0,0.0,0.0,0.0,0.0,0.0,0.0,0.0,0.0,0.0,0.0,0.0,0.0,0.0,0.0,0.0,0.0,0.0,-1.5012,-1.5727,0.0,-1.6499,-1.6628,-1.5699,-1.4805,-1.3666,-1.2151,0.0,0.0,0.0,0.0,0.0,0.0,0.0,0.0,0.0,0.0,0.0,0.0,0.0,0.0,0.0,0.0,0.0,0.0,0.0,0.0,0.0,0.0,0.0,0.0,0.0,0.0,0.0,0.0,0.0,0.0,0.0,0.0,0.0,0.0,0.0,0.0,0.0,0.0,0.0,0.0,0.0,0.0,0.0,0.0,0.0,0.0,0.0,0.0,0.0,0.0,0.0,0.0,0.0,0.0,0.0,0.0,0.0,0.0,0.0,0.0,0.0,0.0,0.0,0.0,0.0,0.0,0.0,0.0,0.0,0.0,0.0,0.0,0.0,0.0,0.0,0.0,0.0,0.0,0.0,0.0,0.0,0.0,0.0,0.0,0.0,0.0,0.0,0.0,0.0,0.0,0.0,0.0,0.0,0.0,0.0,0.0,0.0,0.0,0.0,0.0,0.0,0.0,-1.4065,-1.4777,-1.5295,0.0,-1.5627,-1.5429,-1.4388,-1.36,-1.2568,-1.116,0.0,0.0,0.0,0.0,0.0,0.0,0.0,0.0,0.0,0.0,0.0,0.0,0.0,0.0,0.0,0.0,0.0,0.0,0.0,0.0,0.0,0.0,0.0,0.0,0.0,0.0,0.0,0.0,0.0,0.0,0.0,0.0,0.0,0.0,0.0,0.0,0.0,0.0,0.0,0.0,0.0,0.0,0.0,0.0,0.0,0.0,0.0,0.0,0.0,0.0,0.0,0.0,0.0,0.0,0.0,0.0,0.0,0.0,0.0,0.0,0.0,0.0,0.0,0.0,0.0,0.0,0.0,0.0,0.0,0.0,0.0,0.0,0.0,0.0,0.0,0.0,0.0,0.0,0.0,0.0,0.0,0.0,0.0,0.0,0.0,0.0,0.0,0.0,0.0,0.0,0.0,0.0,0.0,0.0,0.0,0.0,0.0,0.0,0.0,0.0,0.0,0.0,-1.4189,-1.4792,-1.5295,-1.5293,-1.4618,-1.4221,-1.4273,-1.2086,-1.1033,0.0,0.0,0.0,0.0,0.0,0.0,0.0,0.0,0.0,0.0,0.0,0.0,0.0,0.0,0.0,0.0,0.0,0.0,0.0,0.0,0.0,0.0,0.0,0.0,0.0,0.0,0.0,0.0,0.0,0.0,0.0,0.0,0.0,0.0,0.0,0.0,0.0,0.0,0.0,0.0,0.0,0.0,0.0,0.0,0.0,0.0,0.0,0.0,0.0,0.0,0.0,0.0,0.0,0.0,0.0,0.0,0.0,0.0,0.0,0.0,0.0,0.0,0.0,0.0,0.0,0.0,0.0,0.0,0.0,0.0,0.0,0.0,0.0,0.0,0.0,0.0,0.0,0.0,0.0,0.0,0.0,0.0,0.0,0.0,0.0,0.0,0.0,0.0,0.0,0.0,0.0,0.0,0.0,0.0,0.0,0.0,0.0,0.0,0.0,0.0,0.0,0.0,0.0,-1.4196,-1.4303,-1.4453,-1.4449,-1.3787,-1.3136,-1.2579,-1.1414,-1.0558,-1.0236,0.0,0.0,0.0,0.0,0.0,0.0,0.0,0.0,0.0,0.0,0.0,0.0,0.0,0.0,0.0,0.0,0.0,0.0,0.0,0.0,0.0,0.0,0.0,0.0,0.0,0.0,0.0,0.0,0.0,0.0,0.0,0.0,0.0,0.0,0.0,0.0,0.0,0.0,0.0,0.0,0.0,0.0,0.0,0.0,0.0,0.0,0.0,0.0,0.0,0.0,0.0,0.0,0.0,0.0,0.0,0.0,0.0,0.0,0.0,0.0,0.0,0.0,0.0,0.0,0.0,0.0,0.0,0.0,0.0,0.0,0.0,0.0,0.0,0.0,0.0,0.0,0.0,0.0,0.0,0.0,0.0,0.0,0.0,0.0,0.0,0.0,0.0,0.0,0.0,0.0,0.0,0.0,0.0,0.0,0.0,0.0,0.0,0.0,0.0,0.0,0.0,0.0,-1.4681,-1.4324,-1.4134,-1.4136,-1.3184,-1.2374,-1.1889,-1.085,-1.015,-0.9992,0.0,0.0,0.0,0.0,0.0,0.0,0.0,0.0,0.0,0.0,0.0,0.0,0.0,0.0,0.0,0.0,0.0,0.0,0.0,0.0,0.0,0.0,0.0,0.0,0.0,0.0,0.0,0.0,0.0,0.0,0.0,0.0,0.0,0.0,0.0,0.0,0.0,0.0,0.0,0.0,0.0,0.0,0.0,0.0,0.0,0.0,0.0,0.0,0.0,0.0,0.0,0.0,0.0,0.0,0.0,0.0,0.0,0.0,0.0,0.0,0.0,0.0,0.0,0.0,0.0,0.0,0.0,0.0,0.0,0.0,0.0,0.0,0.0,0.0,0.0,0.0,0.0,0.0,0.0,0.0,0.0,0.0,0.0,0.0,0.0,0.0,0.0,0.0,0.0,0.0,0.0,0.0,0.0,0.0,0.0,0.0,0.0,0.0,0.0,0.0,0.0,0.0,-1.5407,-1.4662,-1.4199,-1.421,-1.2818,-1.1902,-1.1902,-1.0421,-0.9789,-1.0439,0.0,0.0,0.0,0.0,0.0,0.0,0.0,0.0,0.0,0.0,0.0,0.0,0.0,0.0,0.0,0.0,0.0,0.0,0.0,0.0,0.0,0.0,0.0,0.0,0.0,0.0,0.0,0.0,0.0,0.0,0.0,0.0,0.0,0.0,0.0,0.0,0.0,0.0,0.0,0.0,0.0,0.0,0.0,0.0,0.0,0.0,0.0,0.0,0.0,0.0,0.0,0.0,0.0,0.0,0.0,0.0,0.0,0.0,0.0,0.0,-2.2967,0.0,0.0,0.0,0.0,0.0,0.0,0.0,0.0,0.0,0.0,0.0,0.0,0.0,0.0,0.0,0.0,0.0,0.0,0.0,0.0,0.0,0.0,0.0,0.0,0.0,0.0,0.0,0.0,0.0,0.0,0.0,0.0,0.0,0.0,0.0,0.0,0.0,0.0,0.0,0.0,0.0,-1.5465,-1.4682,-1.4203,-1.4192,-1.2818,-1.1902,-1.1902,-1.0425,-0.9294,-0.8844,-0.9354,0.0,0.0,0.0,0.0,0.0,0.0,0.0,0.0,0.0,0.0,0.0,0.0,0.0,0.0,0.0,0.0,0.0,0.0,0.0,0.0,0.0,0.0,0.0,0.0,0.0,0.0,0.0,0.0,0.0,0.0,0.0,0.0,0.0,0.0,0.0,0.0,0.0,0.0,0.0,0.0,0.0,0.0,0.0,0.0,0.0,0.0,0.0,0.0,0.0,0.0,0.0,0.0,0.0,0.0,0.0,0.0,0.0,0.0,0.0,0.0,-2.4402,0.0,0.0,0.0,0.0,0.0,0.0,0.0,0.0,0.0,0.0,0.0,0.0,0.0,0.0,0.0,0.0,0.0,0.0,0.0,0.0,0.0,0.0,0.0,0.0,0.0,0.0,0.0,0.0,0.0,0.0,0.0,0.0,0.0,0.0,0.0,0.0,0.0,0.0,0.0,0.0,-1.603,-1.4957,-1.4242,-1.4255,-1.319,-1.2316,-1.1936,-1.0753,-0.9654,-0.8784,-0.8969,0.0,0.0,0.0,0.0,0.0,0.0,0.0,0.0,0.0,0.0,0.0,0.0,0.0,0.0,0.0,0.0,0.0,0.0,0.0,0.0,0.0,0.0,0.0,0.0,0.0,0.0,0.0,0.0,0.0,0.0,0.0,0.0,0.0,0.0,0.0,0.0,0.0,0.0,0.0,0.0,0.0,0.0,0.0,0.0,0.0,0.0,0.0,0.0,0.0,0.0,0.0,0.0,0.0,-2.8586,-2.8924,-2.8809,-2.8943,-2.8771,-2.8275,-2.7039,-2.6101,-2.5411,0.0,0.0,0.0,0.0,0.0,0.0,0.0,0.0,0.0,0.0,0.0,0.0,0.0,0.0,0.0,0.0,0.0,0.0,0.0,0.0,0.0,0.0,0.0,0.0,0.0,-2.0101,-1.9476,0.0,0.0,0.0,0.0,0.0,0.0,0.0,0.0,0.0,0.0,0.0,0.0,-1.6835,-1.5478,-1.4509,-1.4511,-1.3666,-1.2839,-1.2169,-1.1175,-1.0196,-0.9256,-0.8905,-0.8739,0.0,0.0,0.0,0.0,0.0,0.0,0.0,0.0,0.0,0.0,0.0,0.0,0.0,0.0,0.0,0.0,0.0,0.0,0.0,0.0,0.0,0.0,0.0,0.0,0.0,0.0,0.0,0.0,0.0,0.0,0.0,0.0,-2.5591,-2.552,0.0,0.0,0.0,0.0,0.0,0.0,0.0,0.0,0.0,0.0,0.0,0.0,0.0,-3.0068,-3.0756,-3.161,-3.234,-3.2923,-3.3791,-3.3853,-3.3192,-3.3891,-3.3005,-3.0942,-3.1477,0.0,-2.6236,-2.6236,0.0,0.0,0.0,0.0,0.0,0.0,0.0,0.0,0.0,0.0,0.0,0.0,0.0,0.0,0.0,0.0,0.0,0.0,0.0,0.0,0.0,0.0,-2.2373,-2.2373,-2.1757,-2.0988,0.0,-1.9532,-1.901,-1.901,-1.8948,0.0,0.0,0.0,0.0,0.0,0.0,0.0,-1.7721,-1.6327,-1.5343,-1.5343,-1.3992,-1.3057,-1.2948,-1.1504,-1.0196,-0.9256,-0.874,-0.8123,-0.7392,-0.8074,0.0,0.0,0.0,0.0,0.0,0.0,0.0,0.0,0.0,0.0,0.0,0.0,0.0,0.0,0.0,0.0,0.0,0.0,0.0,0.0,0.0,0.0,0.0,0.0,0.0,0.0,0.0,0.0,0.0,-2.5892,-2.5877,-2.681,-2.6072,-2.5867,0.0,0.0,0.0,0.0,0.0,0.0,0.0,0.0,0.0,-3.1018,-3.1801,-3.2591,-3.3358,-3.4317,-3.4952,-3.5262,-3.6169,-3.6413,-3.6088,-3.6432,-3.5744,-3.4265,-3.4151,-3.2527,-2.9834,-2.8402,-2.7033,-2.5873,0.0,0.0,0.0,0.0,-2.5191,-2.5153,-2.4765,-2.4608,0.0,-2.4135,0.0,0.0,0.0,0.0,0.0,0.0,0.0,0.0,0.0,0.0,-2.2699,-2.2699,-2.2083,-2.1395,-2.1061,-2.068,-2.0138,0.0,-1.9026,-1.9018,-1.9053,0.0,0.0,0.0,0.0,0.0,-1.79,-1.6885,-1.6008,-1.5542,-1.4872,-1.4083,-1.3183,-1.2398,-1.1336,-0.9913,-0.9211,-0.8473,-0.7646,-0.74,-0.7415,0.0,0.0,0.0,0.0,0.0,0.0,0.0,0.0,0.0,0.0,0.0,0.0,0.0,0.0,0.0,0.0,0.0,0.0,0.0,0.0,0.0,0.0,0.0,0.0,0.0,0.0,0.0,0.0,-2.6447,-2.6699,-2.8167,-2.7434,-2.729,0.0,0.0,0.0,0.0,0.0,0.0,-3.0691,-3.2282,-3.3513,-3.4198,-3.4985,-3.5761,-3.6499,-3.73,-3.7756,-3.7928,-3.8641,-3.8992,-3.8992,-3.8763,-3.8228,-3.7417,-3.6538,-3.5087,-3.3138,-3.0598,-2.8554,-2.7033,-2.7033,-2.6542,-2.5835,-2.5835,-2.5835,-2.5835,-2.5835,-2.5664,-2.5424,-2.5424,0.0,-2.4945,-2.482,0.0,0.0,0.0,0.0,-2.3955,-2.3827,-2.3397,-2.297,-2.297,-2.2528,-2.2039,-2.1848,-2.1812,-2.1387,0.0,-1.9703,-1.9703,-1.9703,0.0,0.0,0.0,0.0,-1.8443,-1.8226,-1.7509,-1.6704,-1.5893,-1.5614,-1.4927,-1.3521,-1.3172,-1.2323,-1.0703,-0.969,-0.8831,-0.811,-0.6931,-0.6637,-0.7348,0.0,0.0,0.0,0.0,0.0,0.0,0.0,0.0,0.0,0.0,0.0,0.0,0.0,0.0,0.0,0.0,0.0,0.0,0.0,0.0,0.0,0.0,0.0,0.0,0.0,0.0,0.0,0.0,0.0,-2.9132,-2.9882,0.0,0.0,0.0,0.0,-3.1458,-3.232,-3.346,-3.5011,-3.6604,-3.7815,-3.8565,-3.9297,-4.0059,-4.0866,-4.1054,-4.1535,-4.2297,-4.2457,-4.2545,-4.2526,-4.1686,-4.0864,-4.0053,-3.9202,-3.7387,-3.4885,-3.2317,-3.0293,-2.8765,-2.8771,-2.8281,-2.7568,-2.7568,-2.7568,-2.7568,-2.7568,-2.7033,-2.6326,-2.6326,-2.5685,-2.4874,-2.4761,-2.4555,0.0,0.0,-2.3999,-2.3896,-2.3816,-2.3759,-2.3741,-2.3741,-2.3705,-2.3487,-2.2789,-2.2644,-2.2391,0.0,-2.1387,-2.1387,-2.1387,0.0,-2.1115,-2.0355,-2.021,-1.9902,-1.915,-1.8334,-1.7527,-1.6729,-1.5954,-1.5162,-1.4318,-1.3534,-1.2621,-1.1517,-0.9921,-0.8794,-0.8303,-0.6824,-0.675,-0.8296,-0.7539,0.0,0.0,0.0,0.0,0.0,0.0,0.0,0.0,0.0,0.0,0.0,0.0,0.0,0.0,0.0,0.0,0.0,0.0,0.0,0.0,0.0,0.0,0.0,0.0,0.0,0.0,0.0,0.0,-3.3828,-3.3499,0.0,-3.5336,-3.4988,-3.4991,-3.5827,-3.6645,-3.7353,-3.788,-3.9394,-4.0318,-4.0442,-4.1197,-4.1718,-4.19,-4.2077,-4.2316,-4.2601,-4.2744,-4.2794,-4.2775,-4.1896,-4.1342,-4.0998,-3.9603,-3.8476,-3.754,-3.6069,-3.3528,-3.056,-3.0567,-3.0051,-2.9306,-2.9306,-2.8943,-2.8478,-2.8478,-2.7924,-2.7141,-2.6575,-2.6136,-2.5689,-2.504,-2.5075,-2.5306,-2.506,-2.5281,-2.5418,-2.4762,-2.4574,-2.4429,-2.3922,-2.3806,-2.3723,-2.3451,-2.3415,-2.3324,-2.3035,-2.2184,-2.1514,-2.1514,-2.1514,-2.1405,-2.1115,-2.0626,-2.0192,-1.9902,-1.9168,-1.8353,-1.7563,-1.7211,-1.6722,-1.5907,-1.5114,-1.4216,-1.3234,-1.1152,-0.9507,-0.8468,-0.6325,-0.537,-0.5819,-0.509,-0.4699,0.0,0.0,0.0,0.0,0.0,0.0,0.0,0.0,0.0,0.0,0.0,0.0,0.0,0.0,0.0,0.0,0.0,0.0,0.0,0.0,0.0,0.0,0.0,0.0,0.0,0.0,-3.4098,-3.7773,-3.7735,-3.8063,-3.9765,-3.9398,-3.9399,-4.023,-4.0815,-4.1333,-4.1832,-4.2789,-4.3369,-4.3503,-4.3702,-4.3753,-4.3634,-4.3491,-4.3417,-4.3439,-4.3562,-4.3614,-4.3596,-4.245,-4.1934,-4.1839,-4.0177,-3.9279,-3.8954,-3.8381,-3.6337,-3.3547,-3.2974,-3.2057,-3.1045,-3.1045,-3.0675,-3.0095,-2.9529,-2.8803,-2.7962,-2.7096,-2.6771,-2.6616,-2.5942,-2.6018,-2.6241,-2.5977,-2.6195,-2.633,-2.5597,-2.5208,-2.4864,-2.432,-2.3994,-2.3806,-2.3806,-2.3806,-2.3806,-2.3806,-2.2962,-2.2274,-2.2274,-2.2274,-2.2202,-2.1938,-2.145,-2.0916,-2.0373,-1.9829,-1.9095,-1.8008,-1.79,-1.7581,-1.6766,-1.5954,-1.5096,-1.4159,-1.1919,-1.0187,-0.9145,-0.6691,-0.5169,-0.4815,-0.412,-0.4065,-0.4647,0.0,0.0,0.0,0.0,0.0,0.0,0.0,0.0,0.0,0.0,0.0,0.0,0.0,0.0,0.0,0.0,0.0,0.0,0.0,0.0,0.0,0.0,0.0,-3.33,-3.5466,-3.8044,-4.0681,-4.2454,-4.3479,-4.3498,-4.3518,-4.3812,-4.4504,-4.4631,-4.5324,-4.6855,-4.681,-4.7065,-4.7769,-4.6893,-4.6338,-4.6196,-4.5404,-4.5026,-4.5103,-4.517,-4.5224,-4.5239,-4.3596,-4.2813,-4.2717,-4.1046,-3.9843,-3.9049,-3.9049,-3.8534,-3.7559,-3.5897,-3.4246,-3.2814,-3.2795,-3.2756,-3.2508,-3.0854,-2.9707,-2.8834,-2.7967,-2.7667,-2.7604,-2.7456,-2.7288,-2.7091,-2.682,-2.6665,-2.6531,-2.6304,-2.566,-2.5074,-2.5056,-2.444,-2.3842,-2.3842,-2.3824,-2.3806,-2.3806,-2.3806,-2.3806,-2.3806,-2.3806,-2.356,-2.2843,-2.2717,0.0,-2.0536,-2.0318,-1.9685,-1.8099,-1.7936,-1.7617,-1.6838,-1.6045,-1.5182,-1.4242,-1.2171,-1.0801,-1.0377,-0.7996,-0.6343,-0.5612,-0.4888,-0.5063,-0.6164,0.0,0.0,0.0,0.0,0.0,0.0,0.0,0.0,0.0,0.0,0.0,0.0,0.0,0.0,0.0,0.0,0.0,0.0,0.0,0.0,0.0,0.0,-3.7013,-3.7638,-3.9398,-4.1777,-4.4987,-4.6322,-4.725,-4.7889,-4.8477,-4.8628,-4.8199,-4.8105,-4.795,-4.7713,-4.7576,-4.7545,-4.7643,-4.6792,-4.6289,-4.6203,-4.5404,-4.5003,-4.5026,-4.5148,-4.5203,-4.5186,-4.4149,-4.3348,-4.2737,-4.1648,-4.0692,-3.9938,-3.9938,-3.9431,-3.8476,-3.6806,-3.5851,-3.5373,-3.4743,-3.414,-3.349,-3.2394,-3.1477,-3.0636,-2.9777,-2.9062,-2.8422,-2.7682,-2.7741,-2.7997,-2.778,-2.8009,-2.8141,-2.7412,-2.705,-2.6741,-2.614,-2.5394,-2.4819,-2.4819,-2.4356,-2.3927,-2.3886,-2.3876,-2.3865,-2.3806,-2.3806,-2.3723,-2.3524,-2.3043,0.0,-2.1296,-2.0662,-1.9902,-1.8878,-1.8769,-1.8679,-1.8461,-1.77,-1.6866,-1.5972,-1.4037,-1.2515,-1.1565,-0.9752,-0.7769,-0.5643,-0.5261,-0.5832,0.0,0.0,0.0,0.0,0.0,0.0,0.0,0.0,0.0,0.0,0.0,0.0,0.0,0.0,0.0,0.0,0.0,0.0,0.0,0.0,0.0,0.0,-3.9495,-4.1932,-4.3556,-4.3982,-4.5278,-4.8333,-4.9455,-5.0326,-5.1215,-5.1697,-5.155,-5.0629,-5.0442,-4.994,-4.896,-4.8781,-4.8672,-4.8568,-4.7353,-4.6683,-4.6618,-4.5489,-4.4919,-4.4955,-4.5084,-4.517,-4.5184,-4.4368,-4.3739,0.0,-4.2011,-4.1227,-4.0788,-4.0435,-3.9995,0.0,0.0,0.0,0.0,0.0,-3.4694,-3.3937,-3.3414,-3.2477,-3.1427,-3.0911,-3.013,-2.9291,-2.87,-2.8686,-2.8839,-2.8633,-2.8765,-2.886,-2.825,-2.785,-2.7479,-2.7004,-2.6293,-2.571,-2.571,-2.5072,-2.4496,-2.4447,-2.4174,0.0,-2.3847,-2.3816,-2.3806,-2.3806,-2.3433,-2.289,-2.2101,-2.1296,-2.0499,-1.9685,-1.9312,-1.9102,-1.9102,-1.8393,0.0,0.0,0.0,-1.3482,-1.2418,-1.1157,0.0,0.0,0.0,-0.6988,-0.8343,0.0,0.0,0.0,-0.9515,-0.8844,0.0,0.0,0.0,0.0,0.0,0.0,0.0,0.0,0.0,0.0,0.0,0.0,0.0,0.0,0.0,0.0,-4.4259,-4.7212,-4.9649,-4.872,-4.8662,-5.0917,-5.195,-5.2782,-5.3547,-5.366,-5.3223,-5.2116,-5.1896,-5.132,-5.0245,0.0,0.0,0.0,0.0,-4.7265,-4.7211,-4.5621,-4.4821,-4.4895,-4.5045,-4.5136,-4.5173,-4.4463,-4.4083,-4.3911,-4.2335,-4.159,-4.1437,-4.0635,-4.0244,-3.9995,-3.8343,-3.7215,-3.6385,-3.5526,-3.4751,-3.4147,-3.4147,0.0,0.0,-3.1675,-3.0993,-3.0186,-2.9964,-2.9746,-2.9539,-2.9286,-2.91,-2.897,-2.8846,-2.8293,-2.7757,-2.7757,-2.7137,-2.6564,-2.6564,-2.5932,-2.5338,-2.5218,-2.4626,-2.4105,-2.3935,-2.3865,-2.3806,-2.3806,-2.3806,-2.3524,-2.2789,-2.2002,-2.1188,-2.0382,0.0,0.0,-1.9115,-1.851,-1.7781,-1.6987,-1.544,-1.4203,-1.3374,-1.2562,-1.2119,-1.2056,-0.9596,-0.8734,-0.9547,-1.0193,-1.0163,-0.95,-0.8802,-0.7837,0.0,0.0,0.0,0.0,0.0,0.0,0.0,0.0,0.0,0.0,0.0,0.0,0.0,0.0,0.0,-4.5432,-4.8159,-5.0345,-5.1544,-5.2028,-5.2453,-5.2937,-5.3768,-5.4332,-5.4471,-5.4988,-5.4659,-5.2997,-5.2644,-5.177,-5.0133,-4.9912,-4.9821,-4.975,-4.8112,-4.7243,-4.7284,-4.5634,-4.4821,-4.4895,0.0,0.0,-4.5125,-4.5063,-4.4666,-4.3949,-4.2966,-4.2144,-4.1437,-4.0635,-3.9881,-3.9145,-3.8113,-3.7215,-3.6385,-3.5526,-3.5095,-3.498,-3.498,-3.4331,-3.3394,-3.2699,-3.1833,-3.0909,-3.0148,-2.9727,0.0,-2.9322,-2.9149,-2.8994,-2.897,-2.886,-2.8732,-2.8732,-2.812,-2.7526,-2.7526,-2.6892,-2.613,-2.5411,-2.5155,-2.4823,-2.4105,-2.3927,-2.3847,-2.3806,-2.3806,-2.3524,-2.2789,-2.1995,-2.1189,-2.039,-1.9633,-1.9184,-1.9184,-1.9046,-1.8627,-1.7825,-1.6841,-1.6233,-1.6048,-1.5335,-1.4891,-1.4822,-1.3066,-1.2203,-1.2337,-1.2304,-1.1784,-1.0797,-0.9542,-0.8315,0.0,0.0,0.0,0.0,0.0,0.0,0.0,0.0,0.0,0.0,0.0,-3.9896,0.0,0.0,-4.7057,-4.874,-5.1177,-5.2995,-5.344,-5.4213,-5.46,-5.4194,-5.4523,-5.4951,-5.5304,-5.5615,-5.5002,-5.3096,-5.2736,-5.1792,-4.9896,-4.9692,-4.9653,-4.9648,-4.8013,-4.7188,-4.7257,-4.5621,-4.4821,-4.4895,-4.5045,-4.5125,-4.5159,-4.5246,-4.5048,-4.459,-4.3348,-4.2545,-4.2049,-4.0807,-4.0034,-3.9565,-3.8686,-3.7597,-3.6385,-3.5526,-3.5209,-3.5209,-3.5209,-3.4674,-3.3937,-3.349,-3.271,-3.1849,-3.1303,-3.0997,-3.0692,-3.0149,-2.9879,-2.9639,-2.9166,-2.9051,-2.9051,-2.9005,-2.8693,-2.8411,-2.8411,-2.7769,-2.695,-2.6104,-2.5627,-2.5067,-2.4202,-2.4016,-2.3986,-2.3907,-2.3896,-2.3769,-2.3406,-2.2653,-2.1844,-2.1043,-2.0285,-1.9697,-1.9287,-1.8883,-1.847,-1.8075,-1.768,-1.7442,-1.7442,-1.7096,-1.6888,-1.6854,-1.5244,-1.4556,-1.4848,-1.4241,-1.3757,-1.3365,-1.2236,-1.0575,0.0,0.0,0.0,0.0,0.0,0.0,0.0,0.0,-3.9984,-4.0607,-4.2763,-4.4866,-4.5896,-4.8604,-5.1022,-5.1981,-5.4058,-5.547,-5.5316,-5.5838,-5.5896,-5.4929,-5.4948,-5.5213,-5.5681,-5.5605,-5.469,-5.2676,-5.2328,-5.1457,-4.9698,-4.9536,-4.9536,-4.9608,-4.7974,-4.7151,-4.7229,-4.5615,-4.4846,-4.4919,-4.5068,-4.5148,-4.5203,-4.5275,-4.5307,-4.5211,-4.352,-4.2622,-4.2221,-4.0855,-4.0301,-4.0205,-3.9336,-3.8171,-3.6863,-3.5832,-3.5362,-3.5209,-3.5209,-3.4789,-3.4205,-3.4052,-3.3481,-3.279,-3.2515,-3.2279,-3.1983,-3.1186,-3.0873,-3.0605,-2.9828,-2.9617,-2.9591,-2.9522,-2.9389,-2.9237,-2.9244,-2.8594,-2.7805,-2.6998,-2.6172,-2.5364,-2.4508,-2.4215,-2.4085,-2.4006,-2.3996,-2.3996,-2.3996,-2.3304,-2.2574,-2.1926,-2.1048,-2.0167,-1.9371,-1.8705,-1.8335,-1.8335,-1.8335,-1.8335,-1.8335,-1.8335,-1.8328,-1.8324,-1.7007,-1.659,-1.7113,-1.6312,-1.5973,-1.6046,-1.5323,-1.3312,-3.1734,-3.204,-3.3227,-3.5678,-3.7608,-3.9146,0.0,0.0,-4.5153,-4.5183,-4.7203,-4.948,-5.1049,-5.2937,-5.4755,-5.6332,-5.7482,-5.7907,-5.7125,-5.7106,-5.6564,-5.4987,-5.5432,-5.5571,-5.4824,-5.464,-5.3722,-5.1718,-5.1374,-5.0776,-4.9661,-4.9536,-4.9536,-4.9608,-4.7974,-4.7165,-4.7284,-4.5698,-4.4919,-4.4979,-4.5125,-4.5192,-4.5203,-4.5275,-4.5307,-4.5211,-4.352,-4.1953,-4.0568,-4.0377,-4.0301,-4.0205,-3.9336,-3.8897,-3.8534,-3.6939,-3.5851,-3.5209,-3.5209,-3.5152,-3.4961,-3.4235,-3.3887,-3.3601,-3.2748,-3.239,-3.2232,-3.2003,-3.1853,-3.1725,-3.1621,-3.1496,-3.1383,-3.1344,-3.072,-3.0134,-3.0075,-2.9427,-2.862,-2.7824,-2.7016,-2.6209,-2.5383,-2.4659,-2.4163,-2.4026,-2.3996,-2.3996,-2.3996,-2.336,-2.2849,-2.2758,-2.1412,-2.0181,-1.9363,-1.9224,-1.9168,-1.9168,-1.9168,-1.9168,-1.9168,-1.9168,-1.9168,-1.9161,-1.8977,-1.8915,-1.901,-1.8901,-1.8445,-1.7725,-1.7576,-1.5562,-3.3509,-3.4381,0.0,0.0,-4.089,-4.3042,-4.4846,-4.7553,-4.9787,-5.0221,-5.1955,-5.3572,-5.4271,-5.5006,-5.5741,0.0,-5.6844,-5.696,-5.6583,-5.6147,-5.5586,-5.4871,-5.4194,-5.3793,-5.384,-5.3763,-5.3056,-5.1472,-5.1182,-5.0639,-4.9604,-4.9505,-4.9551,-4.9648,-4.8032,-4.7229,-4.7409,-4.5785,-4.5003,-4.5125,-4.517,-4.5213,-4.5265,-4.5297,-4.501,-4.4475,-4.331,-4.2106,-4.096,-4.0492,-4.0301,-4.0263,-3.99,-3.9451,-3.8858,-3.7636,-3.6967,-3.6642,-3.6642,-3.6642,-3.6604,-3.626,-3.5796,-3.5287,-3.489,-3.4346,-3.3752,-3.3195,-3.292,-3.2716,-3.2166,-3.195,-3.186,-3.1786,-3.1084,-3.0412,-3.0431,-2.9769,-2.8946,-2.8138,-2.7701,-2.721,-2.641,-2.5957,-2.5707,-2.5687,-2.4789,-2.4115,-2.4115,-2.3849,-2.329,-2.2364,-2.12,-2.0162,-1.937,-1.9297,-1.9297,-1.9297,-1.9297,-1.9297,-1.9297,-1.9297,-1.9297,-1.9297,-1.9297,-1.9297,-1.9297,-1.93,-1.9101,-1.8764,-1.8733,-1.7648,-3.6401,0.0,0.0,-4.2579,-4.5053,-4.7385,-4.965,-5.183,-5.3499,-5.4067,-5.4987,-5.5741,-5.5973,-5.6012,0.0,-5.6313,-5.6553,-5.6631,-5.639,-5.5644,-5.4871,-5.4175,-5.2763,-5.186,-5.1929,-5.205,-5.1721,-5.0703,-5.0525,-5.0189,-4.96,-4.9582,-4.9623,-4.9721,-4.8324,-4.757,-4.7498,-4.6098,-4.5319,-4.5192,-4.5213,-4.5246,-4.5307,-4.5307,-4.4819,-4.3968,-4.3376,-4.2507,-4.1437,-4.0864,-4.0492,-4.0301,-4.0301,-3.99,-3.9279,-3.8648,-3.8113,-3.7693,-3.7693,-3.7693,-3.7693,-3.7693,-3.7266,-3.6696,-3.6478,-3.5929,-3.5209,-3.4337,-3.3998,-3.3762,-3.309,-3.284,-3.2756,-3.2684,-3.1952,-3.1288,-3.1309,-3.0458,-2.9508,-2.8935,-2.8459,-2.7966,-2.7391,-2.7046,-2.6907,-2.6954,-2.5634,-2.4617,-2.457,-2.4338,-2.3657,-2.229,-2.1363,-2.0537,-1.9693,-1.9426,-1.9297,-1.9297,-1.9297,-1.9297,-1.9297,-1.9297,-1.9297,-1.9297,-1.9297,-1.9305,-1.9331,-1.9331,-1.9338,-1.9364,-1.9364,-1.9044,0.0,0.0,-4.5201,-4.8664,-5.0801,-5.2515,-5.4231,-5.5315,-5.5965,-5.5924,-5.5335,-5.5064,-5.5857,-5.6012,-5.6274,-5.7125,-5.7965,-5.8236,-5.7376,-5.6506,-5.5045,-5.2569,-5.1486,-5.0275,0.0,-4.9093,-4.9363,-4.8998,-4.8914,-4.9105,-4.9669,-4.975,-4.9792,-4.9792,-4.898,-4.8215,-4.7517,-4.6742,-4.5974,-4.5192,-4.5275,-4.5297,-4.5307,-4.5307,-4.4819,-4.4006,-4.3968,-4.3042,-4.1495,-4.1457,-4.0998,-4.0301,-4.0301,-4.0282,-4.0263,-4.0225,-3.9145,-3.7693,-3.7693,-3.7693,-3.7693,-3.7693,-3.7674,-3.7493,-3.6658,-3.6373,-3.6174,-3.5292,-3.5019,-3.4954,-3.4916,-3.4803,-3.4693,-3.4622,-3.3907,-3.3192,-3.3138,-3.1819,-3.0652,-3.0633,-2.9353,-2.8288,-2.8269,-2.7604,-2.7086,-2.7086,-2.6334,-2.5679,-2.5486,-2.4726,-2.3878,-2.3043,-2.2244,-2.1408,-2.0548,-1.9748,-1.9297,-1.9297,-1.9297,-1.9297,-1.9297,-1.9297,-1.9297,-1.9297,-1.9297,-1.9331,-1.9398,-1.9398,-1.9438,-1.9483,-1.9483,-1.9483,0.0,0.0,-4.7816,-5.0736,-5.3127,-5.4907,-5.5468,-5.6725,-5.7422,-5.6244,-5.5354,-5.4716,-5.4407,-5.3401,-5.289,-5.3768,-5.4639,-5.5316,-5.5606,-5.489,-5.402,-5.3149,-5.0809,0.0,0.0,0.0,0.0,-4.901,-4.8968,-4.9231,-4.994,-4.9939,-4.9952,-4.9992,-4.9174,-4.8656,-4.8495,-4.7148,-4.6336,-4.6048,-4.5534,-4.5307,-4.5307,-4.5307,-4.5144,-4.4838,-4.4255,-4.3376,-4.2316,-4.1743,-4.1036,-4.0301,-4.0301,-4.0301,-4.0301,-4.0301,-3.9919,-3.9431,-3.9431,-3.9431,-3.9431,-3.9431,-3.903,-3.84,-3.7523,-3.6884,-3.6283,-3.5416,-3.5153,-3.5138,-3.5138,-3.503,-3.4927,-3.4908,-3.4168,-3.3505,-3.3524,-3.2185,-3.0969,-3.1024,-3.0139,-2.9367,-2.9346,-2.9147,-2.8565,-2.7414,-2.6381,-2.5476,-2.4718,-2.4384,-2.3896,-2.3098,-2.2749,-2.2034,-2.0621,-2.0286,-1.9934,-1.9401,-1.9413,-1.9413,-1.9364,-1.9364,-1.9364,-1.9364,-1.9376,-1.9405,-1.9468,-1.9501,-1.9541,-1.9573,-1.9573,-1.9569,0.0,-4.8826,-5.1315,-5.3933,-5.5996,-5.7385,-5.7385,-5.754,-5.7172,-5.547,-5.3478,-5.1776,-5.0906,-4.9842,-4.9494,-5.0654,-5.2086,-5.344,-5.4639,-5.431,-5.373,-5.3111,-5.0828,0.0,0.0,0.0,0.0,-4.8718,-4.8715,-4.9149,-5.0159,-5.0217,-5.0217,-5.0205,-4.9661,-4.926,-4.9045,-4.7659,-4.6647,-4.6061,-4.5545,-4.5307,-4.5307,-4.5307,-4.5307,-4.5269,-4.4704,-4.3997,-4.3157,-4.2316,-4.1476,-4.0711,-4.0416,-4.0301,-4.0301,-4.0301,-4.0301,-4.0301,-4.0301,-4.0301,-4.0301,-4.0301,-3.9919,-3.9298,-3.8438,-3.7808,-3.7207,-3.6337,-3.5891,-3.5664,-3.5664,-3.5375,-3.5075,-3.5075,-3.4584,-3.4158,-3.4196,-3.3086,-3.1996,-3.1746,-3.0999,-3.03,-3.0021,-2.9951,-2.9334,-2.7598,-2.6718,-2.5789,-2.4487,-2.4266,-2.4035,-2.352,-2.3208,-2.2618,-2.1549,-2.0965,-2.0435,-1.9933,-1.9653,-1.9608,-1.9856,-1.9848,-1.9874,-1.99,-1.9896,-1.9799,-1.9576,-1.9608,-1.9658,-1.9665,-1.966,-1.9661,-5.0458,-5.3164,-5.561,-5.8141,-5.9332,-5.987,-5.9735,-5.7723,-5.5354,-5.3544,-4.983,-4.6639,0.0,0.0,-4.6194,-4.7927,-5.0345,-5.2627,-5.4426,-5.4716,-5.4136,0.0,0.0,0.0,0.0,0.0,0.0,-4.8248,0.0,-4.8903,-5.034,-5.0547,-5.0557,-5.0425,-5.041,-5.0013,-4.9179,-4.8253,-4.6959,-4.5307,-4.5307,-4.5307,-4.5307,-4.5307,-4.5307,-4.5307,-4.5307,-4.4819,-4.393,-4.3138,-4.2297,-4.1418,-4.0616,-4.0301,-4.0301,-4.0301,-4.0301,-4.0301,-4.0301,-4.0301,-4.0301,-4.0301,-4.0301,-4.0129,-3.926,-3.9011,-3.882,-3.7941,-3.7158,-3.6557,-3.6557,-3.5921,-3.5257,-3.5257,-3.5174,-3.5101,-3.5101,-3.4416,-3.3578,-3.2817,-3.1922,-3.1074,-3.0293,-3.0084,-2.9402,-2.7665,-2.7352,-2.662,-2.4747,-2.4393,-2.433,-2.433,-2.3619,-2.3191,-2.3215,-2.1713,-2.0782,-2.0808,-2.0028,-1.9914,-2.0674,-2.0749,-2.0801,-2.0886,-2.0851,-2.0466,-1.9782,-1.9745,-1.9757,-1.9813,-1.9806,-1.9806,-5.3106,-5.5863,-5.809,-5.9417,-5.9863,-5.9481,-5.7583,-5.5618,-5.317,-4.9548,-4.6396,-4.4021,0.0,0.0,0.0,-4.52,-4.7715,0.0,-5.2531,-5.342,0.0,0.0,0.0,-5.1447,-5.0349,-4.9691,0.0,0.0,-4.9625,-4.9688,-5.0722,-5.0752,-5.0724,-5.0698,-5.0654,-5.049,-5.022,-4.8667,-4.7023,-4.5369,-4.5317,-4.5307,-4.5307,-4.5307,-4.5307,-4.5307,-4.5307,-4.4819,-4.393,-4.3138,-4.2297,-4.1418,-4.0616,-4.0301,-4.0301,-4.0301,-4.0301,-4.0301,-4.0301,-4.0301,-4.0301,-4.0301,-4.0301,-4.0129,-3.926,-3.9011,-3.882,-3.7941,-3.754,-3.7387,-3.7387,-3.6787,-3.6158,-3.6158,-3.5654,-3.5176,-3.5176,-3.4527,-3.3887,-3.3677,-3.2466,-3.1378,-3.1111,-3.0521,-2.9493,-2.7802,-2.7444,-2.6692,-2.4816,-2.4547,-2.4513,-2.4513,-2.4336,-2.399,-2.3409,-2.2417,-2.1568,-2.0998,-2.0743,-2.0717,-2.0928,-2.1543,-2.1908,-2.1908,-2.1324,-2.0953,-2.0825,-2.0212,-1.9939,-1.9945,-1.9947,-1.9945,-5.5845,-5.7993,-5.9478,-5.9937,-5.9731,-5.8653,-5.5726,-5.2857,-4.9672,-4.5776,-4.2296,0.0,0.0,0.0,0.0,0.0,0.0,0.0,-5.183,-5.3306,-5.4257,0.0,-5.3939,0.0,-5.2124,-5.1657,-5.161,0.0,-5.0978,-5.0627,-5.1462,-5.1513,-5.1331,-5.0941,-5.0858,-5.0426,-4.9566,-4.8481,-4.7095,-4.5408,-4.5359,-4.5328,-4.5307,-4.5307,-4.5307,-4.5307,0.0,-4.501,-4.4513,-4.3673,-4.3042,-4.2526,-4.1705,-4.1399,-4.1361,-4.0979,-4.0826,-4.0788,-4.0416,-4.0301,-4.0301,-4.0301,-4.0301,-4.0205,-3.9709,-3.9565,-3.947,-3.8973,-3.8572,-3.8266,-3.8266,-3.7387,-3.65,-3.65,-3.5832,-3.5209,-3.5209,-3.4846,-3.4426,-3.4071,-3.2611,-3.1446,-3.1446,-3.0703,-2.953,-2.7857,-2.7535,-2.6849,-2.5049,-2.4734,-2.4681,-2.4681,-2.4681,-2.452,-2.4091,-2.3298,-2.2623,-2.2204,-2.1827,-2.1764,-2.2128,-2.2645,-2.2917,-2.2905,-2.2147,-2.161,-2.1282,-2.0449,-2.0049,-2.0049,-2.0068,-2.0083,-5.8311,-5.9604,-6.0235,-6.0061,-5.9107,-5.7312,-5.3892,-4.9705,-4.5576,-4.2144,0.0,0.0,-3.4463,0.0,-3.7501,-4.004,0.0,-4.7882,-5.1314,-5.3332,-5.4549,-5.4789,-5.4912,-5.4636,-5.3773,-5.3747,-5.3766,-5.3764,-5.2336,-5.1696,-5.2278,-5.2363,-5.1994,-5.1127,-5.0937,-5.0004,-4.824,-4.798,-4.705,-4.5429,-4.5419,-4.5379,-4.5309,-4.5317,-4.5317,-4.5317,-4.5307,0.0,-4.522,-4.435,-4.4006,-4.3911,-4.3119,-4.2794,-4.2717,-4.1953,-4.1667,-4.1552,-4.075,-4.0454,-4.0435,-4.032,-4.0301,-4.0301,-4.0301,-4.0301,-4.0301,-4.0301,-3.9747,-3.9164,-3.9164,-3.7913,-3.6653,-3.6653,-3.5908,-3.5209,-3.5209,-3.5209,-3.4999,-3.4292,-3.2764,-3.1591,-3.1656,-3.0806,-2.9544,-2.7865,-2.761,-2.7018,-2.533,-2.4953,-2.4851,-2.4851,-2.4851,-2.4865,-2.4919,-2.4143,-2.3663,-2.3721,-2.3025,-2.2912,-2.3619,-2.3816,-2.3904,-2.3897,-2.3067,-2.2271,-2.1574,-2.059,-2.0107,-2.0107,-2.0168,-2.0201,-5.938,-6.0519,-6.0997,-6.0266,-5.7851,-5.4757,-5.132,-4.666,0.0,0.0,0.0,-3.3583,-3.3447,-3.4244,0.0,-3.8325,0.0,0.0,0.0,0.0,-5.3257,0.0,0.0,0.0,0.0,0.0,0.0,0.0,0.0,-5.3003,-5.2408,-5.2394,-5.1994,-5.1128,-5.0397,-4.9477,-4.8387,-4.7576,-4.6637,-4.5554,-4.5513,-4.5448,-4.5381,-4.537,-4.5369,-4.5388,-4.5317,0.0,-4.522,-4.435,-4.4006,-4.3911,-4.3119,-4.2794,-4.2775,-4.2622,-4.2565,-4.245,-4.159,-4.1285,-4.117,-4.0511,-4.0301,-4.0301,-4.0301,-4.0301,-4.0301,-4.0301,-4.0186,-4.0072,-4.0072,-3.8801,-3.7483,-3.7483,-3.6317,-3.5209,-3.5209,-3.5209,-3.5171,-3.5018,-3.3635,-3.2489,-3.2489,-3.1209,-2.9605,-2.7937,-2.7682,-2.7084,-2.5394,-2.5095,-2.505,-2.505,-2.505,-2.5044,-2.5051,-2.4314,-2.3856,-2.3858,-2.373,-2.3705,-2.3839,-2.4549,-2.4948,-2.4929,-2.3514,-2.27,-2.2551,-2.0958,-2.0171,-2.0171,-2.0193,-2.0197,-5.9632,-6.074,-6.0985,-5.9224,-5.6544,-5.3086,-4.8327,0.0,0.0,0.0,0.0,-3.1899,-3.1899,0.0,0.0,0.0,0.0,0.0,0.0,0.0,0.0,0.0,0.0,0.0,0.0,0.0,0.0,0.0,0.0,-5.4,-5.3125,-5.1824,-5.0905,-5.0485,-4.9595,-4.8684,-4.7779,-4.7335,-4.6623,-4.5657,-4.5616,-4.5575,-4.5504,-4.5467,-4.5448,-4.5448,-4.537,0.0,-4.5312,-4.49,-4.4728,-4.469,-4.4306,-4.4163,-4.4095,-4.3606,-4.3414,-4.331,-4.2469,-4.2183,-4.203,-4.1208,-4.0635,-4.0301,-4.0301,-4.0301,-4.0301,-4.0301,-4.0301,-4.0301,-4.0301,-3.9336,-3.8275,-3.7861,-3.6466,-3.5234,-3.5209,-3.5209,-3.5209,-3.5209,-3.3845,-3.2699,-3.2699,-3.13,-2.9632,-2.795,-2.7739,-2.7126,-2.542,-2.5176,-2.5141,-2.5141,-2.5141,-2.5147,-2.5145,-2.4801,-2.4583,-2.4585,-2.4585,-2.4585,-2.4585,-2.5009,-2.5255,-2.5255,-2.3645,-2.2799,-2.2799,-2.1088,-2.0242,-2.0261,-2.0249,-2.0249,-5.9322,-6.0312,-6.0273,-5.7904,-5.5093,-5.1363,-4.555,-4.0927,0.0,0.0,0.0,-3.0694,-3.0694,0.0,0.0,0.0,0.0,0.0,0.0,0.0,0.0,0.0,0.0,0.0,0.0,0.0,0.0,0.0,0.0,0.0,-5.3203,-5.1092,-4.9809,-4.9635,-4.8726,-4.7907,-4.7223,-4.7036,-4.6531,-4.5742,-4.5727,-4.5708,-4.5646,-4.5565,-4.5538,-4.5538,-4.5494,0.0,0.0,-4.5457,-4.5438,-4.5448,-4.5438,-4.5429,-4.5342,-4.4603,-4.4315,-4.418,-4.3358,-4.2957,-4.266,-4.1781,-4.1074,-4.0511,-4.0339,-4.0301,-4.0301,-4.0301,-4.0291,-4.0301,-4.0301,-3.966,-3.8818,-3.8019,-3.6679,-3.5553,-3.552,-3.5351,-3.5209,-3.5209,-3.3853,-3.2714,-3.2714,-3.1329,-2.9704,-2.8192,-2.7878,-2.725,-2.5702,-2.5337,-2.5222,-2.5228,-2.5217,-2.5212,-2.5217,-2.5222,-2.5222,-2.5228,-2.5228,-2.5228,-2.5228,-2.5268,-2.5297,-2.5297,-2.3842,-2.299,-2.2797,-2.1293,-2.0462,-2.0308,-2.0308,-2.0385,-5.8253,-5.8991,-5.8622,-5.6855,-5.3306,-4.8877,-4.3632,0.0,0.0,0.0,-3.1351,-3.0694,-3.0694,-3.1487,-3.2435,0.0,0.0,0.0,0.0,0.0,0.0,0.0,0.0,0.0,0.0,0.0,0.0,0.0,0.0,0.0,-5.1435,-5.0464,-4.9537,-4.8735,-4.7875,-4.7365,-4.7287,-4.6507,-4.6026,-4.5873,-4.588,-4.5847,-4.5786,-4.5703,-4.5688,-4.5681,-4.568,0.0,0.0,-4.5616,-4.558,-4.558,-4.5575,-4.555,-4.5485,-4.5389,-4.5323,-4.5149,-4.4278,-4.3464,-4.266,-4.1781,-4.1437,-4.1246,-4.0511,-4.0301,-4.0301,-4.0301,-4.03,-4.0298,-4.0298,-3.9702,-3.8892,-3.8076,-3.7171,-3.6487,-3.646,-3.5796,-3.5209,-3.5209,-3.3895,-3.279,-3.279,-3.1409,-2.996,-2.9027,-2.826,-2.7486,-2.6598,-2.5786,-2.5297,-2.5298,-2.5238,-2.5222,-2.5287,-2.5287,-2.5297,-2.5298,-2.5298,-2.5298,-2.5298,-2.5303,-2.5303,-2.5303,-2.4428,-2.3586,-2.2797,-2.185,-2.1,-2.0308,-2.0308,-2.0692,-5.5689,-5.6894,-5.6874,-5.5165,-5.1513,-4.6987,-4.1859,0.0,0.0,-3.1642,-3.0515,-2.9913,-2.9913,-3.0205,-3.0729,0.0,0.0,0.0,0.0,0.0,0.0,0.0,0.0,0.0,0.0,0.0,0.0,0.0,0.0,0.0,-4.9668,-4.8813,-4.8172,-4.7822,-4.6968,-4.6521,-4.6521,-4.6161,-4.5989,-4.596,-4.5962,-4.5925,-4.5867,-4.5834,-4.5814,-4.5814,-4.5778,0.0,0.0,-4.5771,-4.5771,-4.5791,-4.5737,-4.57,-4.568,-4.5651,-4.5586,-4.5389,-4.4489,-4.3905,-4.3378,-4.2058,-4.158,-4.1408,-4.0567,-4.0299,-4.0318,-4.0345,-4.0363,-4.0362,-4.0362,-3.9763,-3.9068,-3.8717,-3.7996,-3.7248,-3.6699,-3.632,-3.5902,-3.5358,-3.3937,-3.2795,-3.2795,-3.1411,-3.0017,-2.9192,-2.8384,-2.7555,-2.672,-2.5831,-2.5298,-2.5303,-2.5288,-2.5264,-2.5293,-2.5293,-2.5298,-2.5308,-2.5308,-2.5308,-2.5308,-2.5308,-2.5308,-2.5308,-2.4509,-2.3937,-2.3586,-2.2177,-2.135,-2.1,-2.0538,-2.0731,-5.1785,-5.3358,-5.3591,-5.1869,-4.858,-4.4443,0.0,0.0,-3.2341,-3.0341,-2.9447,-2.9016,-2.9016,-2.9016,-2.9292,0.0,0.0,0.0,0.0,0.0,0.0,0.0,0.0,0.0,0.0,0.0,0.0,0.0,0.0,0.0,0.0,-4.7395,-4.6929,-4.6929,-4.6327,-4.6002,-4.6002,-4.6002,-4.5991,-4.6008,-4.6008,-4.5978,-4.5935,-4.5937,-4.5925,-4.5925,-4.588,0.0,0.0,-4.5918,-4.595,-4.5956,-4.5886,-4.5861,-4.5848,-4.5786,-4.5696,-4.5511,-4.4577,-4.4056,-4.3551,-4.2151,-4.1482,-4.1129,-4.0534,-4.0362,-4.0334,-4.0398,-4.0415,-4.0432,-4.043,-4.0013,-3.9569,-3.9525,-3.8881,-3.8043,-3.7168,-3.6788,-3.6332,-3.5461,-3.4153,-3.3105,-3.2875,-3.1661,-3.0438,-2.9605,-2.8591,-2.7678,-2.7063,-2.6,-2.5308,-2.5308,-2.5308,-2.5308,-2.5308,-2.5308,-2.5308,-2.5308,-2.5308,-2.5308,-2.5308,-2.5308,-2.5308,-2.5308,-2.4736,-2.4336,-2.411,-2.2874,-2.2143,-2.1878,-2.1301,-2.1478,-4.6443,-4.8017,-4.825,-4.6526,-4.4156,-4.0893,0.0,0.0,-3.1269,-2.8667,-2.8123,-2.81,-2.81,-2.81,-2.8395,-2.9272,0.0,0.0,0.0,0.0,0.0,0.0,0.0,0.0,0.0,0.0,0.0,0.0,0.0,0.0,0.0,-4.6482,-4.6021,-4.6021,-4.6002,-4.6002,-4.6002,-4.6002,-4.6002,-4.6002,-4.6002,-4.6002,-4.6002,-4.5997,-4.5997,0.0,0.0,0.0,0.0,-4.6032,-4.6037,-4.6095,-4.6032,-4.6,-4.5991,-4.5917,-4.5802,-4.558,-4.4704,-4.3794,-4.2864,-4.1986,-4.1125,-4.0415,-4.0485,-4.0449,-4.0407,-4.0407,-4.0441,-4.0491,-4.05,-4.0496,-4.0496,-4.0496,-3.9811,-3.8954,-3.807,-3.7206,-3.6332,-3.5461,-3.4635,-3.3819,-3.3031,-3.2212,-3.1385,-3.0519,-2.8967,-2.7895,-2.7895,-2.6365,-2.5308,-2.5308,-2.5308,-2.5308,-2.5308,-2.5308,-2.5308,-2.5308,-2.5308,-2.5308,-2.5308,-2.5308,-2.5308,-2.5308,-2.5288,-2.4909,-2.411,-2.4072,-2.3638,-2.2793,-2.2773,-2.3244,-4.133,-4.2714,-4.3199,-4.2656,-4.015,-3.71,-3.4303,-3.1425,-2.9094,-2.8278,-2.7657,-2.7272,-2.7272,-2.7272,-2.7544,-2.8376,-2.8745,0.0,0.0,0.0,0.0,0.0,0.0,0.0,0.0,0.0,0.0,0.0,0.0,0.0,0.0,-4.6463,-4.6002,-4.6002,-4.6002,-4.6002,-4.6002,-4.6002,-4.6002,-4.6002,-4.6002,-4.6002,-4.6002,-4.6002,-4.6002,0.0,0.0,0.0,0.0,-4.6128,-4.6141,-4.6169,-4.6138,-4.6145,-4.6123,-4.6061,-4.5576,-4.4821,-4.3942,-4.2996,-4.2041,-4.1168,-4.0702,-4.0466,-4.0495,-4.0499,-4.0466,-4.046,-4.0484,-4.05,-4.0489,-4.0496,-4.0496,-4.0496,-4.0296,-3.9704,-3.8281,-3.7747,-3.7144,-3.5715,-3.4749,-3.3897,-3.3051,-3.2231,-3.141,-3.0538,-2.9448,-2.853,-2.7972,-2.6909,-2.5962,-2.5365,-2.5308,-2.5308,-2.5308,-2.5308,-2.5308,-2.5308,-2.5308,-2.5308,-2.5308,-2.5308,-2.5317,-2.5361,-2.5361,-2.5244,-2.4986,-2.4446,-2.3728,-2.2886,-2.3481,-2.3902,0.0,-3.7411,-3.7955,-3.7625,-3.5682,0.0,0.0,-2.9424,-2.754,-2.723,-2.6767,-2.6417,-2.6417,-2.6672,-2.7155,-2.7968,-2.8647,0.0,0.0,0.0,0.0,0.0,0.0,0.0,0.0,0.0,0.0,0.0,0.0,0.0,0.0,-4.6288,-4.6002,-4.6002,-4.6002,-4.6002,-4.6002,-4.6002,-4.6002,-4.6002,-4.6002,-4.6002,-4.6002,-4.6002,-4.6007,0.0,0.0,0.0,0.0,-4.6177,-4.6193,-4.6201,-4.6192,-4.6192,-4.6197,-4.6158,-4.5731,-4.4982,-4.3749,-4.2884,-4.2137,-4.0931,-4.0527,-4.0495,-4.0508,-4.0492,-4.0495,-4.0508,-4.0496,-4.0496,-4.0496,-4.0496,-4.0496,-4.0496,-4.0265,-3.9669,-3.8296,-3.7738,-3.7103,-3.575,-3.5064,-3.4314,-3.3103,-3.2487,-3.1756,-3.0577,-2.966,-2.8819,-2.8011,-2.714,-2.6269,-2.5385,-2.5308,-2.5308,-2.5308,-2.5308,-2.5308,-2.5308,-2.5317,-2.5346,-2.5346,-2.5341,-2.536,-2.5402,-2.5419,-2.5444,-2.5437,-2.4926,-2.4411,-2.3883,-2.4443,-2.4687,0.0,0.0,0.0,0.0,0.0,0.0,0.0,-2.7388,0.0,-2.5776,-2.5601,-2.5601,-2.5601,-2.63,-2.7174,-2.8045,-2.9599,0.0,0.0,0.0,0.0,0.0,0.0,0.0,0.0,0.0,0.0,0.0,0.0,0.0,0.0,-4.6002,-4.6002,-4.6002,-4.6002,-4.6002,-4.6002,-4.6002,-4.6002,-4.6002,-4.6002,-4.6002,-4.6002,-4.6002,-4.6037,0.0,0.0,0.0,0.0,-4.6209,-4.6201,-4.6199,-4.6199,-4.6199,-4.6199,-4.6197,-4.6126,-4.5765,-4.4017,-4.3285,-4.2832,-4.1145,-4.0565,-4.0516,-4.0496,-4.0496,-4.0496,-4.0496,-4.0496,-4.0496,-4.0496,-4.0496,-4.0496,-4.0496,-3.99,-3.9073,-3.818,-3.7315,-3.6462,-3.5654,-3.55,-3.4962,-3.3276,-3.2949,-3.2352,-3.0731,-2.9756,-2.8896,-2.8088,-2.7236,-2.6351,-2.5481,-2.5332,-2.5313,-2.5313,-2.5313,-2.5313,-2.5313,-2.5365,-2.5403,-2.5407,-2.5408,-2.541,-2.5414,-2.5472,-2.5505,-2.5509,-2.5502,-2.5502,-2.5506,-2.5506,-2.5502,-2.6884,0.0,-2.935,0.0,0.0,0.0,0.0,0.0,0.0,0.0,0.0,0.0,0.0,-2.63,-2.7372,-2.8864,0.0,0.0,0.0,0.0,0.0,0.0,0.0,0.0,0.0,0.0,0.0,0.0,0.0,0.0,0.0,-4.6002,-4.6002,-4.6002,-4.6042,-4.6042,-4.6002,-4.6002,-4.6002,-4.6002,-4.6002,-4.6032,-4.6071,-4.6071,-4.6085,0.0,0.0,0.0,-4.6209,-4.6204,-4.6192,-4.6199,-4.6199,-4.6206,-4.6196,-4.6199,-4.5768,-4.5016,-4.3875,-4.2992,-4.2162,-4.097,-4.0591,-4.0573,-4.0523,-4.0496,-4.0496,-4.0496,-4.0496,-4.0496,-4.0496,-4.0496,-4.0496,-4.0496,-3.99,-3.9073,-3.818,-3.7315,-3.6462,-3.5654,-3.55,-3.5154,-3.4083,-3.3333,-3.2564,-3.1545,-3.0654,-2.9794,-2.8934,-2.8098,-2.7262,-2.6395,-2.5735,-2.5376,-2.5376,-2.5384,-2.5374,-2.5369,-2.5395,-2.5421,-2.5468,-2.5479,-2.5489,-2.5473,-2.5549,-2.5578,-2.5589,-2.5572,-2.5587,-2.5578,-2.5578,-2.5582,-2.5652,-2.6308,-2.7004,-2.7004,-2.6643,-2.63,0.0,0.0,0.0,0.0,0.0,0.0,0.0,0.0,0.0,0.0,0.0,0.0,0.0,0.0,0.0,0.0,0.0,0.0,0.0,0.0,0.0,0.0,0.0,0.0,0.0,-4.5663,-4.5454,-4.5454,-4.5133,-4.5303,-4.6037,-4.6052,-4.6056,-4.6056,-4.6056,-4.6066,-4.6095,-4.6095,-4.6128,0.0,0.0,0.0,-4.6196,-4.6206,-4.619,-4.619,-4.619,-4.6196,-4.6203,-4.6203,-4.5901,-4.5312,-4.3996,-4.2656,-4.1421,-4.0868,-4.0668,-4.0639,-4.0598,-4.0564,-4.0542,-4.0504,-4.0496,-4.0496,-4.0496,-4.0496,-4.0419,-4.0035,-3.9304,-3.845,-3.7584,-3.6731,-3.6019,-3.5577,-3.55,-3.5212,-3.4359,-3.3821,-3.309,-3.1871,-3.1293,-3.0554,-2.9321,-2.8444,-2.7624,-2.6783,-2.5936,-2.5457,-2.5456,-2.5449,-2.5453,-2.5452,-2.5449,-2.5462,-2.5509,-2.5523,-2.5559,-2.5587,-2.5634,-2.5648,-2.5651,-2.5648,-2.5644,-2.5655,-2.5615,-2.5602,-2.5692,-2.5665,-2.5609,-2.5609,-2.5599,-2.5607,0.0,0.0,0.0,0.0,0.0,0.0,0.0,0.0,0.0,0.0,0.0,0.0,0.0,0.0,0.0,0.0,0.0,0.0,0.0,0.0,0.0,0.0,0.0,0.0,0.0,-4.5205,-4.4731,-4.4615,-4.3953,-4.4275,-4.5706,-4.5836,-4.5981,-4.6098,-4.6098,-4.6117,-4.6122,-4.6126,-4.6158,-4.6197,0.0,0.0,-4.6209,-4.6209,-4.6209,-4.6209,-4.6209,-4.6209,-4.6212,-4.6203,-4.6201,-4.5955,-4.4205,-4.2376,-4.0828,-4.0815,-4.0763,-4.0726,-4.0726,-4.0681,-4.0621,-4.0557,-4.0519,-4.0523,-4.0523,-4.0516,-4.0323,-3.965,-3.8719,-3.7796,-3.7065,-3.6154,-3.55,-3.55,-3.5507,-3.5264,-3.4539,-3.4295,-3.3731,-3.2316,-3.1879,-3.1207,-2.9781,-2.8786,-2.7898,-2.7086,-2.6225,-2.5661,-2.5537,-2.5518,-2.5529,-2.5525,-2.5517,-2.5526,-2.5525,-2.5598,-2.5644,-2.5704,-2.5709,-2.5691,-2.5692,-2.5707,-2.5702,-2.5696,-2.5641,-2.5616,-2.5696,-2.5683,-2.5669,-2.5602,-2.5591,-2.5603,0.0,0.0,0.0,0.0,0.0,0.0,0.0,0.0,0.0,0.0,0.0,0.0,0.0,0.0,0.0,0.0,0.0,0.0,0.0,0.0,0.0,0.0,0.0,0.0,0.0,-4.4845,-4.4498,-4.3813,-4.3654,-4.3728,-4.3977,-4.4651,-4.5378,-4.6098,-4.6098,-4.6126,-4.6185,-4.6181,-4.6199,-4.6196,0.0,-4.6201,-4.6203,-4.6203,-4.6203,-4.6203,-4.6203,-4.6231,-4.6279,-4.6211,-4.6233,-4.6023,-4.4223,-4.2457,-4.0952,-4.0891,-4.0849,-4.0773,-4.0776,-4.0781,-4.0776,-4.0764,-4.068,-4.058,-4.058,-4.0539,-4.0477,-4.0342,-3.9123,-3.7969,-3.7834,-3.6596,-3.55,-3.55,-3.5495,-3.5464,-3.5329,-3.4731,-3.4202,-3.3948,-3.2689,-3.169,-3.1434,-3.0098,-2.8854,-2.799,-2.7162,-2.639,-2.5658,-2.5639,-2.5666,-2.5662,-2.5623,-2.5607,-2.5676,-2.5684,-2.5694,-2.5701,-2.5701,-2.5702,-2.5703,-2.5702,-2.57,-2.5698,-2.5692,-2.5688,-2.5708,-2.5697,-2.5685,-2.5662,-2.5977,-2.6291,0.0,0.0,0.0,0.0,0.0,0.0,0.0,0.0,0.0,0.0,0.0,0.0,0.0,0.0,0.0,0.0,0.0,0.0,0.0,0.0,0.0,0.0,0.0,0.0,0.0,0.0,-4.3307,-4.2967,-4.2497,-4.247,-4.2947,-4.3325,-4.3939,-4.4796,-4.4796,-4.4819,-4.4848,-4.4854,-4.5097,-4.5493,0.0,-4.5826,-4.6258,-4.6258,-4.6258,-4.6258,-4.6258,-4.626,-4.6303,-4.6267,-4.5681,-4.4781,-4.3931,-4.2501,-4.1042,-4.1016,-4.0964,-4.0909,-4.092,-4.0888,-4.0854,-4.0854,-4.0769,-4.0646,-4.0605,-4.0576,-4.0442,-3.9958,-3.9265,-3.843,-3.7507,-3.6692,-3.6026,-3.5592,-3.5528,-3.554,-3.5559,-3.5272,-3.4905,-3.4414,-3.3325,-3.2395,-3.1956,-3.0477,-2.9301,-2.8894,-2.7725,-2.6783,-2.6382,-2.5959,-2.5707,-2.5707,-2.5665,-2.5668,-2.5698,-2.57,-2.5702,-2.5703,-2.5703,-2.5703,-2.5703,-2.5703,-2.5703,-2.5702,-2.5702,-2.5702,-2.5699,-2.569,-2.5697,-2.5694,0.0,0.0,-2.7155,0.0,0.0,0.0,0.0,0.0,0.0,0.0,0.0,0.0,0.0,0.0,0.0,0.0,0.0,0.0,0.0,0.0,0.0,0.0,0.0,0.0,0.0,0.0,0.0,0.0,-4.2247,-4.2109,-4.1457,-4.1427,-4.2095,-4.2095,-4.2639,-4.3709,-4.3709,-4.3709,-4.3709,-4.3692,-4.4046,-4.4629,-4.4896,-4.5391,-4.6015,-4.621,-4.6308,-4.6308,-4.6308,-4.6308,-4.6271,-4.6064,-4.5028,-4.3673,-4.3478,-4.2392,-4.1106,-4.1106,-4.107,-4.1026,-4.1026,-4.0979,-4.091,-4.091,-4.0835,-4.0719,-4.0655,-4.064,-4.0456,-3.9791,-3.9468,-3.896,-3.7613,-3.7016,-3.6555,-3.5939,-3.5718,-3.5623,-3.5651,-3.5684,-3.5499,-3.4846,-3.3872,-3.3018,-3.2416,-3.0856,-2.9725,-2.9547,-2.8362,-2.7449,-2.7025,-2.6205,-2.5698,-2.5698,-2.57,-2.5702,-2.5703,-2.5703,-2.5703,-2.5703,-2.5703,-2.5703,-2.5703,-2.5703,-2.5703,-2.5703,-2.5703,-2.5703,-2.5701,-2.5698,-2.5694,-2.5697,0.0,0.0,-2.7916,0.0,0.0,0.0,0.0,0.0,0.0,0.0,0.0,0.0,0.0,0.0,0.0,0.0,0.0,0.0,0.0,0.0,0.0,0.0,0.0,0.0,0.0,0.0,0.0,0.0,0.0,-4.1212,-4.1128,-4.1139,-4.1189,-4.1189,-4.2043,-4.3709,-4.3709,-4.3709,-4.3709,-4.3702,-4.3728,-4.3825,-4.4655,-4.5049,-4.5166,-4.5968,-4.63,-4.63,-4.63,-4.63,-4.6202,-4.5382,-4.4504,-4.3587,-4.2765,-4.188,-4.1092,-4.1092,-4.11,-4.1089,-4.1089,-4.105,-4.0987,-4.0987,-4.0945,-4.0878,-4.0798,-4.0745,-4.0668,-4.061,-3.9972,-3.9353,-3.9237,-3.7984,-3.6876,-3.6808,-3.6202,-3.5717,-3.5778,-3.5799,-3.5785,-3.578,-3.4362,-3.3288,-3.3301,-3.1775,-3.0419,-2.9662,-2.9489,-2.8768,-2.7148,-2.6191,-2.5703,-2.5703,-2.5703,-2.5703,-2.5703,-2.5703,-2.5703,-2.5702,-2.5702,-2.5702,-2.57,-2.57,-2.57,-2.57,-2.57,-2.5699,-2.5705,-2.5702,-2.5698,-2.5692,0.0,0.0,0.0,0.0,0.0,0.0,0.0,0.0,0.0,0.0,0.0,0.0,0.0,0.0,0.0,0.0,0.0,0.0,0.0,0.0,0.0,0.0,0.0,0.0,0.0,0.0,0.0,0.0,0.0,-4.1114,-4.1096,-4.1092,-4.1103,-4.1103,-4.1433,-4.2073,-4.2073,-4.2073,-4.2073,-4.2077,-4.2371,-4.2918,-4.3234,-4.3995,-4.5029,-4.5363,-4.5812,-4.63,-4.63,-4.63,-4.6183,-4.5324,-4.4445,-4.3587,-4.2708,-4.1828,-4.1103,-4.1103,-4.1101,-4.1097,-4.1097,-4.1087,-4.1054,-4.1054,-4.1031,-4.1002,-4.0888,-4.0812,-4.0769,-4.0764,-4.05,-3.9972,-3.8883,-3.8189,-3.7457,-3.6416,-3.5974,-3.5774,-3.585,-3.5853,-3.586,-3.5903,-3.4458,-3.3378,-3.3403,-3.1907,-3.0759,-3.0448,-2.9922,-2.8886,-2.7148,-2.6699,-2.6289,-2.5723,-2.5703,-2.5703,-2.5703,-2.5703,-2.5702,-2.5701,-2.5701,-2.5701,-2.57,-2.5698,-2.5696,-2.5696,-2.5694,-2.5691,-2.5707,-2.5705,-2.578,0.0,0.0,0.0,0.0,0.0,0.0,0.0,0.0,0.0,0.0,0.0,0.0,0.0,0.0,0.0,0.0,0.0,0.0,0.0,0.0,0.0,0.0,0.0,0.0,0.0,0.0,0.0,0.0,0.0,0.0,0.0,-4.0281,-4.0416,-4.0698,-4.0698,-4.0836,-4.1109,-4.1109,-4.1109,-4.1109,-4.1109,-4.142,-4.2006,-4.2279,-4.3079,-4.419,-4.4484,-4.4933,-4.5519,-4.5773,-4.5714,-4.5402,-4.4816,-4.4036,-4.3157,-4.2298,-4.1596,-4.1109,-4.1109,-4.1109,-4.1109,-4.1109,-4.1103,-4.1094,-4.1094,-4.1098,-4.107,-4.0991,-4.0915,-4.0869,-4.0868,-4.0853,-4.044,-3.8996,-3.8485,-3.7922,-3.6506,-3.6047,-3.5885,-3.5919,-3.5924,-3.5938,-3.5938,-3.4481,-3.3393,-3.3395,-3.1932,-3.0898,-3.0898,-3.0117,-2.9121,-2.793,-2.7324,-2.6758,-2.6152,-2.5859,-2.5703,-2.5702,-2.5702,-2.5701,-2.5698,-2.5698,-2.5698,-2.5697,-2.5694,-2.5691,-2.5709,-2.5706,-2.5701,-2.5707,-2.5707,0.0,0.0,0.0,0.0,0.0,0.0,0.0,0.0,0.0,0.0,0.0,0.0,0.0,0.0,0.0,0.0,0.0,0.0,0.0,0.0,0.0,0.0,0.0,0.0,0.0,0.0,0.0,0.0,0.0,0.0,0.0,0.0,-3.8508,-3.8912,-3.978,-3.98,-4.0229,-4.109,-4.109,-4.109,-4.1109,-4.1109,-4.1109,-4.1148,-4.2006,-4.2396,-4.2474,-4.3333,-4.3705,-4.3782,-4.4641,-4.4465,-4.3705,-4.3686,-4.3138,-4.2279,-4.1402,-4.1109,-4.1109,-4.1109,-4.1109,-4.1109,-4.1109,-4.1103,-4.1094,-4.1094,-4.1105,-4.1093,-4.1093,-4.1045,-4.1009,-4.1009,-4.0933,-4.0669,-3.987,-3.8991,-3.8155,-3.734,-3.6544,-3.5995,-3.6003,-3.5992,-3.5995,-3.5995,-3.4511,-3.3398,-3.3379,-3.1934,-3.0898,-3.0898,-3.0137,-2.9609,-2.9609,-2.8027,-2.7011,-2.6991,-2.6189,-2.5701,-2.5702,-2.5701,-2.5698,-2.5694,-2.5694,-2.5692,-2.5707,-2.5707,-2.5704,-2.5699,-2.5699,-2.569,-2.5707,0.0,0.0,0.0,0.0,0.0,0.0,0.0,0.0,0.0,0.0,0.0,0.0,0.0,0.0,0.0,0.0,0.0,0.0,0.0,0.0,0.0,0.0,0.0,0.0,0.0,0.0,0.0,0.0,0.0,0.0,0.0,0.0,0.0,-3.85,-3.8653,-3.8942,-3.8962,-3.9099,-3.9333,-3.9333,-3.9958,-4.1109,-4.1109,-4.1109,-4.1109,-4.1363,-4.183,-4.2474,-4.3333,-4.3705,-4.3725,-4.3977,-4.3938,-4.3626,-4.3001,-4.2611,-4.2279,-4.1402,-4.1109,-4.1109,-4.1109,-4.1093,-4.1095,-4.1095,-4.1098,-4.1099,-4.1094,-4.1091,-4.1108,-4.1108,-4.1083,-4.1072,-4.1064,-4.0593,-3.9894,-3.9041,-3.822,-3.7373,-3.6521,-3.616,-3.5991,-3.5992,-3.5995,-3.5996,-3.5996,-3.4512,-3.2969,-3.1797,-3.1211,-3.0898,-3.0898,-3.0664,-3.0273,-2.9648,-2.9138,-2.8317,-2.7087,-2.6753,-2.6341,-2.5736,-2.5696,-2.5694,-2.5709,-2.5706,-2.5703,-2.5702,-2.5698,-2.5692,-2.5701,-2.5701,-2.5669,-2.5707,0.0,0.0,0.0,0.0,0.0,0.0,0.0,0.0,0.0,0.0,0.0,0.0,0.0,0.0,0.0,0.0,0.0,0.0,0.0,0.0,0.0,0.0,0.0,0.0,0.0,0.0,0.0,0.0,0.0,0.0,0.0,0.0,0.0,-3.7485,-3.7697,-3.8084,-3.8084,-3.8259,-3.8591,-3.8591,-3.9138,-4.0114,-4.0446,-4.0581,-4.06,-4.0953,-4.1402,-4.1927,-4.2454,-4.2671,-4.271,-4.304,-4.2962,-4.2651,-4.2474,-4.2181,-4.181,-4.1285,-4.1091,-4.1093,-4.1093,-4.0883,-4.0614,-4.0614,-4.0382,-4.011,-4.0108,-4.0106,-4.0106,-4.0106,-4.0108,-4.0184,-4.054,-4.0226,-3.9509,-3.8282,-3.7644,-3.7044,-3.6168,-3.5994,-3.5995,-3.5995,-3.5996,-3.5996,-3.5996,-3.4512,-3.2793,-3.1113,-3.0898,-3.0898,-3.0898,-3.0897,-3.0681,-3.0154,-2.98,-2.8998,-2.7592,-2.7198,-2.6609,-2.573,-2.5709,-2.5707,-2.5704,-2.5696,-2.571,-2.571,-2.568,-2.5668,-2.5656,-2.5626,-2.5608,0.0,0.0,0.0,0.0,0.0,0.0,0.0,0.0,0.0,0.0,0.0,0.0,0.0,0.0,0.0,0.0,0.0,0.0,0.0,0.0,0.0,0.0,0.0,0.0,0.0,0.0,0.0,0.0,0.0,0.0,0.0,0.0,0.0,-3.5656,-3.5736,-3.6141,-3.6931,-3.6931,-3.7379,-3.824,-3.824,-3.8298,-3.8396,-3.9273,-3.9722,-3.9839,-4.0639,-4.1031,-4.1109,-4.1109,-4.1109,-4.1187,-4.1967,-4.1791,-4.1207,-4.1986,-4.1771,-4.109,-4.109,-4.1055,-4.0982,-4.0982,-4.0439,-3.9779,-3.9779,-3.9233,-3.8608,-3.8607,-3.8607,-3.8607,-3.8607,-3.8609,-3.8787,-3.9487,-3.9663,-3.9234,-3.7634,-3.7244,-3.6952,-3.6152,-3.5996,-3.5996,-3.5996,-3.5937,-3.582,-3.5684,-3.4297,-3.2695,-3.1113,-3.0898,-3.0897,-3.0897,-3.0895,-3.0894,-3.0894,-3.0167,-2.9344,-2.8467,-2.7604,-2.6723,-2.5843,-2.5741,-2.5699,-2.5698,-2.5681,-2.5689,-2.5687,-2.5628,-2.5593,-2.5598,-2.5529,-2.5499,0.0,0.0,0.0,0.0,0.0,0.0,0.0,0.0,0.0,0.0,0.0,0.0,0.0,0.0,0.0,0.0,0.0,0.0,0.0,0.0,0.0,0.0,0.0,0.0,0.0,0.0,0.0,0.0,0.0,0.0,0.0,0.0,-3.3699,-3.3936,-3.3945,-3.4053,-3.4236,-3.4236,-3.4686,0.0,-3.5545,-3.5896,-3.6617,-3.816,-3.9195,-3.9819,-3.9995,-4.0464,-4.1109,-4.1109,-4.1109,-4.1129,-4.1304,-4.1265,-4.1129,-4.1304,-4.1268,-4.1097,-4.1097,-4.0691,-4.0168,-4.0168,-3.9584,-3.8884,-3.8884,-3.8748,-3.8593,-3.8591,-3.8591,-3.8591,-3.8591,-3.8591,-3.8475,-3.7988,-3.7851,-3.7754,-3.7383,-3.6758,-3.6211,-3.6035,-3.5996,-3.5996,-3.5996,-3.543,-3.4531,-3.3223,-3.2656,-3.2011,-3.1034,-3.0896,-3.0895,-3.0895,-3.0892,-3.0909,-3.0909,-3.069,-3.0197,-2.938,-2.8499,-2.7637,-2.6753,-2.6051,-2.5697,-2.5692,-2.5648,-2.5622,-2.562,-2.5554,-2.5525,-2.5531,-2.5501,-2.5472,0.0,0.0,0.0,0.0,0.0,0.0,0.0,0.0,0.0,0.0,0.0,0.0,0.0,0.0,0.0,0.0,0.0,0.0,0.0,0.0,0.0,0.0,0.0,0.0,0.0,0.0,0.0,0.0,0.0,0.0,0.0,-3.2697,-3.2939,-3.3393,-3.3404,-3.3392,-3.3396,-3.3396,-3.363,-3.4081,-3.4491,-3.5154,-3.6031,-3.7379,-3.8435,-3.9234,-3.9234,-3.9489,-3.9899,-3.9899,-3.9899,-3.9899,-3.9902,-3.9903,-3.9904,-3.9907,-3.9909,-3.9892,-3.9892,-3.9622,-3.9273,-3.9273,-3.8689,-3.7988,-3.7988,-3.7695,-3.7363,-3.7363,-3.7363,-3.7363,-3.7363,-3.7363,-3.7246,-3.6797,-3.6992,-3.7187,-3.6777,-3.6328,-3.5996,-3.5996,-3.5996,-3.5879,-3.5449,-3.4648,-3.3632,-3.2343,-3.2128,-3.1814,-3.0993,-3.0894,-3.0892,-3.0892,-3.0868,-3.0844,-3.0842,-3.0819,-3.0444,-2.9601,-2.8762,-2.7899,-2.6993,-2.6128,-2.5655,-2.5652,-2.5593,-2.5557,-2.555,-2.5489,-2.5449,-2.5456,-2.5412,-2.5397,0.0,0.0,0.0,0.0,0.0,0.0,0.0,0.0,0.0,0.0,0.0,0.0,0.0,0.0,0.0,0.0,0.0,0.0,0.0,0.0,0.0,0.0,0.0,0.0,0.0,0.0,0.0,0.0,0.0,0.0,-3.1345,-3.1403,-3.1769,-3.2498,-3.2512,-3.2518,-3.2518,-3.2674,-3.2811,-3.2967,-3.3983,-3.4842,-3.5582,-3.6306,-3.7262,-3.8376,-3.8376,-3.8454,-3.8591,-3.8593,-3.8593,-3.8594,-3.86,-3.8601,-3.8602,-3.8606,-3.8607,-3.8608,-3.8608,-3.8493,-3.8377,-3.8377,-3.7793,-3.707,-3.707,-3.6562,-3.5996,-3.5996,-3.5996,-3.5996,-3.5996,-3.5996,-3.5996,-3.5996,-3.6445,-3.6699,-3.6113,-3.5996,-3.5957,-3.5801,-3.5644,-3.5273,-3.4394,-3.3652,-3.2889,-3.2029,-3.1891,-3.1655,-3.0991,-3.0889,-3.0886,-3.0886,-3.0821,-3.0795,-3.0809,-3.0807,-3.0491,-2.9755,-2.8819,-2.7936,-2.7143,-2.613,-2.5571,-2.5586,-2.5537,-2.5499,-2.5475,-2.5414,-2.5372,-2.5388,-2.5317,-2.5283,0.0,0.0,0.0,0.0,0.0,0.0,0.0,0.0,0.0,0.0,0.0,0.0,0.0,0.0,0.0,0.0,0.0,0.0,0.0,0.0,0.0,0.0,0.0,0.0,0.0,0.0,0.0,0.0,0.0,0.0,-2.8704,-2.8774,-2.8853,-2.8972,-2.8981,-2.8986,-2.8986,-2.9728,-3.045,-3.1171,-3.2791,-3.363,-3.3748,-3.3865,-3.5213,-3.7477,-3.7477,-3.7908,-3.8591,-3.8598,-3.8599,-3.86,-3.8605,-3.8606,-3.8607,-3.8607,-3.8609,-3.8591,-3.8591,-3.8104,-3.7461,-3.7461,-3.6875,-3.6172,-3.6172,-3.6094,-3.5996,-3.5996,-3.5996,-3.5996,-3.5996,-3.5996,-3.5996,-3.5996,-3.5508,-3.5215,-3.5859,-3.5996,-3.5781,-3.5019,-3.4257,-3.3476,-3.2597,-3.2341,-3.2008,-3.1188,-3.1067,-3.1026,-3.0908,-3.0842,-3.0815,-3.0815,-3.0807,-3.0798,-3.0806,-3.0806,-3.0739,-3.0541,-2.908,-2.8133,-2.7949,-2.6384,-2.5518,-2.5501,-2.549,-2.5461,-2.5408,-2.5351,-2.5313,-2.5307,-2.5238,-2.5206,0.0,0.0,0.0,0.0,0.0,0.0,0.0,0.0,0.0,0.0,0.0,0.0,0.0,0.0,0.0,0.0,0.0,0.0,0.0,0.0,0.0,0.0,0.0,0.0,0.0,0.0,0.0,0.0,0.0,-2.8162,-2.8208,-2.8257,-2.8291,-2.8291,-2.8298,-2.8303,-2.8303,-2.8674,-2.9513,-3.082,-3.207,-3.293,-3.3402,-3.3402,-3.4027,-3.5101,-3.5101,-3.5611,-3.6414,-3.6417,-3.6691,-3.714,-3.7144,-3.7145,-3.7146,-3.7147,-3.7148,-3.7148,-3.7148,-3.6894,-3.6562,-3.6562,-3.6309,-3.5996,-3.5996,-3.5996,-3.5996,-3.5996,-3.5996,-3.5996,-3.5996,-3.5996,-3.5879,-3.5391,-3.498,-3.4668,-3.457,-3.4531,-3.4433,-3.4043,-3.326,-3.2556,-3.2165,-3.1733,-3.1301,-3.095,-3.0867,-3.0844,-3.0844,-3.0817,-3.0791,-3.0806,-3.081,-3.0772,-3.0752,-3.0737,-3.0525,-2.9998,-2.878,-2.7874,-2.7385,-2.6121,-2.5437,-2.5436,-2.5432,-2.541,-2.5346,-2.5274,-2.5233,-2.5245,-2.5215,-2.5198,0.0,0.0,0.0,0.0,0.0,0.0,0.0,0.0,0.0,0.0,0.0,0.0,0.0,0.0,0.0,0.0,0.0,0.0,0.0,0.0,0.0,0.0,0.0,0.0,0.0,0.0,0.0,0.0,0.0,-2.7551,-2.7553,-2.7606,-2.7634,-2.7635,-2.764,-2.7643,-2.7643,-2.7858,-2.8814,-3.0494,-3.1157,-3.1921,-3.2764,-3.2764,-3.2764,-3.2784,-3.3213,-3.3761,-3.437,-3.437,-3.4879,-3.566,-3.5663,-3.58,-3.5976,-3.5742,-3.5664,-3.5664,-3.5664,-3.5664,-3.5703,-3.5937,-3.5996,-3.5996,-3.5996,-3.5996,-3.5957,-3.5723,-3.5664,-3.5625,-3.539,-3.5332,-3.5176,-3.4511,-3.4198,-3.3924,-3.3494,-3.3222,-3.3066,-3.3065,-3.2379,-3.1791,-3.1791,-3.1279,-3.0864,-3.0864,-3.082,-3.0795,-3.0795,-3.0807,-3.0798,-3.0788,-3.0762,-3.0751,-3.0678,-3.0671,-3.0292,-2.9416,-2.8481,-2.7609,-2.6784,-2.5861,-2.5369,-2.5375,-2.5366,-2.5327,-2.5269,-2.5222,-2.519,-2.5193,-2.5206,-2.5184,0.0,0.0,0.0,0.0,0.0,0.0,0.0,0.0,0.0,0.0,0.0,0.0,0.0,0.0,0.0,0.0,0.0,0.0,0.0,0.0,0.0,0.0,0.0,0.0,0.0,0.0,0.0,0.0,0.0,-2.5837,-2.5822,-2.5827,-2.5832,-2.5836,-2.5836,-2.5836,-2.5836,-2.6656,-2.7944,-2.9663,-2.9702,-3.0191,-3.1031,-3.1031,-3.1032,-3.1111,-3.271,-3.3432,-3.3471,-3.3474,-3.3983,-3.4764,-3.4765,-3.5273,-3.5898,-3.5078,-3.4766,-3.4766,-3.4766,-3.4766,-3.4902,-3.5723,-3.5996,-3.5996,-3.5996,-3.5996,-3.582,-3.5,-3.4766,-3.457,-3.3749,-3.3534,-3.3514,-3.3474,-3.2848,-3.2457,-3.3238,-3.2751,-3.2164,-3.2164,-3.1517,-3.0967,-3.0967,-3.0881,-3.0813,-3.0813,-3.0806,-3.0799,-3.0799,-3.08,-3.0779,-3.0711,-3.071,-3.0683,-3.0614,-3.0617,-3.0219,-2.9264,-2.8386,-2.7528,-2.666,-2.5774,-2.5316,-2.5316,-2.5245,-2.5215,-2.5217,-2.5209,-2.5193,-2.5193,-2.5203,-2.5168,0.0,0.0,0.0,0.0,0.0,0.0,0.0,0.0,0.0,0.0,0.0,0.0,0.0,0.0,0.0,0.0,0.0,0.0,0.0,0.0,0.0,0.0,0.0,0.0,0.0,0.0,0.0,0.0,0.0,0.0,-2.5696,-2.5698,-2.5699,-2.57,-2.57,-2.57,-2.57,-2.6558,-2.7593,-2.8765,-2.9331,-3.0055,-3.0896,-3.0896,-3.0897,-3.0937,-3.1523,-3.2109,-3.2636,-3.2636,-3.3125,-3.3867,-3.3867,-3.4062,-3.4297,-3.3984,-3.3867,-3.3867,-3.3867,-3.3867,-3.3926,-3.4238,-3.4707,-3.5059,-3.4492,-3.4726,-3.498,-3.4101,-3.3867,-3.3788,-3.3475,-3.3396,-3.3258,-3.2708,-3.1926,-3.1397,-3.1665,-3.1512,-3.132,-3.1277,-3.1038,-3.0837,-3.0833,-3.0822,-3.0794,-3.0794,-3.0761,-3.0747,-3.0747,-3.0742,-3.071,-3.0646,-3.0645,-3.0617,-3.054,-3.0018,-2.9327,-2.8424,-2.7551,-2.6654,-2.5744,-2.5395,-2.5239,-2.5239,-2.5206,-2.5201,-2.5204,-2.5201,-2.5203,-2.5203,-2.5168,-2.5113,0.0,0.0,0.0,0.0,0.0,0.0,0.0,0.0,0.0,0.0,0.0,0.0,0.0,0.0,0.0,0.0,0.0,0.0,0.0,0.0,0.0,0.0,0.0,0.0,0.0,0.0,0.0,0.0,0.0,0.0,-2.5701,-2.5701,-2.5701,-2.5702,-2.5702,-2.5702,-2.5702,-2.6268,-2.701,-2.7869,-2.8748,-2.9627,-3.0468,-3.0761,-3.0898,-3.0898,-3.0898,-3.123,-3.1758,-3.1758,-3.2246,-3.3008,-3.3008,-3.3164,-3.3379,-3.3105,-3.3008,-3.3008,-3.3008,-3.3008,-3.3047,-3.3301,-3.3789,-3.416,-3.3574,-3.3808,-3.4082,-3.3203,-3.2968,-3.2908,-3.2633,-3.2533,-3.2373,-3.1803,-3.1253,-3.0858,-3.081,-3.0837,-3.0842,-3.0812,-3.0806,-3.0799,-3.0767,-3.0772,-3.076,-3.0772,-3.0712,-3.0675,-3.0668,-3.0678,-3.0645,-3.0571,-3.0572,-3.0545,-3.0476,-2.9666,-2.878,-2.7918,-2.7053,-2.6162,-2.5239,-2.5193,-2.5201,-2.5201,-2.5185,-2.518,-2.5178,-2.518,-2.5168,-2.5168,-2.5069,-2.5006,0.0,0.0,0.0,0.0,0.0,0.0,0.0,0.0,0.0,0.0,0.0,0.0,0.0,0.0,0.0,0.0,0.0,0.0,0.0,0.0,0.0,0.0,0.0,0.0,0.0,0.0,0.0,0.0,0.0,-2.5701,-2.5702,-2.5702,-2.5703,-2.5703,-2.5703,-2.5703,-2.5703,-2.5703,-2.6133,-2.7012,-2.7851,-2.8711,-2.959,-3.0449,-3.082,-3.082,-3.0859,-3.0859,-3.0859,-3.0898,-3.1406,-3.2168,-3.2168,-3.2637,-3.3223,-3.2441,-3.2168,-3.2168,-3.2168,-3.2168,-3.2285,-3.3066,-3.334,-3.3359,-3.332,-3.3339,-3.3182,-3.2303,-3.2067,-3.189,-3.1103,-3.0841,-3.0792,-3.0792,-3.0806,-3.0798,-3.0798,-3.0804,-3.0806,-3.0804,-3.08,-3.0772,-3.0708,-3.0689,-3.0707,-3.0697,-3.0633,-3.0611,-3.0606,-3.0608,-3.0567,-3.0501,-3.0491,-3.0469,-3.0398,-2.961,-2.8729,-2.7852,-2.6983,-2.6106,-2.5225,-2.5203,-2.521,-2.5205,-2.5125,-2.5101,-2.5082,-2.5101,-2.5101,-2.5101,-2.4942,-2.4811,-2.5703,0.0,0.0,0.0,0.0,0.0,0.0,0.0,0.0,0.0,0.0,0.0,0.0,0.0,0.0,0.0,0.0,0.0,0.0,0.0,0.0,0.0,0.0,0.0,0.0,0.0,0.0,0.0,-2.5703,-2.5703,-2.5703,-2.5703,-2.5703,-2.5703,-2.5703,-2.5703,-2.5703,-2.5703,-2.6133,-2.6992,-2.7246,-2.7812,-2.8672,-2.8906,-2.9023,-2.9043,-2.9687,-2.9961,-3.0019,-3.0644,-3.1035,-3.1269,-3.1269,-3.1406,-3.1562,-3.1348,-3.1269,-3.1269,-3.1269,-3.1269,-3.1309,-3.1523,-3.1992,-3.2343,-3.1777,-3.1991,-3.2282,-3.1462,-3.1203,-3.1116,-3.089,-3.0806,-3.0803,-3.0803,-3.0794,-3.0782,-3.0747,-3.073,-3.072,-3.0735,-3.0739,-3.0713,-3.0639,-3.0626,-3.0622,-3.0629,-3.0572,-3.0535,-3.053,-3.053,-3.0505,-3.0436,-3.0436,-3.0402,-3.0334,-2.9518,-2.8663,-2.7788,-2.696,-2.6082,-2.5175,-2.5131,-2.5132,-2.5133,-2.5057,-2.5006,-2.4967,-2.5006,-2.5006,-2.4942,-2.4727,-2.4548,0.0,0.0,0.0,0.0,0.0,0.0,0.0,-2.3079,0.0,0.0,0.0,0.0,0.0,0.0,0.0,0.0,0.0,0.0,0.0,0.0,0.0,0.0,0.0,0.0,0.0,0.0,0.0,-2.5703,-2.5703,-2.5703,-2.5703,-2.5703,-2.5703,-2.5703,-2.5703,-2.5703,-2.5703,-2.5703,-2.5957,-2.6465,-2.6836,-2.7266,-2.7773,-2.8125,-2.8301,-2.832,-2.8848,-2.9258,-2.9648,-3.0155,-3.0566,-3.0898,-3.0898,-3.0898,-3.0898,-3.0898,-3.0898,-3.0898,-3.0898,-3.0898,-3.0897,-3.0877,-3.1189,-3.1461,-3.101,-3.1183,-3.1454,-3.0984,-3.0839,-3.0783,-3.0765,-3.0756,-3.0769,-3.0765,-3.0752,-3.0737,-3.0675,-3.0662,-3.0667,-3.0652,-3.0651,-3.0638,-3.0574,-3.0563,-3.0559,-3.0521,-3.0486,-3.046,-3.0463,-3.0422,-3.04,-3.0364,-3.0367,-3.0343,-3.0305,-2.95,-2.8632,-2.7758,-2.693,-2.6052,-2.5145,-2.5063,-2.5051,-2.5018,-2.4952,-2.4837,-2.4697,-2.4837,-2.4842,-2.4696,-2.451,-2.4365,0.0,0.0,0.0,0.0,0.0,0.0,-2.4231,-2.2754,-2.1374,0.0,0.0,0.0,0.0,0.0,0.0,0.0,0.0,0.0,0.0,0.0,0.0,0.0,0.0,0.0,0.0,-2.5703,-2.5703,-2.5703,-2.5703,-2.5703,-2.5703,-2.5703,-2.5703,-2.5703,-2.5703,-2.5703,-2.5703,-2.5703,-2.5703,-2.5703,-2.6484,-2.6855,-2.6875,-2.7656,-2.8008,-2.8027,-2.8105,-2.8651,-2.945,-2.9541,-3.0092,-3.0898,-3.0898,-3.0898,-3.0898,-3.0898,-3.0897,-3.0896,-3.0896,-3.0894,-3.0872,-3.0828,-3.0787,-3.0785,-3.0799,-3.0792,-3.0786,-3.0785,-3.079,-3.0767,-3.0703,-3.0684,-3.0688,-3.0688,-3.0694,-3.0676,-3.0595,-3.0591,-3.0589,-3.0589,-3.0576,-3.0573,-3.0496,-3.0486,-3.0465,-3.0417,-3.0386,-3.0394,-3.0385,-3.0336,-3.0298,-3.0298,-3.0286,-3.0286,-3.0286,-2.9583,-2.8721,-2.7746,-2.6969,-2.6104,-2.5126,-2.5012,-2.4934,-2.4874,-2.4791,-2.4629,-2.4363,-2.4629,-2.4615,-2.4376,-2.4303,-2.4191,0.0,0.0,0.0,0.0,0.0,0.0,-2.3264,-2.0882,-1.8676,0.0,0.0,0.0,0.0,0.0,0.0,0.0,0.0,0.0,0.0,0.0,0.0,0.0,0.0,0.0,0.0,-2.5701,-2.5701,-2.5701,-2.5702,-2.5703,-2.5703,-2.5703,-2.5703,-2.5703,-2.5703,-2.5703,-2.5703,-2.5703,-2.5703,-2.5703,-2.5879,-2.5957,-2.5956,-2.6132,-2.6209,-2.6244,-2.6947,-2.7723,-2.8533,-2.9234,-3.0023,-3.0813,-3.0829,-3.0811,-3.0813,-3.0828,-3.0826,-3.0824,-3.0821,-3.0815,-3.0828,-3.0806,-3.0758,-3.0726,-3.0724,-3.0726,-3.0723,-3.0728,-3.0713,-3.0695,-3.0632,-3.063,-3.063,-3.0626,-3.061,-3.0593,-3.0528,-3.0525,-3.0505,-3.0441,-3.0476,-3.0495,-3.0439,-3.0431,-3.0427,-3.0396,-3.0359,-3.0322,-3.0316,-3.0305,-3.0299,-3.0299,-3.0247,-3.0221,-3.0221,-3.006,-2.9287,-2.7714,-2.7452,-2.6637,-2.5015,-2.4872,-2.4782,-2.467,-2.4539,-2.4366,-2.4155,-2.4375,-2.4357,-2.4173,-2.4086,-2.4026,0.0,0.0,0.0,-2.5553,0.0,0.0,0.0,-2.1651,-1.9679,0.0,0.0,0.0,0.0,0.0,0.0,0.0,0.0,0.0,0.0,0.0,0.0,0.0,0.0,0.0,0.0,-2.5436,-2.571,-2.5692,-2.5694,-2.5696,-2.5699,-2.57,-2.5702,-2.5703,-2.5703,-2.5703,-2.5703,-2.5703,-2.5703,-2.5703,-2.5702,-2.57,-2.5699,-2.5696,-2.5693,-2.5726,-2.613,-2.6784,-2.7592,-2.8012,-2.8696,-2.9503,-2.9967,-2.9897,-2.9551,-2.9994,-2.9871,-2.9574,-2.9996,-3.0137,-3.0095,-3.011,-3.0345,-3.0652,-3.0643,-3.0646,-3.0644,-3.0645,-3.0653,-3.0622,-3.0565,-3.0543,-3.0549,-3.054,-3.055,-3.0535,-3.0467,-3.0132,-2.983,-2.9761,-2.9426,-2.9418,-3.0204,-3.0359,-3.0361,-3.0343,-3.0324,-3.0299,-3.0299,-3.0267,-3.0107,-2.9692,-2.9595,-2.9377,-2.8943,-2.8891,-2.8342,-2.703,-2.6882,-2.6242,-2.491,-2.4719,-2.4567,-2.4355,-2.4284,-2.4163,-2.3999,-2.4096,-2.4096,-2.3999,-2.3937,-2.3886,0.0,0.0,0.0,0.0,0.0,-2.4203,0.0,0.0,0.0,-2.0796,0.0,0.0,0.0,0.0,0.0,0.0,0.0,0.0,0.0,0.0,0.0,0.0,0.0,0.0,0.0,-2.5174,-2.5683,-2.5671,-2.5672,-2.5679,-2.5687,-2.569,-2.5695,-2.57,-2.5701,-2.5702,-2.5703,-2.5702,-2.5701,-2.57,-2.5695,-2.569,-2.5688,-2.5679,-2.5672,-2.5689,-2.5611,-2.6085,-2.6875,-2.6873,-2.7262,-2.794,-2.8875,-2.8799,-2.8276,-2.8971,-2.8784,-2.8284,-2.8975,-2.918,-2.9123,-2.913,-2.9671,-3.0323,-3.0337,-3.0445,-3.0576,-3.0582,-3.0457,-3.0327,-3.0264,-3.0244,-3.0239,-3.0223,-3.0353,-3.0419,-3.0199,-2.963,-2.9113,-2.8895,-2.8288,-2.823,-2.9588,-2.9952,-2.9998,-2.9839,-2.996,-2.9992,-2.9826,-2.9742,-2.9448,-2.8804,-2.8676,-2.8356,-2.7668,-2.7585,-2.7202,-2.6308,-2.6143,-2.5676,-2.4771,-2.4539,-2.4302,-2.4068,-2.4066,-2.4006,-2.3886,-2.3886,-2.3886,-2.3886,-2.3827,-2.3806,0.0,0.0,0.0,0.0,-2.4842,0.0,0.0,0.0,-2.1675,-2.1573,0.0,0.0,0.0,0.0,0.0,0.0,0.0,0.0,0.0,0.0,0.0,0.0,0.0,0.0,0.0,0.0,-2.5602,-2.5613,-2.5601,-2.5611,-2.56,-2.5675,-2.5702,-2.5703,-2.5692,-2.5694,-2.5691,-2.5694,-2.5692,-2.5703,-2.5702,-2.5675,-2.56,-2.5611,-2.5617,-2.5617,-2.56,-2.6065,-2.6799,-2.6815,-2.688,-2.7038,-2.7919,-2.8199,-2.8112,-2.822,-2.8207,-2.8123,-2.8166,-2.8179,-2.8159,-2.8155,-2.8696,-2.9361,-2.9352,-2.9902,-3.05,-3.0519,-2.9959,-2.9354,-2.9349,-2.9289,-2.9253,-2.9253,-2.9844,-3.0204,-2.9421,-2.9181,-2.8875,-2.8101,-2.7867,-2.7863,-2.8055,-2.8675,-2.8905,-2.8183,-2.8696,-2.8868,-2.8089,-2.7937,-2.7853,-2.7777,-2.775,-2.7717,-2.7615,-2.7549,-2.712,-2.6181,-2.605,-2.5549,-2.4478,-2.4248,-2.4075,-2.3927,-2.3927,-2.3886,-2.3806,-2.3806,-2.3806,-2.3806,-2.3806,-2.3806,0.0,0.0,0.0,0.0,0.0,0.0,0.0,0.0,-2.3762,0.0,0.0,0.0,0.0,0.0,0.0,0.0,0.0,0.0,0.0,0.0,0.0,0.0,0.0,0.0,0.0,0.0,0.0,0.0,-2.5274,-2.5556,-2.5595,-2.5634,-2.5648,-2.5639,-2.565,-2.5655,-2.5698,-2.5655,-2.565,-2.5639,-2.565,-2.5634,-2.5595,-2.5556,-2.5543,-2.5529,-2.5534,-2.5725,-2.6051,-2.6051,-2.6059,-2.608,-2.6451,-2.6592,-2.6657,-2.7154,-2.7039,-2.6656,-2.7094,-2.7211,-2.7272,-2.7779,-2.8174,-2.8448,-2.8452,-2.8702,-2.8991,-2.8991,-2.873,-2.845,-2.845,-2.842,-2.8396,-2.8396,-2.8679,-2.8846,-2.8431,-2.7978,-2.7533,-2.7115,-2.6638,-2.6295,-2.6284,-2.7387,-2.8134,-2.7784,-2.8039,-2.8096,-2.7682,-2.7612,-2.7407,-2.689,-2.6858,-2.6614,-2.6013,-2.5958,-2.5721,-2.5257,-2.5066,-2.4717,-2.4192,-2.4047,-2.3937,-2.3837,-2.3837,-2.3827,-2.3806,-2.3806,-2.3806,-2.3806,-2.3806,-2.3806,-2.5511,0.0,0.0,0.0,0.0,0.0,0.0,0.0,0.0,0.0,0.0,0.0,0.0,0.0,0.0,0.0,0.0,0.0,0.0,0.0,0.0,0.0,0.0,0.0,0.0,0.0,0.0,-2.3996,-2.4694,-2.5169,-2.5232,-2.5446,-2.5561,-2.5578,-2.5591,-2.5621,-2.5668,-2.5621,-2.5591,-2.5578,-2.5561,-2.5563,-2.5565,-2.5515,-2.5502,-2.5502,-2.5505,-2.5506,-2.5511,-2.5511,-2.5503,-2.5507,-2.5484,-2.5464,-2.5549,-2.6184,-2.6029,-2.5541,-2.6123,-2.628,-2.6352,-2.6972,-2.7351,-2.7544,-2.7544,-2.7717,-2.7895,-2.7895,-2.7736,-2.7544,-2.7544,-2.7544,-2.7544,-2.7544,-2.7717,-2.7802,-2.7531,-2.6996,-2.6488,-2.6194,-2.5622,-2.5195,-2.5197,-2.6394,-2.7274,-2.7058,-2.7198,-2.7243,-2.695,-2.6879,-2.6629,-2.5979,-2.5861,-2.5532,-2.4813,-2.4723,-2.4645,-2.4497,-2.4266,-2.4086,-2.3986,-2.3907,-2.3837,-2.3806,-2.3806,-2.3806,-2.3806,-2.3806,-2.3795,-2.3803,-2.3795,-2.3795,0.0,0.0,0.0,-2.5507,0.0,0.0,0.0,0.0,-2.5488,0.0,0.0,0.0,0.0,0.0,0.0,0.0,0.0,0.0,0.0,0.0,0.0,0.0,0.0,0.0,0.0,0.0,0.0,-2.3047,-2.3783,-2.427,-2.4348,-2.5085,-2.5502,-2.5502,-2.5571,-2.5599,-2.5604,-2.5599,-2.5571,-2.5502,-2.5502,-2.5493,-2.5499,-2.549,-2.5499,-2.5499,-2.5499,-2.5492,-2.5511,-2.5511,-2.5511,-2.5488,-2.5429,-2.5401,-2.5401,-2.5419,-2.544,-2.5394,-2.5361,-2.5346,-2.5346,-2.5365,-2.5942,-2.664,-2.664,-2.7236,-2.7895,-2.7895,-2.7294,-2.664,-2.664,-2.664,-2.664,-2.664,-2.7239,-2.7588,-2.6814,-2.6573,-2.624,-2.5403,-2.5228,-2.5191,-2.5191,-2.5892,-2.6179,-2.5401,-2.5945,-2.613,-2.5297,-2.5075,-2.4974,-2.4955,-2.4772,-2.4634,-2.4607,-2.4553,-2.4426,-2.4229,-2.4077,-2.3986,-2.3907,-2.3837,-2.3806,-2.3806,-2.3806,-2.3806,-2.3806,-2.3806,-2.3792,-2.3804,-2.3803,-2.3792,0.0,0.0,-2.5507,-2.5507,0.0,0.0,0.0,0.0,0.0,0.0,0.0,0.0,0.0,0.0,0.0,0.0,0.0,0.0,0.0,0.0,0.0,0.0,0.0,0.0,0.0,0.0,0.0,-2.1282,-2.2562,-2.361,-2.4195,-2.5045,-2.5498,-2.5498,-2.5525,-2.5538,-2.5531,-2.5538,-2.5525,-2.5498,-2.5498,-2.549,-2.5491,-2.5503,-2.5499,-2.5499,-2.5492,-2.5507,-2.5507,-2.5507,-2.546,-2.5429,-2.5406,-2.5404,-2.5397,-2.5393,-2.5403,-2.5394,-2.5317,-2.5308,-2.5308,-2.5308,-2.55,-2.5731,-2.5731,-2.5942,-2.6173,-2.6173,-2.5962,-2.5731,-2.5731,-2.574,-2.5744,-2.5744,-2.592,-2.5995,-2.5724,-2.5663,-2.5551,-2.5266,-2.5197,-2.518,-2.5131,-2.5354,-2.5449,-2.5163,-2.5336,-2.5361,-2.5004,-2.4889,-2.4802,-2.4707,-2.4594,-2.452,-2.4471,-2.4375,-2.421,-2.4018,-2.3958,-2.3907,-2.3827,-2.3806,-2.3806,-2.3806,-2.3806,-2.3806,-2.3806,-2.381,-2.3786,-2.3721,-2.3638,-2.3623,-2.5507,-2.5507,0.0,-2.546,-2.5484,0.0,-2.546,0.0,0.0,0.0,0.0,0.0,0.0,0.0,0.0,0.0,0.0,0.0,0.0,-2.0288,0.0,0.0,0.0,0.0,0.0,0.0,-1.9603,-1.9912,-2.1233,-2.2513,0.0,0.0,-2.5178,-2.5488,-2.5503,-2.5494,-2.5494,-2.5494,-2.5503,-2.5507,-2.5507,-2.5499,-2.5507,-2.5507,-2.5507,-2.5507,-2.5507,-2.5507,-2.5507,-2.546,-2.5433,-2.5401,-2.5404,-2.5402,-2.5398,-2.5398,-2.5389,-2.5356,-2.5313,-2.5308,-2.5308,-2.5308,-2.5308,-2.5308,-2.5308,-2.5308,-2.5308,-2.5308,-2.5298,-2.5293,-2.5293,-2.5278,-2.5257,-2.5257,-2.5236,-2.5195,-2.5198,-2.5206,-2.5189,-2.5174,-2.5168,-2.5131,-2.5082,-2.5038,-2.5051,-2.5051,-2.5018,-2.4933,-2.4875,-2.4753,-2.4645,-2.4528,-2.4452,-2.4375,-2.4294,-2.4171,-2.4044,-2.3907,-2.3886,-2.3855,-2.3806,-2.3806,-2.3806,-2.3806,-2.3806,-2.3795,-2.3792,-2.3797,-2.3739,-2.3589,-2.3476,-2.3383]},{"header":{"parameterUnit":"m.s-1","parameterCategory":1,"la1":30.6,"la2":29.2853,"lo1":-89.7004,"lo2":-87.6739,"dy":0.0162,"dx":0.0183,"nx":112,"ny":82,"refTime":"2023-07-25T12:00:00:Z","depth":0,"parameterNumber":3,"parameterNumberName":"V-component_of_WINDS"},"data":[0.0,0.0,0.0,0.0,0.0,0.0,0.0,0.0,0.0,0.0,0.0,0.0,0.0,0.0,0.0,0.0,0.0,0.0,0.0,0.0,0.0,0.0,0.0,0.0,0.0,0.0,0.0,0.0,0.0,0.0,0.0,0.0,0.0,0.0,0.0,0.0,0.0,0.0,0.0,0.0,0.0,0.0,0.0,0.0,0.0,0.0,0.0,0.0,0.0,0.0,0.0,0.0,0.0,0.0,0.0,0.0,0.0,0.0,0.0,0.0,0.0,0.0,0.0,0.0,0.0,0.0,0.0,0.0,0.0,0.0,0.0,0.0,0.0,0.0,0.0,0.0,0.0,0.0,0.0,0.0,0.0,0.0,0.0,0.0,0.0,0.0,0.0,0.0,0.0,0.0,0.0,-0.7229,-0.7714,-0.8,-0.8,-0.72,-0.6702,-0.6702,0.0,0.0,0.0,0.0,0.0,0.0,0.0,0.0,0.0,0.0,0.0,0.0,0.0,0.0,0.0,0.0,0.0,0.0,0.0,0.0,0.0,0.0,0.0,0.0,0.0,0.0,0.0,0.0,0.0,0.0,0.0,0.0,0.0,0.0,0.0,0.0,0.0,0.0,0.0,0.0,0.0,0.0,0.0,0.0,0.0,0.0,0.0,0.0,0.0,0.0,0.0,0.0,0.0,0.0,0.0,0.0,0.0,0.0,0.0,0.0,0.0,0.0,0.0,0.0,0.0,0.0,0.0,0.0,0.0,0.0,0.0,0.0,0.0,0.0,0.0,0.0,0.0,0.0,0.0,0.0,0.0,0.0,0.0,0.0,0.0,0.0,0.0,0.0,0.0,0.0,0.0,0.0,0.0,0.0,0.0,0.0,0.0,0.0,0.0,0.0,0.0,0.0,0.0,0.0,-0.6626,-0.7229,-0.7714,-0.8,-0.8,-0.72,-0.6702,-0.6702,0.0,0.0,0.0,0.0,0.0,0.0,0.0,0.0,0.0,0.0,0.0,0.0,0.0,0.0,0.0,0.0,0.0,0.0,0.0,0.0,0.0,0.0,0.0,0.0,0.0,0.0,0.0,0.0,0.0,0.0,0.0,0.0,0.0,0.0,0.0,0.0,0.0,0.0,0.0,0.0,0.0,0.0,0.0,0.0,0.0,0.0,0.0,0.0,0.0,0.0,0.0,0.0,0.0,0.0,0.0,0.0,0.0,0.0,0.0,0.0,0.0,0.0,0.0,0.0,0.0,0.0,0.0,0.0,0.0,0.0,0.0,0.0,0.0,0.0,0.0,0.0,0.0,0.0,0.0,0.0,0.0,0.0,0.0,0.0,0.0,0.0,0.0,0.0,0.0,0.0,0.0,0.0,0.0,0.0,0.0,0.0,0.0,0.0,0.0,0.0,0.0,0.0,0.0,-0.6739,-0.6985,-0.7223,-0.7702,-0.7903,-0.7689,-0.7085,-0.6557,-0.6241,-0.5957,0.0,0.0,0.0,0.0,0.0,0.0,0.0,0.0,0.0,0.0,0.0,0.0,0.0,0.0,0.0,0.0,0.0,0.0,0.0,0.0,0.0,0.0,0.0,0.0,0.0,0.0,0.0,0.0,0.0,0.0,0.0,0.0,0.0,0.0,0.0,0.0,0.0,0.0,0.0,0.0,0.0,0.0,0.0,0.0,0.0,0.0,0.0,0.0,0.0,0.0,0.0,0.0,0.0,0.0,0.0,0.0,0.0,0.0,0.0,0.0,0.0,0.0,0.0,0.0,0.0,0.0,0.0,0.0,0.0,0.0,0.0,0.0,0.0,0.0,0.0,0.0,0.0,0.0,0.0,0.0,0.0,0.0,0.0,0.0,0.0,0.0,0.0,0.0,0.0,0.0,0.0,0.0,0.0,0.0,0.0,0.0,0.0,0.0,0.0,0.0,0.0,0.0,-0.6981,-0.7291,-0.7209,-0.7613,-0.7767,-0.7438,-0.6845,-0.629,-0.5825,-0.5722,0.0,0.0,0.0,0.0,0.0,0.0,0.0,0.0,0.0,0.0,0.0,0.0,0.0,0.0,0.0,0.0,0.0,0.0,0.0,0.0,0.0,0.0,0.0,0.0,0.0,0.0,0.0,0.0,0.0,0.0,0.0,0.0,0.0,0.0,0.0,0.0,0.0,0.0,0.0,0.0,0.0,0.0,0.0,0.0,0.0,0.0,0.0,0.0,0.0,0.0,0.0,0.0,0.0,0.0,0.0,0.0,0.0,0.0,0.0,0.0,0.0,0.0,0.0,0.0,0.0,0.0,0.0,0.0,0.0,0.0,0.0,0.0,0.0,0.0,0.0,0.0,0.0,0.0,0.0,0.0,0.0,0.0,0.0,0.0,0.0,0.0,0.0,0.0,0.0,0.0,0.0,0.0,0.0,0.0,0.0,0.0,0.0,0.0,0.0,0.0,0.0,0.0,-0.6981,-0.7334,-0.7217,-0.7462,-0.7575,-0.7416,-0.6466,-0.5847,-0.5803,-0.551,0.0,0.0,0.0,0.0,0.0,0.0,0.0,0.0,0.0,0.0,0.0,0.0,0.0,0.0,0.0,0.0,0.0,0.0,0.0,0.0,0.0,0.0,0.0,0.0,0.0,0.0,0.0,0.0,0.0,0.0,0.0,0.0,0.0,0.0,0.0,0.0,0.0,0.0,0.0,0.0,0.0,0.0,0.0,0.0,0.0,0.0,0.0,0.0,0.0,0.0,0.0,0.0,0.0,0.0,0.0,0.0,0.0,0.0,0.0,0.0,0.0,0.0,0.0,0.0,0.0,0.0,0.0,0.0,0.0,0.0,0.0,0.0,0.0,0.0,0.0,0.0,0.0,0.0,0.0,0.0,0.0,0.0,0.0,0.0,0.0,0.0,0.0,0.0,0.0,0.0,0.0,0.0,0.0,0.0,0.0,0.0,0.0,0.0,0.0,0.0,0.0,0.0,-0.6762,-0.6982,0.0,-0.7067,-0.7015,-0.6503,-0.6057,-0.5539,-0.4909,0.0,0.0,0.0,0.0,0.0,0.0,0.0,0.0,0.0,0.0,0.0,0.0,0.0,0.0,0.0,0.0,0.0,0.0,0.0,0.0,0.0,0.0,0.0,0.0,0.0,0.0,0.0,0.0,0.0,0.0,0.0,0.0,0.0,0.0,0.0,0.0,0.0,0.0,0.0,0.0,0.0,0.0,0.0,0.0,0.0,0.0,0.0,0.0,0.0,0.0,0.0,0.0,0.0,0.0,0.0,0.0,0.0,0.0,0.0,0.0,0.0,0.0,0.0,0.0,0.0,0.0,0.0,0.0,0.0,0.0,0.0,0.0,0.0,0.0,0.0,0.0,0.0,0.0,0.0,0.0,0.0,0.0,0.0,0.0,0.0,0.0,0.0,0.0,0.0,0.0,0.0,0.0,0.0,0.0,0.0,0.0,0.0,0.0,0.0,0.0,0.0,0.0,-0.6391,-0.6618,-0.675,0.0,-0.6673,-0.649,-0.5941,-0.5547,-0.5078,-0.4495,0.0,0.0,0.0,0.0,0.0,0.0,0.0,0.0,0.0,0.0,0.0,0.0,0.0,0.0,0.0,0.0,0.0,0.0,0.0,0.0,0.0,0.0,0.0,0.0,0.0,0.0,0.0,0.0,0.0,0.0,0.0,0.0,0.0,0.0,0.0,0.0,0.0,0.0,0.0,0.0,0.0,0.0,0.0,0.0,0.0,0.0,0.0,0.0,0.0,0.0,0.0,0.0,0.0,0.0,0.0,0.0,0.0,0.0,0.0,0.0,0.0,0.0,0.0,0.0,0.0,0.0,0.0,0.0,0.0,0.0,0.0,0.0,0.0,0.0,0.0,0.0,0.0,0.0,0.0,0.0,0.0,0.0,0.0,0.0,0.0,0.0,0.0,0.0,0.0,0.0,0.0,0.0,0.0,0.0,0.0,0.0,0.0,0.0,0.0,0.0,0.0,0.0,-0.6354,-0.6586,-0.675,-0.661,-0.6299,-0.6036,-0.5912,-0.4914,-0.4444,0.0,0.0,0.0,0.0,0.0,0.0,0.0,0.0,0.0,0.0,0.0,0.0,0.0,0.0,0.0,0.0,0.0,0.0,0.0,0.0,0.0,0.0,0.0,0.0,0.0,0.0,0.0,0.0,0.0,0.0,0.0,0.0,0.0,0.0,0.0,0.0,0.0,0.0,0.0,0.0,0.0,0.0,0.0,0.0,0.0,0.0,0.0,0.0,0.0,0.0,0.0,0.0,0.0,0.0,0.0,0.0,0.0,0.0,0.0,0.0,0.0,0.0,0.0,0.0,0.0,0.0,0.0,0.0,0.0,0.0,0.0,0.0,0.0,0.0,0.0,0.0,0.0,0.0,0.0,0.0,0.0,0.0,0.0,0.0,0.0,0.0,0.0,0.0,0.0,0.0,0.0,0.0,0.0,0.0,0.0,0.0,0.0,0.0,0.0,0.0,0.0,0.0,0.0,-0.6339,-0.6387,-0.6435,-0.6395,-0.5959,-0.5593,-0.5356,-0.4699,-0.4266,-0.4175,0.0,0.0,0.0,0.0,0.0,0.0,0.0,0.0,0.0,0.0,0.0,0.0,0.0,0.0,0.0,0.0,0.0,0.0,0.0,0.0,0.0,0.0,0.0,0.0,0.0,0.0,0.0,0.0,0.0,0.0,0.0,0.0,0.0,0.0,0.0,0.0,0.0,0.0,0.0,0.0,0.0,0.0,0.0,0.0,0.0,0.0,0.0,0.0,0.0,0.0,0.0,0.0,0.0,0.0,0.0,0.0,0.0,0.0,0.0,0.0,0.0,0.0,0.0,0.0,0.0,0.0,0.0,0.0,0.0,0.0,0.0,0.0,0.0,0.0,0.0,0.0,0.0,0.0,0.0,0.0,0.0,0.0,0.0,0.0,0.0,0.0,0.0,0.0,0.0,0.0,0.0,0.0,0.0,0.0,0.0,0.0,0.0,0.0,0.0,0.0,0.0,0.0,-0.6498,-0.634,-0.6238,-0.6183,-0.563,-0.5189,-0.5031,-0.448,-0.4127,-0.4101,0.0,0.0,0.0,0.0,0.0,0.0,0.0,0.0,0.0,0.0,0.0,0.0,0.0,0.0,0.0,0.0,0.0,0.0,0.0,0.0,0.0,0.0,0.0,0.0,0.0,0.0,0.0,0.0,0.0,0.0,0.0,0.0,0.0,0.0,0.0,0.0,0.0,0.0,0.0,0.0,0.0,0.0,0.0,0.0,0.0,0.0,0.0,0.0,0.0,0.0,0.0,0.0,0.0,0.0,0.0,0.0,0.0,0.0,0.0,0.0,0.0,0.0,0.0,0.0,0.0,0.0,0.0,0.0,0.0,0.0,0.0,0.0,0.0,0.0,0.0,0.0,0.0,0.0,0.0,0.0,0.0,0.0,0.0,0.0,0.0,0.0,0.0,0.0,0.0,0.0,0.0,0.0,0.0,0.0,0.0,0.0,0.0,0.0,0.0,0.0,0.0,0.0,-0.6739,-0.6394,-0.6137,-0.6013,-0.5342,-0.49,-0.49,-0.429,-0.403,-0.4297,0.0,0.0,0.0,0.0,0.0,0.0,0.0,0.0,0.0,0.0,0.0,0.0,0.0,0.0,0.0,0.0,0.0,0.0,0.0,0.0,0.0,0.0,0.0,0.0,0.0,0.0,0.0,0.0,0.0,0.0,0.0,0.0,0.0,0.0,0.0,0.0,0.0,0.0,0.0,0.0,0.0,0.0,0.0,0.0,0.0,0.0,0.0,0.0,0.0,0.0,0.0,0.0,0.0,0.0,0.0,0.0,0.0,0.0,0.0,0.0,-0.4673,0.0,0.0,0.0,0.0,0.0,0.0,0.0,0.0,0.0,0.0,0.0,0.0,0.0,0.0,0.0,0.0,0.0,0.0,0.0,0.0,0.0,0.0,0.0,0.0,0.0,0.0,0.0,0.0,0.0,0.0,0.0,0.0,0.0,0.0,0.0,0.0,0.0,0.0,0.0,0.0,0.0,-0.6604,-0.6251,-0.6029,-0.6006,-0.5342,-0.49,-0.49,-0.4332,-0.3897,-0.3708,-0.4104,0.0,0.0,0.0,0.0,0.0,0.0,0.0,0.0,0.0,0.0,0.0,0.0,0.0,0.0,0.0,0.0,0.0,0.0,0.0,0.0,0.0,0.0,0.0,0.0,0.0,0.0,0.0,0.0,0.0,0.0,0.0,0.0,0.0,0.0,0.0,0.0,0.0,0.0,0.0,0.0,0.0,0.0,0.0,0.0,0.0,0.0,0.0,0.0,0.0,0.0,0.0,0.0,0.0,0.0,0.0,0.0,0.0,0.0,0.0,0.0,-0.4965,0.0,0.0,0.0,0.0,0.0,0.0,0.0,0.0,0.0,0.0,0.0,0.0,0.0,0.0,0.0,0.0,0.0,0.0,0.0,0.0,0.0,0.0,0.0,0.0,0.0,0.0,0.0,0.0,0.0,0.0,0.0,0.0,0.0,0.0,0.0,0.0,0.0,0.0,0.0,0.0,-0.6722,-0.6253,-0.5936,-0.5905,-0.5413,-0.5023,-0.4868,-0.4509,-0.4198,-0.3992,-0.4423,0.0,0.0,0.0,0.0,0.0,0.0,0.0,0.0,0.0,0.0,0.0,0.0,0.0,0.0,0.0,0.0,0.0,0.0,0.0,0.0,0.0,0.0,0.0,0.0,0.0,0.0,0.0,0.0,0.0,0.0,0.0,0.0,0.0,0.0,0.0,0.0,0.0,0.0,0.0,0.0,0.0,0.0,0.0,0.0,0.0,0.0,0.0,0.0,0.0,0.0,0.0,0.0,0.0,-0.6141,-0.6148,-0.6124,-0.6152,-0.6116,-0.601,-0.5716,-0.5429,-0.5199,0.0,0.0,0.0,0.0,0.0,0.0,0.0,0.0,0.0,0.0,0.0,0.0,0.0,0.0,0.0,0.0,0.0,0.0,0.0,0.0,0.0,0.0,0.0,0.0,0.0,-0.8121,-0.7844,0.0,0.0,0.0,0.0,0.0,0.0,0.0,0.0,0.0,0.0,0.0,0.0,-0.6973,-0.6372,-0.5954,-0.59,-0.5539,-0.5187,-0.4917,-0.4715,-0.4566,-0.4502,-0.4924,-0.5058,0.0,0.0,0.0,0.0,0.0,0.0,0.0,0.0,0.0,0.0,0.0,0.0,0.0,0.0,0.0,0.0,0.0,0.0,0.0,0.0,0.0,0.0,0.0,0.0,0.0,0.0,0.0,0.0,0.0,0.0,0.0,0.0,-0.2183,-0.271,0.0,0.0,0.0,0.0,0.0,0.0,0.0,0.0,0.0,0.0,0.0,0.0,0.0,-0.6117,-0.6643,-0.6755,-0.6985,-0.7337,-0.7298,-0.7196,-0.7017,-0.7204,-0.7053,-0.6612,-0.6726,0.0,-0.5547,-0.5547,0.0,0.0,0.0,0.0,0.0,0.0,0.0,0.0,0.0,0.0,0.0,0.0,0.0,0.0,0.0,0.0,0.0,0.0,0.0,0.0,0.0,0.0,-0.9068,-0.9068,-0.8818,-0.848,0.0,-0.8016,-0.7899,-0.7899,-0.7946,0.0,0.0,0.0,0.0,0.0,0.0,0.0,-0.7182,-0.6617,-0.6238,-0.6238,-0.5671,-0.5275,-0.5231,-0.4839,-0.4566,-0.4502,-0.5097,-0.5351,-0.514,-0.5318,0.0,0.0,0.0,0.0,0.0,0.0,0.0,0.0,0.0,0.0,0.0,0.0,0.0,0.0,0.0,0.0,0.0,0.0,0.0,0.0,0.0,0.0,0.0,0.0,0.0,0.0,0.0,0.0,0.0,-0.2322,-0.2863,-0.3292,-0.3375,-0.3434,0.0,0.0,0.0,0.0,0.0,0.0,0.0,0.0,0.0,-0.6346,-0.6796,-0.73,-0.797,-0.7726,-0.7749,-0.806,-0.7853,-0.774,-0.7671,-0.7744,-0.7598,-0.7322,-0.7298,-0.6951,-0.6375,-0.6069,-0.5746,-0.547,0.0,0.0,0.0,0.0,-0.5297,-0.5289,-0.5236,-0.5315,0.0,-0.5378,0.0,0.0,0.0,0.0,0.0,0.0,0.0,0.0,0.0,0.0,-0.92,-0.92,-0.895,-0.8671,-0.8509,-0.8408,-0.8239,0.0,-0.7808,-0.7829,-0.7795,0.0,0.0,0.0,0.0,0.0,-0.7209,-0.6801,-0.6468,-0.6319,-0.6047,-0.5708,-0.5326,-0.5183,-0.5032,-0.4848,-0.5603,-0.5947,-0.5723,-0.5756,-0.5575,0.0,0.0,0.0,0.0,0.0,0.0,0.0,0.0,0.0,0.0,0.0,0.0,0.0,0.0,0.0,0.0,0.0,0.0,0.0,0.0,0.0,0.0,0.0,0.0,0.0,0.0,0.0,0.0,-0.3042,-0.3397,-0.3771,-0.3795,-0.3835,0.0,0.0,0.0,0.0,0.0,0.0,-0.5343,-0.6092,-0.6818,-0.7542,-0.7957,-0.8503,-0.9185,-0.8697,-0.8543,-0.8756,-0.8434,-0.8288,-0.8288,-0.8239,-0.8126,-0.7996,-0.7808,-0.7498,-0.7082,-0.6539,-0.6102,-0.5746,-0.5746,-0.5611,-0.5462,-0.5462,-0.5462,-0.5462,-0.5462,-0.5514,-0.5607,-0.5607,0.0,-0.6277,-0.668,0.0,0.0,0.0,0.0,-0.9316,-0.9536,-0.9453,-0.931,-0.931,-0.9102,-0.8904,-0.8855,-0.884,-0.8641,0.0,-0.796,-0.796,-0.796,0.0,0.0,0.0,0.0,-0.7428,-0.7341,-0.703,-0.6728,-0.6441,-0.6348,-0.6069,-0.548,-0.5456,-0.5406,-0.5234,-0.6055,-0.6387,-0.6015,-0.6078,-0.5821,-0.5169,0.0,0.0,0.0,0.0,0.0,0.0,0.0,0.0,0.0,0.0,0.0,0.0,0.0,0.0,0.0,0.0,0.0,0.0,0.0,0.0,0.0,0.0,0.0,0.0,0.0,0.0,0.0,0.0,0.0,-0.4062,-0.42,0.0,0.0,0.0,0.0,-0.5018,-0.5191,-0.5599,-0.637,-0.7198,-0.7908,-0.8506,-0.9163,-0.9756,-1.0236,-0.9714,-0.9541,-0.9716,-0.9267,-0.9043,-0.9039,-0.8861,-0.8686,-0.8559,-0.8333,-0.7947,-0.7415,-0.6906,-0.6473,-0.6147,-0.6116,-0.5979,-0.586,-0.586,-0.586,-0.586,-0.586,-0.5746,-0.5596,-0.5596,-0.5871,-0.6317,-0.6896,-0.7595,0.0,0.0,-0.9093,-0.9413,-0.9562,-0.9599,-0.9592,-0.9592,-0.9577,-0.949,-0.9236,-0.9178,-0.9075,0.0,-0.8641,-0.8641,-0.8641,0.0,-0.8531,-0.8224,-0.8165,-0.8041,-0.7713,-0.7384,-0.7037,-0.6717,-0.6446,-0.6164,-0.5803,-0.5554,-0.5455,-0.557,-0.6275,-0.6404,-0.5747,-0.6198,-0.6105,-0.5298,-0.4631,0.0,0.0,0.0,0.0,0.0,0.0,0.0,0.0,0.0,0.0,0.0,0.0,0.0,0.0,0.0,0.0,0.0,0.0,0.0,0.0,0.0,0.0,0.0,0.0,0.0,0.0,0.0,0.0,-0.4754,-0.4708,0.0,-0.4966,-0.4917,-0.5035,-0.5394,-0.5599,-0.6,-0.6637,-0.7479,-0.834,-0.9151,-0.9701,-1.0208,-1.069,-1.0053,-0.9721,-0.9786,-0.9329,-0.9096,-0.9092,-0.8905,-0.8787,-0.8714,-0.8418,-0.8178,-0.7979,-0.7667,-0.7127,-0.6531,-0.6497,-0.6388,-0.6229,-0.6229,-0.6152,-0.6086,-0.6086,-0.5967,-0.58,-0.574,-0.5914,-0.6197,-0.6534,-0.722,-0.8009,-0.8629,-0.9233,-0.9757,-0.9879,-0.9929,-0.987,-0.9665,-0.9588,-0.9585,-0.9475,-0.946,-0.9424,-0.9307,-0.8963,-0.8692,-0.8692,-0.8692,-0.8648,-0.8531,-0.8334,-0.8158,-0.8041,-0.772,-0.7392,-0.7051,-0.6932,-0.6735,-0.6407,-0.6126,-0.5998,-0.6049,-0.6504,-0.675,-0.6736,-0.6408,-0.615,-0.5947,-0.4563,-0.3597,0.0,0.0,0.0,0.0,0.0,0.0,0.0,0.0,0.0,0.0,0.0,0.0,0.0,0.0,0.0,0.0,0.0,0.0,0.0,0.0,0.0,0.0,0.0,0.0,0.0,0.0,-0.4792,-0.5309,-0.5303,-0.5349,-0.5589,-0.5537,-0.5669,-0.6057,-0.6236,-0.6593,-0.7282,-0.8027,-0.8824,-0.9694,-1.014,-1.0605,-1.1082,-1.0441,-1.0073,-0.9979,-0.9608,-0.937,-0.9267,-0.9023,-0.8913,-0.8893,-0.854,-0.8349,-0.828,-0.8158,-0.7724,-0.7131,-0.7009,-0.6814,-0.6599,-0.6599,-0.6555,-0.6465,-0.631,-0.6155,-0.5975,-0.5914,-0.6027,-0.6267,-0.6558,-0.7185,-0.796,-0.8723,-0.9405,-0.9943,-1.0212,-1.0185,-1.0046,-0.9826,-0.9694,-0.9588,-0.9588,-0.9588,-0.9588,-0.9588,-0.9277,-0.8999,-0.8999,-0.8999,-0.897,-0.8892,-0.8693,-0.8451,-0.8231,-0.8012,-0.7691,-0.7253,-0.7209,-0.7059,-0.6731,-0.6446,-0.6272,-0.623,-0.6455,-0.6584,-0.6553,-0.6199,-0.5779,-0.5336,-0.3944,-0.3204,-0.3135,0.0,0.0,0.0,0.0,0.0,0.0,0.0,0.0,0.0,0.0,0.0,0.0,0.0,0.0,0.0,0.0,0.0,0.0,0.0,0.0,0.0,0.0,0.0,-0.4717,-0.5024,-0.5347,-0.5672,-0.5966,-0.6111,-0.6113,-0.6116,-0.6401,-0.7049,-0.7119,-0.7483,-0.8262,-0.8834,-0.9469,-1.0208,-1.0557,-1.0964,-1.1465,-1.1005,-1.0654,-1.0413,-1.0117,-0.9871,-0.9616,-0.9267,-0.91,-0.908,-0.8771,-0.8514,-0.83,-0.83,-0.8191,-0.7983,-0.763,-0.7318,-0.7012,-0.7008,-0.7,-0.6947,-0.6558,-0.6314,-0.6195,-0.6136,-0.6229,-0.65,-0.6941,-0.7504,-0.8186,-0.8974,-0.9541,-1.0019,-1.0494,-1.0368,-1.0099,-1.0091,-0.9843,-0.9603,-0.9603,-0.9595,-0.9588,-0.9588,-0.9588,-0.9588,-0.9588,-0.9588,-0.9519,-0.9258,-0.9207,0.0,-0.8297,-0.8209,-0.7953,-0.7289,-0.7224,-0.7073,-0.676,-0.6482,-0.6269,-0.6137,-0.6185,-0.5895,-0.5188,-0.5573,-0.5046,-0.3439,-0.2822,-0.2749,-0.3217,0.0,0.0,0.0,0.0,0.0,0.0,0.0,0.0,0.0,0.0,0.0,0.0,0.0,0.0,0.0,0.0,0.0,0.0,0.0,0.0,0.0,0.0,-0.5243,-0.529,-0.5537,-0.5871,-0.6323,-0.651,-0.6641,-0.673,-0.7029,-0.7213,-0.7311,-0.7781,-0.8239,-0.8789,-0.9302,-0.9944,-1.0781,-1.091,-1.1166,-1.152,-1.1005,-1.0752,-1.0654,-1.0216,-0.9969,-0.9862,-0.9485,-0.9214,-0.9084,-0.8852,-0.8649,-0.8535,-0.8535,-0.8381,-0.8178,-0.7865,-0.7661,-0.7559,-0.7424,-0.7257,-0.7119,-0.6922,-0.6726,-0.6547,-0.6363,-0.6343,-0.6431,-0.6678,-0.7401,-0.8293,-0.8993,-0.9781,-1.0452,-1.0557,-1.0519,-1.0399,-1.0165,-0.9875,-0.9683,-0.9683,-0.9472,-0.9335,-0.9439,-0.9465,-0.9491,-0.9588,-0.9588,-0.9585,-0.9504,-0.9339,0.0,-0.8604,-0.8348,-0.8041,-0.7603,-0.7559,-0.7523,-0.7435,-0.7129,-0.69,-0.6759,-0.6639,-0.6498,-0.6329,-0.5991,-0.5106,-0.3647,-0.3264,-0.3216,0.0,0.0,0.0,0.0,0.0,0.0,0.0,0.0,0.0,0.0,0.0,0.0,0.0,0.0,0.0,0.0,0.0,0.0,0.0,0.0,0.0,0.0,-0.5551,-0.5893,-0.6121,-0.6181,-0.6363,-0.6793,-0.695,-0.7073,-0.7198,-0.7553,-0.7877,-0.8076,-0.8724,-0.9312,-0.985,-1.0424,-1.1013,-1.1548,-1.1587,-1.1693,-1.1948,-1.1394,-1.1096,-1.0949,-1.0408,-1.0117,-0.9965,-0.9582,-0.9347,0.0,-0.893,-0.8763,-0.867,-0.8641,-0.8547,0.0,0.0,0.0,0.0,0.0,-0.7374,-0.7175,-0.7102,-0.6903,-0.668,-0.657,-0.6576,-0.6661,-0.6957,-0.772,-0.8611,-0.9338,-1.0045,-1.0647,-1.0773,-1.0725,-1.0548,-1.0366,-1.0093,-0.9869,-0.9869,-0.9624,-0.9434,-0.9507,-0.9401,0.0,-0.9484,-0.9562,-0.9588,-0.9588,-0.9468,-0.9248,-0.8958,-0.8604,-0.8282,-0.7953,-0.7729,-0.7621,-0.7621,-0.7291,0.0,0.0,0.0,-0.6304,-0.6345,-0.5808,0.0,0.0,0.0,-0.3706,-0.4103,0.0,0.0,0.0,-0.5193,-0.4953,0.0,0.0,0.0,0.0,0.0,0.0,0.0,0.0,0.0,0.0,0.0,0.0,0.0,0.0,0.0,0.0,-0.6171,-0.6635,-0.6978,-0.6847,-0.6839,-0.7213,-0.7301,-0.7418,-0.7585,-0.79,-0.843,-0.9131,-0.9794,-1.0499,-1.1139,0.0,0.0,0.0,0.0,-1.2334,-1.254,-1.1905,-1.1487,-1.1194,-1.0659,-1.0265,-1.0015,-0.9603,-0.942,-0.9384,-0.8999,-0.884,-0.8808,-0.8637,-0.86,-0.8547,-0.815,-0.791,-0.7775,-0.7592,-0.7387,-0.7219,-0.7219,0.0,0.0,-0.6733,-0.6836,-0.7038,-0.754,-0.8214,-0.8996,-0.9728,-1.0269,-1.0688,-1.0965,-1.0825,-1.0585,-1.0585,-1.0349,-1.0097,-1.0097,-0.989,-0.9694,-0.968,-0.9422,-0.9253,-0.9368,-0.9491,-0.9588,-0.9588,-0.9588,-0.9504,-0.9236,-0.889,-0.856,-0.8209,0.0,0.0,-0.7482,-0.7152,-0.687,-0.6649,-0.6101,-0.5774,-0.5781,-0.5397,-0.5238,-0.5383,-0.4424,-0.4236,-0.4838,-0.5782,-0.6366,-0.6591,-0.5951,-0.5694,0.0,0.0,0.0,0.0,0.0,0.0,0.0,0.0,0.0,0.0,0.0,0.0,0.0,0.0,0.0,-0.6385,-0.6768,-0.7076,-0.7244,-0.7312,-0.7372,-0.744,-0.7557,-0.7757,-0.8019,-0.8648,-0.9208,-0.9643,-1.0651,-1.1477,-1.1805,-1.2387,-1.2827,-1.3098,-1.2723,-1.2493,-1.2339,-1.1855,-1.1487,-1.1194,0.0,0.0,-1.0314,-0.9784,-0.9494,-0.9392,-0.9133,-0.8958,-0.8808,-0.8637,-0.8522,-0.8321,-0.8101,-0.791,-0.7775,-0.7592,-0.746,-0.7435,-0.7435,-0.7297,-0.7098,-0.6988,-0.7021,-0.7207,-0.7447,-0.8209,0.0,-0.9492,-1.0072,-1.0624,-1.0688,-1.0647,-1.06,-1.06,-1.0339,-1.0087,-1.0087,-0.9888,-0.964,-0.9501,-0.9405,-0.9343,-0.9253,-0.9335,-0.9484,-0.9588,-0.9588,-0.9504,-0.9236,-0.8803,-0.84,-0.8083,-0.766,-0.7412,-0.7412,-0.7335,-0.7174,-0.6865,-0.6486,-0.6272,-0.6261,-0.5886,-0.5735,-0.5857,-0.5147,-0.4884,-0.5126,-0.564,-0.5956,-0.6062,-0.6391,-0.6614,0.0,0.0,0.0,0.0,0.0,0.0,0.0,0.0,0.0,0.0,0.0,-0.5208,0.0,0.0,-0.6613,-0.685,-0.7192,-0.7448,-0.751,-0.7619,-0.7674,-0.7616,-0.7663,-0.7845,-0.8265,-0.8933,-0.9636,-1.0381,-1.145,-1.2255,-1.2846,-1.3315,-1.3537,-1.3478,-1.309,-1.2699,-1.2442,-1.1905,-1.1487,-1.1194,-1.0659,-1.0314,-1.0167,-0.9772,-0.9575,-0.9478,-0.9214,-0.9043,-0.8938,-0.8674,-0.8555,-0.841,-0.8223,-0.7992,-0.7775,-0.7592,-0.7484,-0.7484,-0.7484,-0.737,-0.7175,-0.7119,-0.7214,-0.739,-0.766,-0.8378,-0.9164,-0.947,-0.9925,-1.0387,-1.0436,-1.0466,-1.0466,-1.0593,-1.0479,-1.0341,-1.0341,-1.0107,-0.9842,-0.9598,-0.9423,-0.9248,-0.9109,-0.9159,-0.9237,-0.9387,-0.9413,-0.9363,-0.922,-0.8838,-0.8495,-0.8183,-0.7761,-0.7438,-0.7307,-0.7107,-0.6929,-0.6758,-0.6588,-0.6499,-0.6499,-0.6307,-0.6251,-0.6343,-0.5795,-0.5679,-0.6055,-0.6285,-0.6635,-0.7106,-0.728,-0.7371,0.0,0.0,0.0,0.0,0.0,0.0,0.0,0.0,-0.4821,-0.5346,-0.5725,-0.6056,-0.645,-0.6831,-0.7171,-0.7363,-0.7597,-0.7796,-0.7774,-0.7847,-0.7856,-0.772,-0.7722,-0.7944,-0.8384,-0.8994,-0.9828,-1.1077,-1.2021,-1.2889,-1.3666,-1.4029,-1.4029,-1.3699,-1.3304,-1.291,-1.2545,-1.185,-1.1389,-1.1096,-1.056,-1.0216,-0.9969,-0.9727,-0.9579,-0.9558,-0.925,-0.906,-0.8974,-0.8731,-0.8612,-0.8592,-0.8361,-0.8113,-0.7877,-0.7657,-0.7516,-0.7484,-0.7484,-0.7395,-0.7231,-0.7199,-0.7346,-0.757,-0.7881,-0.8498,-0.9133,-0.9423,-0.9771,-1.0092,-1.0198,-1.027,-1.0406,-1.0599,-1.0624,-1.0641,-1.068,-1.0408,-1.012,-0.9826,-0.9526,-0.9232,-0.9072,-0.8963,-0.8975,-0.9185,-0.9211,-0.9211,-0.9211,-0.8887,-0.8609,-0.8389,-0.7896,-0.7465,-0.7194,-0.6854,-0.6673,-0.6673,-0.6673,-0.6673,-0.6673,-0.6673,-0.6693,-0.676,-0.638,-0.6431,-0.6914,-0.7008,-0.7385,-0.8,-0.7829,-0.7802,-0.3896,-0.397,-0.408,-0.4144,-0.4285,-0.4417,0.0,0.0,-0.5344,-0.5898,-0.6267,-0.6624,-0.7118,-0.744,-0.7695,-0.798,-0.8079,-0.8138,-0.8092,-0.8089,-0.8012,-0.7728,-0.779,-0.8057,-0.8561,-0.9205,-1.0017,-1.117,-1.2156,-1.2954,-1.3655,-1.4029,-1.4029,-1.3699,-1.3304,-1.2859,-1.2339,-1.1606,-1.1096,-1.085,-1.0314,-1.0019,-0.9969,-0.9727,-0.9579,-0.9558,-0.925,-0.8917,-0.8669,-0.8629,-0.8612,-0.8592,-0.8361,-0.8268,-0.8191,-0.7894,-0.7661,-0.7484,-0.7484,-0.7472,-0.7431,-0.7277,-0.7319,-0.7526,-0.7749,-0.8226,-0.875,-0.9063,-0.9511,-0.9927,-0.9932,-1.0196,-1.0539,-1.0716,-1.0728,-1.0745,-1.0909,-1.0747,-1.0452,-1.0127,-0.9833,-0.9539,-0.9239,-0.8884,-0.8765,-0.9133,-0.9211,-0.9211,-0.9211,-0.885,-0.86,-0.8565,-0.7926,-0.737,-0.7047,-0.6973,-0.6953,-0.6953,-0.6953,-0.6953,-0.6953,-0.6953,-0.6953,-0.6974,-0.6907,-0.6908,-0.6989,-0.7114,-0.7103,-0.696,-0.7124,-0.7569,-0.4189,-0.4298,0.0,0.0,-0.4975,-0.5237,-0.5606,-0.5997,-0.6389,-0.6835,-0.7128,-0.741,-0.7627,-0.7731,-0.7834,0.0,-0.7989,-0.8005,-0.8015,-0.7891,-0.7812,-0.7712,-0.7616,-0.78,-0.8407,-0.9118,-1.0073,-1.147,-1.2288,-1.3096,-1.3931,-1.4137,-1.3975,-1.3478,-1.3095,-1.2545,-1.1766,-1.1256,-1.0752,-1.0314,-1.0117,-0.992,-0.9776,-0.9628,-0.9567,-0.9453,-0.9206,-0.895,-0.8706,-0.8653,-0.8612,-0.8604,-0.8526,-0.8385,-0.826,-0.8,-0.7858,-0.7789,-0.7789,-0.7789,-0.778,-0.7707,-0.7731,-0.7863,-0.7935,-0.8206,-0.8494,-0.8623,-0.8975,-0.9342,-0.9414,-0.973,-1.0084,-1.0251,-1.0325,-1.0361,-1.0367,-1.025,-1.0002,-0.9586,-0.9538,-0.9402,-0.8965,-0.8843,-0.8789,-0.8907,-0.887,-0.8837,-0.8837,-0.8769,-0.8592,-0.8223,-0.7768,-0.7363,-0.7026,-0.7,-0.7,-0.7,-0.7,-0.7,-0.7,-0.7,-0.7,-0.7,-0.7,-0.7,-0.7,-0.7048,-0.7023,-0.6922,-0.7004,-0.7153,-0.451,0.0,0.0,-0.5322,-0.5682,-0.6081,-0.6536,-0.6881,-0.7221,-0.7538,-0.7728,-0.7834,-0.7867,-0.7872,0.0,-0.7977,-0.7948,-0.7959,-0.7988,-0.782,-0.7712,-0.7614,-0.7415,-0.7519,-0.8109,-0.8827,-0.9878,-1.1415,-1.2013,-1.2805,-1.3872,-1.3867,-1.3645,-1.3207,-1.2836,-1.2247,-1.1403,-1.0961,-1.0515,-1.0019,-0.992,-0.9772,-0.9579,-0.9579,-0.9527,-0.9396,-0.9269,-0.9035,-0.8808,-0.8686,-0.8653,-0.8612,-0.8612,-0.8526,-0.8349,-0.8215,-0.8101,-0.8012,-0.8012,-0.8012,-0.8012,-0.8012,-0.8049,-0.8093,-0.8087,-0.8212,-0.8291,-0.8244,-0.8477,-0.8771,-0.8867,-0.9262,-0.9625,-0.9798,-0.9921,-1.0015,-0.9947,-0.9786,-0.9552,-0.9227,-0.9178,-0.9053,-0.8735,-0.8658,-0.8581,-0.8498,-0.8453,-0.8476,-0.861,-0.8738,-0.8611,-0.8085,-0.7776,-0.7475,-0.7168,-0.7046,-0.7,-0.7,-0.7,-0.7,-0.7,-0.7,-0.7,-0.7,-0.7,-0.6979,-0.6964,-0.6964,-0.6943,-0.6929,-0.6929,-0.6838,0.0,0.0,-0.6202,-0.6083,-0.6463,-0.6914,-0.72,-0.7344,-0.7492,-0.7797,-0.7777,-0.7739,-0.785,-0.7872,-0.7971,-0.8092,-0.8147,-0.8185,-0.8128,-0.8004,-0.7736,-0.7388,-0.7236,-0.729,0.0,-0.827,-0.9316,-1.0807,-1.118,-1.1903,-1.3251,-1.3098,-1.2935,-1.2935,-1.2724,-1.2245,-1.1408,-1.0952,-1.0456,-1.0019,-0.9727,-0.9628,-0.9579,-0.9579,-0.9527,-0.9404,-0.9396,-0.9149,-0.882,-0.8812,-0.8714,-0.8612,-0.8612,-0.8608,-0.8604,-0.8596,-0.8321,-0.8012,-0.8012,-0.8012,-0.8012,-0.8012,-0.8008,-0.8012,-0.8085,-0.8105,-0.8102,-0.8107,-0.8246,-0.8432,-0.8423,-0.8879,-0.9377,-0.9561,-0.9723,-0.9871,-1.0052,-0.969,-0.9298,-0.9292,-0.8939,-0.8615,-0.8609,-0.8242,-0.7927,-0.7927,-0.7988,-0.8189,-0.8651,-0.8756,-0.8691,-0.8415,-0.8096,-0.7766,-0.7504,-0.7188,-0.7,-0.7,-0.7,-0.7,-0.7,-0.7,-0.7,-0.7,-0.7,-0.6964,-0.6893,-0.6893,-0.6836,-0.6708,-0.6708,-0.6708,0.0,0.0,-0.6401,-0.6511,-0.7053,-0.7595,-0.7672,-0.7846,-0.7942,-0.7905,-0.778,-0.769,-0.7646,-0.7505,-0.7492,-0.7557,-0.7679,-0.7774,-0.7815,-0.7714,-0.7592,-0.747,-0.7141,0.0,0.0,0.0,0.0,-1.0194,-1.0576,-1.1196,-1.2105,-1.2278,-1.2223,-1.206,-1.2033,-1.1681,-1.1085,-1.0668,-1.0272,-0.9945,-0.9731,-0.9579,-0.9579,-0.9579,-0.9596,-0.9531,-0.9457,-0.9269,-0.8995,-0.8873,-0.8723,-0.8612,-0.8612,-0.8612,-0.8612,-0.8612,-0.8531,-0.8381,-0.8381,-0.8381,-0.8381,-0.8381,-0.8296,-0.8162,-0.8061,-0.7966,-0.7878,-0.773,-0.7834,-0.7991,-0.7991,-0.8369,-0.8708,-0.8784,-0.8916,-0.8978,-0.8983,-0.8699,-0.8407,-0.8277,-0.8111,-0.7972,-0.7898,-0.781,-0.7721,-0.7635,-0.7971,-0.8308,-0.8602,-0.8725,-0.8697,-0.8435,-0.8308,-0.8047,-0.7531,-0.7308,-0.7133,-0.6942,-0.6851,-0.6851,-0.6929,-0.6929,-0.6929,-0.6929,-0.6838,-0.6753,-0.6632,-0.6596,-0.6538,-0.6502,-0.6502,-0.6453,0.0,-0.6049,-0.6756,-0.6921,-0.7559,-0.8065,-0.8065,-0.8087,-0.8035,-0.7796,-0.7516,-0.7277,-0.7154,-0.7005,-0.6956,-0.7119,-0.732,-0.751,-0.7679,-0.7633,-0.7551,-0.7464,-0.7143,0.0,0.0,0.0,0.0,-0.936,-0.958,-1.0,-1.0891,-1.0903,-1.0903,-1.0958,-1.1066,-1.0977,-1.0593,-1.0348,-1.0128,-0.9791,-0.9681,-0.9579,-0.9579,-0.9579,-0.9579,-0.9571,-0.9502,-0.9352,-0.9173,-0.8995,-0.8816,-0.8653,-0.8637,-0.8612,-0.8612,-0.8612,-0.8612,-0.8612,-0.8612,-0.8612,-0.8612,-0.8612,-0.8531,-0.8353,-0.817,-0.8036,-0.7951,-0.7724,-0.7752,-0.7784,-0.7784,-0.8005,-0.8178,-0.8178,-0.8303,-0.8398,-0.8328,-0.8096,-0.7866,-0.7658,-0.7586,-0.7485,-0.7311,-0.7433,-0.7484,-0.733,-0.7724,-0.81,-0.8312,-0.8533,-0.86,-0.8416,-0.8304,-0.8037,-0.7604,-0.7321,-0.7061,-0.6839,-0.6695,-0.6704,-0.6885,-0.6907,-0.6892,-0.6876,-0.6706,-0.6505,-0.6243,-0.6206,-0.6175,-0.6153,-0.6105,-0.6034,-0.5359,-0.6292,-0.7198,-0.7268,-0.7811,-0.8348,-0.8329,-0.8048,-0.778,-0.7466,-0.6948,-0.6503,0.0,0.0,-0.6441,-0.6736,-0.7076,-0.7396,-0.7649,-0.769,-0.7608,0.0,0.0,0.0,0.0,0.0,0.0,-0.8345,0.0,-0.8458,-0.9614,-0.914,-0.9085,-0.9688,-0.997,-1.0062,-0.995,-1.0092,-0.9981,-0.9579,-0.9579,-0.9579,-0.9579,-0.9579,-0.9579,-0.9579,-0.9579,-0.9527,-0.9388,-0.9169,-0.8991,-0.8804,-0.8633,-0.8612,-0.8612,-0.8612,-0.8612,-0.8612,-0.8612,-0.8612,-0.8612,-0.8612,-0.8612,-0.8575,-0.8345,-0.8292,-0.8251,-0.8065,-0.7898,-0.7812,-0.7812,-0.7799,-0.7816,-0.7816,-0.7919,-0.8063,-0.8063,-0.7906,-0.7714,-0.7539,-0.7333,-0.7103,-0.6924,-0.7049,-0.7127,-0.6994,-0.7265,-0.757,-0.7832,-0.8162,-0.8348,-0.8348,-0.8075,-0.7816,-0.7683,-0.7186,-0.6828,-0.6686,-0.6556,-0.6591,-0.6842,-0.6867,-0.6834,-0.6761,-0.6549,-0.6208,-0.5766,-0.5755,-0.5712,-0.5658,-0.5539,-0.5469,-0.5582,-0.6241,-0.6875,-0.6967,-0.735,-0.7567,-0.7325,-0.7137,-0.6882,-0.6413,-0.6108,-0.5893,0.0,0.0,0.0,-0.6352,-0.6706,0.0,-0.7383,-0.7508,0.0,0.0,0.0,-0.723,-0.7188,-0.7094,0.0,0.0,-0.7416,-0.7648,-0.7864,-0.7925,-0.7977,-0.8143,-0.8647,-0.9016,-0.9194,-0.9625,-0.9674,-0.9282,-0.9529,-0.9579,-0.9579,-0.9579,-0.9579,-0.9579,-0.9579,-0.9527,-0.9388,-0.9169,-0.8991,-0.8804,-0.8633,-0.8612,-0.8612,-0.8612,-0.8612,-0.8612,-0.8612,-0.8612,-0.8612,-0.8612,-0.8612,-0.8575,-0.8345,-0.8292,-0.8251,-0.8065,-0.7979,-0.7947,-0.7947,-0.7861,-0.7809,-0.7809,-0.7741,-0.7638,-0.7638,-0.7497,-0.7319,-0.7273,-0.7049,-0.6813,-0.6755,-0.6801,-0.6741,-0.6514,-0.6747,-0.709,-0.741,-0.7622,-0.7729,-0.7729,-0.7644,-0.7506,-0.7269,-0.6907,-0.6543,-0.627,-0.6169,-0.6186,-0.6299,-0.6356,-0.636,-0.636,-0.5914,-0.5565,-0.5361,-0.5157,-0.5041,-0.5019,-0.5089,-0.5019,-0.587,-0.6351,-0.6777,-0.6895,-0.7136,-0.7267,-0.6904,-0.6549,-0.6209,-0.5722,-0.5381,0.0,0.0,0.0,0.0,0.0,0.0,0.0,-0.6881,-0.7195,-0.7444,0.0,-0.7461,0.0,-0.7326,-0.7145,-0.6909,0.0,-0.6768,-0.689,-0.6832,-0.6896,-0.6929,-0.7046,-0.7487,-0.7987,-0.8517,-0.904,-0.9314,-0.9187,-0.9331,-0.948,-0.9579,-0.9579,-0.9579,-0.9579,0.0,-0.9567,-0.9462,-0.9283,-0.9149,-0.9039,-0.8865,-0.88,-0.8792,-0.871,-0.8678,-0.867,-0.8637,-0.8612,-0.8612,-0.8612,-0.8612,-0.8592,-0.8486,-0.841,-0.839,-0.8284,-0.8199,-0.8134,-0.8134,-0.7947,-0.78,-0.78,-0.7657,-0.7484,-0.7484,-0.7407,-0.7317,-0.7203,-0.6932,-0.6684,-0.6684,-0.6701,-0.658,-0.6272,-0.6452,-0.6632,-0.6653,-0.6918,-0.7106,-0.7106,-0.7106,-0.7031,-0.6823,-0.6543,-0.6274,-0.6028,-0.5925,-0.5934,-0.6085,-0.6041,-0.6007,-0.5977,-0.5471,-0.5113,-0.4889,-0.4674,-0.4583,-0.4583,-0.4587,-0.4521,-0.6129,-0.6528,-0.6863,-0.6843,-0.693,-0.6974,-0.6617,-0.6103,-0.5596,-0.5175,0.0,0.0,-0.427,0.0,-0.4688,-0.5005,0.0,-0.5879,-0.6301,-0.6844,-0.7181,-0.7152,-0.7412,-0.7557,-0.7378,-0.7136,-0.684,-0.6542,-0.631,-0.6233,-0.6303,-0.6082,-0.6039,-0.6221,-0.648,-0.6972,-0.7802,-0.8406,-0.8826,-0.8985,-0.9034,-0.9232,-0.9476,-0.9529,-0.9529,-0.9529,-0.9579,0.0,-0.9612,-0.9477,-0.9404,-0.9384,-0.9165,-0.9096,-0.908,-0.8917,-0.8857,-0.8832,-0.8662,-0.8645,-0.8641,-0.8616,-0.8612,-0.8612,-0.8612,-0.8612,-0.8612,-0.8612,-0.8494,-0.8325,-0.8325,-0.8102,-0.7833,-0.7833,-0.7673,-0.7484,-0.7484,-0.7484,-0.7439,-0.7289,-0.6964,-0.6751,-0.6729,-0.6689,-0.6516,-0.6146,-0.6216,-0.6176,-0.5761,-0.6164,-0.6485,-0.6485,-0.6485,-0.6431,-0.63,-0.6103,-0.5927,-0.5777,-0.5661,-0.5713,-0.5944,-0.58,-0.5684,-0.5627,-0.514,-0.4759,-0.4463,-0.4306,-0.4228,-0.4228,-0.4126,-0.4064,-0.6241,-0.6428,-0.6546,-0.6401,-0.6208,-0.5936,-0.5564,-0.5059,0.0,0.0,0.0,-0.3901,-0.3885,-0.4129,0.0,-0.4706,0.0,0.0,0.0,0.0,-0.6657,0.0,0.0,0.0,0.0,0.0,0.0,0.0,0.0,-0.598,-0.5682,-0.5622,-0.5694,-0.5882,-0.6076,-0.6349,-0.6693,-0.7376,-0.7804,-0.7879,-0.8333,-0.868,-0.8924,-0.9179,-0.9282,-0.9286,-0.9529,0.0,-0.9612,-0.9477,-0.9404,-0.9384,-0.9165,-0.9096,-0.9092,-0.906,-0.9047,-0.9023,-0.884,-0.8775,-0.8751,-0.8657,-0.8612,-0.8612,-0.8612,-0.8612,-0.8612,-0.8612,-0.8588,-0.8563,-0.8563,-0.8247,-0.7967,-0.7967,-0.772,-0.7484,-0.7484,-0.7484,-0.7476,-0.7443,-0.7188,-0.6943,-0.6943,-0.6669,-0.6326,-0.6002,-0.5979,-0.5788,-0.5282,-0.565,-0.5927,-0.5927,-0.5927,-0.5868,-0.5755,-0.5558,-0.5371,-0.518,-0.5125,-0.5147,-0.5176,-0.5218,-0.5218,-0.5214,-0.4624,-0.431,-0.4256,-0.3955,-0.3807,-0.3807,-0.3902,-0.388,-0.6268,-0.6384,-0.6477,-0.6225,-0.5943,-0.558,-0.5079,0.0,0.0,0.0,0.0,-0.3494,-0.3494,0.0,0.0,0.0,0.0,0.0,0.0,0.0,0.0,0.0,0.0,0.0,0.0,0.0,0.0,0.0,0.0,-0.5854,-0.5584,-0.5447,-0.5406,-0.5473,-0.5705,-0.5924,-0.6078,-0.66,-0.702,-0.7385,-0.7633,-0.7985,-0.8382,-0.8684,-0.8783,-0.8783,-0.9076,0.0,-0.9167,-0.9135,-0.91,-0.9092,-0.9115,-0.9136,-0.9172,-0.9219,-0.9277,-0.9206,-0.9027,-0.8966,-0.8934,-0.8759,-0.8637,-0.8612,-0.8612,-0.8612,-0.8612,-0.8612,-0.8612,-0.8612,-0.8612,-0.8361,-0.8092,-0.7875,-0.7585,-0.7369,-0.7484,-0.7484,-0.7484,-0.7484,-0.7233,-0.6988,-0.6988,-0.6617,-0.6197,-0.5845,-0.5707,-0.5488,-0.5056,-0.5179,-0.5344,-0.5344,-0.5344,-0.5317,-0.523,-0.5159,-0.5057,-0.4946,-0.4946,-0.4946,-0.4946,-0.4918,-0.4881,-0.4881,-0.4356,-0.4097,-0.4097,-0.379,-0.3638,-0.3641,-0.3707,-0.3707,-0.6235,-0.6339,-0.6335,-0.6086,-0.573,-0.5342,-0.4787,-0.4302,0.0,0.0,0.0,-0.3192,-0.3192,0.0,0.0,0.0,0.0,0.0,0.0,0.0,0.0,0.0,0.0,0.0,0.0,0.0,0.0,0.0,0.0,0.0,-0.5592,-0.5314,-0.518,-0.5162,-0.539,-0.5511,-0.5641,-0.588,-0.6281,-0.6836,-0.6936,-0.7188,-0.769,-0.7932,-0.8081,-0.8081,-0.8329,0.0,0.0,-0.8528,-0.8524,-0.8577,-0.8832,-0.8985,-0.9019,-0.9125,-0.9268,-0.934,-0.9167,-0.9082,-0.9068,-0.8881,-0.8731,-0.8657,-0.862,-0.8612,-0.8612,-0.8612,-0.8564,-0.852,-0.852,-0.834,-0.8074,-0.7692,-0.7421,-0.7274,-0.7429,-0.7474,-0.7484,-0.7484,-0.7196,-0.6916,-0.6916,-0.6481,-0.6043,-0.5736,-0.5514,-0.5266,-0.4938,-0.4868,-0.4846,-0.4818,-0.4873,-0.4901,-0.4873,-0.4846,-0.4846,-0.4818,-0.4818,-0.4818,-0.4818,-0.4712,-0.466,-0.466,-0.4258,-0.4028,-0.3994,-0.3754,-0.3631,-0.3604,-0.3604,-0.3617,-0.6123,-0.62,-0.6161,-0.5976,-0.5544,-0.5083,-0.4538,0.0,0.0,0.0,-0.3295,-0.3192,-0.3192,-0.3309,-0.3445,0.0,0.0,0.0,0.0,0.0,0.0,0.0,0.0,0.0,0.0,0.0,0.0,0.0,0.0,0.0,-0.5406,-0.5304,-0.5152,-0.5122,-0.5085,-0.5083,-0.5074,-0.5196,-0.5448,-0.5734,-0.5989,-0.6239,-0.6537,-0.683,-0.693,-0.698,-0.7235,0.0,0.0,-0.7633,-0.773,-0.773,-0.7985,-0.8237,-0.8482,-0.8464,-0.881,-0.9186,-0.9059,-0.9041,-0.9068,-0.8881,-0.8808,-0.8767,-0.8657,-0.8612,-0.8612,-0.8612,-0.8428,-0.8245,-0.8245,-0.7942,-0.7604,-0.7401,-0.7352,-0.7382,-0.7418,-0.7446,-0.7484,-0.7484,-0.7089,-0.6746,-0.6746,-0.6283,-0.5858,-0.5642,-0.5493,-0.528,-0.493,-0.4808,-0.466,-0.4546,-0.4763,-0.4846,-0.4715,-0.4715,-0.466,-0.4546,-0.4546,-0.4546,-0.4546,-0.4519,-0.4519,-0.4519,-0.4307,-0.4132,-0.3994,-0.3853,-0.3726,-0.3604,-0.3604,-0.3672,-0.5853,-0.598,-0.5978,-0.5798,-0.5414,-0.4939,-0.44,0.0,0.0,-0.3326,-0.3207,-0.3144,-0.3144,-0.3175,-0.323,0.0,0.0,0.0,0.0,0.0,0.0,0.0,0.0,0.0,0.0,0.0,0.0,0.0,0.0,0.0,-0.522,-0.513,-0.5063,-0.5026,-0.4937,-0.489,-0.489,-0.4954,-0.5087,-0.5338,-0.5491,-0.5639,-0.5937,-0.6187,-0.6337,-0.6337,-0.6587,0.0,0.0,-0.6637,-0.6637,-0.6639,-0.6734,-0.6983,-0.7235,-0.7537,-0.8038,-0.8464,-0.8497,-0.8733,-0.8973,-0.8509,-0.8507,-0.8566,-0.8392,-0.8336,-0.834,-0.8208,-0.812,-0.8028,-0.8028,-0.7729,-0.7417,-0.7482,-0.73,-0.7156,-0.7217,-0.7224,-0.7223,-0.7153,-0.6789,-0.6523,-0.6523,-0.607,-0.5665,-0.5509,-0.5261,-0.5014,-0.4802,-0.4671,-0.4546,-0.4519,-0.4601,-0.4625,-0.4574,-0.4574,-0.4546,-0.4491,-0.4491,-0.4491,-0.4491,-0.4491,-0.4491,-0.4491,-0.4294,-0.4167,-0.4132,-0.391,-0.3765,-0.3726,-0.3645,-0.3679,-0.5443,-0.5608,-0.5633,-0.5394,-0.5106,-0.4671,0.0,0.0,-0.3399,-0.3189,-0.3095,-0.3082,-0.3082,-0.3082,-0.3079,0.0,0.0,0.0,0.0,0.0,0.0,0.0,0.0,0.0,0.0,0.0,0.0,0.0,0.0,0.0,0.0,-0.4981,-0.4932,-0.4932,-0.4869,-0.4784,-0.4784,-0.4784,-0.4885,-0.509,-0.509,-0.5188,-0.5386,-0.5539,-0.5639,-0.5639,-0.5837,0.0,0.0,-0.5689,-0.5591,-0.5541,-0.5634,-0.5834,-0.6087,-0.6537,-0.7135,-0.7667,-0.791,-0.8265,-0.8613,-0.8241,-0.8204,-0.8274,-0.8063,-0.8028,-0.8069,-0.7944,-0.7856,-0.7768,-0.7676,-0.7461,-0.7289,-0.7415,-0.725,-0.7051,-0.7057,-0.7068,-0.7062,-0.6933,-0.66,-0.636,-0.6316,-0.5904,-0.5538,-0.542,-0.5106,-0.488,-0.4772,-0.4614,-0.4491,-0.4491,-0.4491,-0.4491,-0.4491,-0.4491,-0.4491,-0.4491,-0.4491,-0.4491,-0.4491,-0.4491,-0.4491,-0.4491,-0.4362,-0.4264,-0.4197,-0.4008,-0.388,-0.3808,-0.3708,-0.3715,-0.4881,-0.5047,-0.5071,-0.4839,-0.4592,-0.4253,0.0,0.0,-0.3321,-0.3045,-0.2987,-0.3015,-0.3015,-0.3015,-0.3016,-0.3077,0.0,0.0,0.0,0.0,0.0,0.0,0.0,0.0,0.0,0.0,0.0,0.0,0.0,0.0,0.0,-0.4885,-0.4786,-0.4786,-0.4784,-0.4784,-0.4784,-0.4784,-0.4784,-0.4784,-0.4784,-0.4784,-0.4784,-0.4834,-0.4834,0.0,0.0,0.0,0.0,-0.4686,-0.4636,-0.4438,-0.4686,-0.4987,-0.524,-0.5536,-0.6132,-0.6863,-0.728,-0.7624,-0.7944,-0.8066,-0.7994,-0.7856,-0.7595,-0.768,-0.79,-0.79,-0.7724,-0.7459,-0.7187,-0.7095,-0.7095,-0.7095,-0.7154,-0.7176,-0.7013,-0.7064,-0.7062,-0.6933,-0.6576,-0.6268,-0.6122,-0.5825,-0.5569,-0.5416,-0.5108,-0.4887,-0.4887,-0.4679,-0.4491,-0.4491,-0.4491,-0.4491,-0.4491,-0.4491,-0.4491,-0.4491,-0.4491,-0.4491,-0.4491,-0.4491,-0.4491,-0.4491,-0.4487,-0.4392,-0.4197,-0.419,-0.4062,-0.3789,-0.3785,-0.3812,-0.439,-0.4489,-0.454,-0.4483,-0.422,-0.3899,-0.3605,-0.3338,-0.309,-0.3003,-0.2937,-0.2866,-0.2866,-0.2866,-0.2895,-0.3014,-0.3053,0.0,0.0,0.0,0.0,0.0,0.0,0.0,0.0,0.0,0.0,0.0,0.0,0.0,0.0,-0.4883,-0.4784,-0.4784,-0.4784,-0.4784,-0.4784,-0.4784,-0.4784,-0.4784,-0.4784,-0.4784,-0.4784,-0.4784,-0.4784,0.0,0.0,0.0,0.0,-0.4086,-0.3935,-0.3836,-0.3732,-0.3885,-0.4137,-0.4384,-0.5092,-0.5951,-0.6322,-0.6954,-0.7555,-0.7444,-0.7498,-0.7591,-0.7323,-0.7415,-0.7591,-0.7408,-0.7275,-0.7187,-0.7139,-0.7095,-0.7095,-0.7095,-0.7105,-0.709,-0.6836,-0.6826,-0.6759,-0.6539,-0.6284,-0.6053,-0.5902,-0.5719,-0.5538,-0.5419,-0.5192,-0.4999,-0.4901,-0.4745,-0.4607,-0.4501,-0.4491,-0.4491,-0.4491,-0.4491,-0.4491,-0.4491,-0.4491,-0.4491,-0.4491,-0.4491,-0.4436,-0.4301,-0.4301,-0.4168,-0.3929,-0.3844,-0.3626,-0.3318,-0.3562,-0.3652,0.0,-0.3932,-0.3989,-0.3955,-0.375,0.0,0.0,-0.3125,-0.2925,-0.2892,-0.2813,-0.2777,-0.2777,-0.2774,-0.2854,-0.297,-0.3043,0.0,0.0,0.0,0.0,0.0,0.0,0.0,0.0,0.0,0.0,0.0,0.0,0.0,0.0,-0.4865,-0.4784,-0.4784,-0.4784,-0.4784,-0.4784,-0.4784,-0.4784,-0.4784,-0.4784,-0.4784,-0.4784,-0.4784,-0.4734,0.0,0.0,0.0,0.0,-0.3736,-0.3534,-0.3433,-0.3281,-0.3281,-0.3484,-0.3734,-0.4353,-0.5125,-0.5566,-0.6266,-0.7004,-0.6987,-0.7146,-0.7323,-0.7143,-0.7231,-0.7323,-0.7143,-0.7095,-0.7095,-0.7095,-0.7095,-0.7095,-0.7095,-0.7055,-0.695,-0.6753,-0.6654,-0.6542,-0.6344,-0.6183,-0.6051,-0.5837,-0.5728,-0.5599,-0.5426,-0.523,-0.5049,-0.4908,-0.4785,-0.4662,-0.4505,-0.4491,-0.4491,-0.4491,-0.4491,-0.4491,-0.4491,-0.4436,-0.4384,-0.4384,-0.4298,-0.4187,-0.4052,-0.3941,-0.3774,-0.3547,-0.3392,-0.3268,-0.3091,-0.3326,-0.3415,0.0,0.0,0.0,0.0,0.0,0.0,0.0,-0.2879,0.0,-0.2709,-0.2691,-0.2691,-0.2691,-0.2764,-0.2856,-0.2979,-0.3144,0.0,0.0,0.0,0.0,0.0,0.0,0.0,0.0,0.0,0.0,0.0,0.0,0.0,0.0,-0.4784,-0.4784,-0.4784,-0.4784,-0.4784,-0.4784,-0.4784,-0.4784,-0.4784,-0.4784,-0.4784,-0.4784,-0.4784,-0.4636,0.0,0.0,0.0,0.0,-0.3586,-0.3433,-0.318,-0.318,-0.318,-0.318,-0.3484,-0.3883,-0.4407,-0.4967,-0.5651,-0.6354,-0.6655,-0.6925,-0.7098,-0.7095,-0.7095,-0.7095,-0.7095,-0.7095,-0.7095,-0.7095,-0.7095,-0.7095,-0.7095,-0.6991,-0.6846,-0.6732,-0.658,-0.647,-0.6327,-0.63,-0.6204,-0.5867,-0.581,-0.5705,-0.5453,-0.5247,-0.5063,-0.4921,-0.4802,-0.4646,-0.4522,-0.4467,-0.4463,-0.4463,-0.4463,-0.4463,-0.4463,-0.4273,-0.4166,-0.4138,-0.3882,-0.3741,-0.3713,-0.3438,-0.3188,-0.2991,-0.2877,-0.2877,-0.3019,-0.3019,-0.3047,-0.2411,0.0,-0.2891,0.0,0.0,0.0,0.0,0.0,0.0,0.0,0.0,0.0,0.0,-0.2764,-0.2847,-0.3034,0.0,0.0,0.0,0.0,0.0,0.0,0.0,0.0,0.0,0.0,0.0,0.0,0.0,0.0,0.0,-0.4784,-0.4784,-0.4784,-0.4585,-0.4585,-0.4784,-0.4784,-0.4784,-0.4784,-0.4784,-0.4686,-0.4487,-0.4487,-0.4336,0.0,0.0,0.0,-0.3586,-0.3383,-0.3281,-0.318,-0.318,-0.3079,-0.2927,-0.318,-0.3451,-0.379,-0.4466,-0.4993,-0.5504,-0.626,-0.6656,-0.6881,-0.7054,-0.7095,-0.7095,-0.7095,-0.7095,-0.7095,-0.7095,-0.7095,-0.7095,-0.7095,-0.6991,-0.6846,-0.6732,-0.658,-0.647,-0.6327,-0.63,-0.6238,-0.601,-0.5878,-0.5742,-0.5562,-0.544,-0.5254,-0.5069,-0.486,-0.4654,-0.4506,-0.4191,-0.3962,-0.3962,-0.4162,-0.4218,-0.4132,-0.3965,-0.3799,-0.3608,-0.3383,-0.3158,-0.2959,-0.2432,-0.2097,-0.1958,-0.1928,-0.1986,-0.2097,-0.2322,-0.2491,-0.1906,-0.2273,-0.26,-0.26,-0.2683,-0.2764,0.0,0.0,0.0,0.0,0.0,0.0,0.0,0.0,0.0,0.0,0.0,0.0,0.0,0.0,0.0,0.0,0.0,0.0,0.0,0.0,0.0,0.0,0.0,0.0,0.0,-0.4447,-0.4377,-0.4377,-0.4246,-0.4312,-0.4636,-0.4485,-0.4435,-0.4435,-0.4435,-0.4334,-0.4236,-0.4236,-0.4086,0.0,0.0,0.0,-0.323,-0.3079,-0.3027,-0.3027,-0.3027,-0.2927,-0.2826,-0.2826,-0.2958,-0.3268,-0.3801,-0.4483,-0.5132,-0.5744,-0.6169,-0.6482,-0.6612,-0.6697,-0.683,-0.7051,-0.7095,-0.7095,-0.7095,-0.7095,-0.7082,-0.7014,-0.6886,-0.678,-0.6627,-0.6518,-0.6392,-0.6313,-0.63,-0.6248,-0.602,-0.5925,-0.5797,-0.5512,-0.5412,-0.5216,-0.4775,-0.4569,-0.4375,-0.4063,-0.3789,-0.3549,-0.3408,-0.3463,-0.3577,-0.3719,-0.3463,-0.3211,-0.2991,-0.2683,-0.232,-0.1986,-0.1596,-0.1344,-0.1288,-0.1344,-0.1428,-0.1569,-0.1875,-0.2043,-0.16,-0.1992,-0.241,-0.241,-0.2521,-0.2635,0.0,0.0,0.0,0.0,0.0,0.0,0.0,0.0,0.0,0.0,0.0,0.0,0.0,0.0,0.0,0.0,0.0,0.0,0.0,0.0,0.0,0.0,0.0,0.0,0.0,-0.4104,-0.3913,-0.3903,-0.3845,-0.3971,-0.42,-0.4061,-0.3972,-0.3982,-0.3982,-0.3984,-0.3934,-0.3883,-0.3734,-0.3484,0.0,0.0,-0.2725,-0.2725,-0.2725,-0.2725,-0.2725,-0.2725,-0.2675,-0.2472,-0.2522,-0.271,-0.314,-0.394,-0.4832,-0.5102,-0.5502,-0.5905,-0.5905,-0.608,-0.6343,-0.6741,-0.6962,-0.7054,-0.7054,-0.7098,-0.7065,-0.6947,-0.6827,-0.6664,-0.6536,-0.6416,-0.63,-0.63,-0.6261,-0.6178,-0.6013,-0.5932,-0.5758,-0.5335,-0.5228,-0.4978,-0.4351,-0.4142,-0.3859,-0.3446,-0.3249,-0.3037,-0.274,-0.2541,-0.2627,-0.3021,-0.2738,-0.2458,-0.2261,-0.1846,-0.1428,-0.0982,-0.0842,-0.0785,-0.0757,-0.0898,-0.1038,-0.1178,-0.1484,-0.1567,-0.1543,-0.174,-0.1936,-0.2043,-0.2183,-0.2268,0.0,0.0,0.0,0.0,0.0,0.0,0.0,0.0,0.0,0.0,0.0,0.0,0.0,0.0,0.0,0.0,0.0,0.0,0.0,0.0,0.0,0.0,0.0,0.0,0.0,-0.417,-0.3893,-0.3881,-0.3675,-0.3489,-0.3316,-0.371,-0.392,-0.3982,-0.3982,-0.3883,-0.3635,-0.3432,-0.318,-0.2927,0.0,-0.2522,-0.2472,-0.2472,-0.2472,-0.2472,-0.2472,-0.2322,-0.2122,-0.2321,-0.2271,-0.216,-0.256,-0.3202,-0.3853,-0.4072,-0.4474,-0.4961,-0.5097,-0.5369,-0.5549,-0.5638,-0.6216,-0.6836,-0.6836,-0.6966,-0.7092,-0.7068,-0.6898,-0.6695,-0.6671,-0.6494,-0.63,-0.63,-0.6099,-0.5935,-0.5912,-0.5695,-0.5417,-0.5149,-0.4849,-0.4524,-0.4243,-0.3596,-0.3128,-0.2942,-0.2376,-0.199,-0.1822,-0.1512,-0.1373,-0.1457,-0.1764,-0.1706,-0.1177,-0.0981,-0.0701,-0.0336,-0.0308,-0.0252,-0.014,-0.028,-0.0421,-0.0533,-0.0757,-0.0869,-0.1319,-0.1515,-0.1712,-0.1766,-0.2016,-0.2242,0.0,0.0,0.0,0.0,0.0,0.0,0.0,0.0,0.0,0.0,0.0,0.0,0.0,0.0,0.0,0.0,0.0,0.0,0.0,0.0,0.0,0.0,0.0,0.0,0.0,0.0,-0.3361,-0.3193,-0.2925,-0.2737,-0.2627,-0.284,-0.3024,-0.3083,-0.3083,-0.3036,-0.289,-0.2793,-0.266,-0.2583,0.0,-0.2201,-0.2171,-0.2171,-0.2171,-0.2171,-0.2171,-0.2121,-0.2022,-0.1969,-0.1945,-0.1955,-0.2158,-0.2553,-0.3005,-0.3093,-0.3494,-0.3894,-0.3985,-0.4297,-0.461,-0.461,-0.5458,-0.6438,-0.6567,-0.6745,-0.6949,-0.7001,-0.6879,-0.6776,-0.6614,-0.6511,-0.6352,-0.6116,-0.5906,-0.5709,-0.5592,-0.5271,-0.4944,-0.4645,-0.4239,-0.3798,-0.3324,-0.28,-0.2338,-0.202,-0.1635,-0.1345,-0.1123,-0.0963,-0.0898,-0.0898,-0.098,-0.0896,-0.0533,-0.0393,-0.0252,-0.0084,-0.0084,-0.0056,0.0,-0.0056,-0.0112,-0.0196,-0.028,-0.028,-0.1094,-0.129,-0.1515,-0.1572,0.0,0.0,-0.2227,0.0,0.0,0.0,0.0,0.0,0.0,0.0,0.0,0.0,0.0,0.0,0.0,0.0,0.0,0.0,0.0,0.0,0.0,0.0,0.0,0.0,0.0,0.0,0.0,0.0,-0.2862,-0.2575,-0.2354,-0.2171,-0.2114,-0.2114,-0.2188,-0.2291,-0.2291,-0.2291,-0.2291,-0.2242,-0.2212,-0.229,-0.2009,-0.1883,-0.1908,-0.1917,-0.1921,-0.1921,-0.1921,-0.1921,-0.1869,-0.1659,-0.1671,-0.1811,-0.1803,-0.2036,-0.2334,-0.2334,-0.2602,-0.2959,-0.2959,-0.3315,-0.3669,-0.3669,-0.4607,-0.5677,-0.5985,-0.6346,-0.6634,-0.6703,-0.6738,-0.6695,-0.6463,-0.6361,-0.6158,-0.5813,-0.5458,-0.5165,-0.4971,-0.4579,-0.4162,-0.3855,-0.3411,-0.2889,-0.2338,-0.1955,-0.1558,-0.1161,-0.099,-0.0809,-0.056,-0.0543,-0.0533,-0.0533,-0.0393,-0.0252,-0.0168,-0.0056,0.0028,0.0056,0.0056,0.0056,0.0084,0.0084,0.0084,0.0084,0.0084,0.0168,-0.1066,-0.1122,-0.1206,-0.1515,0.0,0.0,-0.2013,0.0,0.0,0.0,0.0,0.0,0.0,0.0,0.0,0.0,0.0,0.0,0.0,0.0,0.0,0.0,0.0,0.0,0.0,0.0,0.0,0.0,0.0,0.0,0.0,0.0,0.0,-0.2521,-0.229,-0.2066,-0.1843,-0.1843,-0.1974,-0.2291,-0.2291,-0.2291,-0.2291,-0.2051,-0.1909,-0.1913,-0.1706,-0.1622,-0.1627,-0.1605,-0.1617,-0.1617,-0.1617,-0.1617,-0.1613,-0.1585,-0.1554,-0.1522,-0.154,-0.1691,-0.1839,-0.1839,-0.2064,-0.2288,-0.2288,-0.2601,-0.2956,-0.2956,-0.3492,-0.4206,-0.4919,-0.5636,-0.6169,-0.616,-0.6197,-0.6233,-0.6215,-0.5889,-0.5511,-0.5296,-0.4686,-0.4148,-0.3958,-0.3368,-0.2856,-0.2659,-0.2215,-0.1854,-0.16,-0.1179,-0.0797,-0.0582,-0.045,-0.0282,-0.0059,-0.0057,-0.0056,-0.0056,-0.0028,-0.0028,-0.0028,0.0,0.0056,0.0196,0.0196,0.0252,0.0364,0.0364,0.0364,0.0364,0.0364,0.0477,-0.0954,-0.1038,-0.1122,-0.1262,0.0,0.0,0.0,0.0,0.0,0.0,0.0,0.0,0.0,0.0,0.0,0.0,0.0,0.0,0.0,0.0,0.0,0.0,0.0,0.0,0.0,0.0,0.0,0.0,0.0,0.0,0.0,0.0,0.0,-0.2515,-0.2154,-0.1839,-0.157,-0.157,-0.1628,-0.1745,-0.1745,-0.1745,-0.1745,-0.1653,-0.1618,-0.1639,-0.1557,-0.1584,-0.1622,-0.1584,-0.16,-0.1617,-0.1617,-0.1617,-0.1613,-0.1583,-0.1552,-0.1522,-0.1491,-0.1506,-0.157,-0.157,-0.1615,-0.1705,-0.1705,-0.1929,-0.2196,-0.2196,-0.2599,-0.3272,-0.4297,-0.4966,-0.5458,-0.5638,-0.5692,-0.5662,-0.5551,-0.5155,-0.4724,-0.4391,-0.3781,-0.3209,-0.3018,-0.2468,-0.2036,-0.196,-0.1542,-0.1166,-0.0984,-0.0661,-0.0403,-0.0199,-0.0131,-0.0095,0.0,0.0,0.0,0.0,0.0,0.0028,0.0112,0.0112,0.0196,0.0308,0.0336,0.0336,0.0393,0.0533,0.0589,0.0589,0.0673,0.0785,-0.0898,-0.0954,-0.1041,0.0,0.0,0.0,0.0,0.0,0.0,0.0,0.0,0.0,0.0,0.0,0.0,0.0,0.0,0.0,0.0,0.0,0.0,0.0,0.0,0.0,0.0,0.0,0.0,0.0,0.0,0.0,0.0,0.0,0.0,0.0,-0.2023,-0.1632,-0.1421,-0.1421,-0.1381,-0.1391,-0.1391,-0.1391,-0.1391,-0.1391,-0.1446,-0.1467,-0.1476,-0.1504,-0.1591,-0.1553,-0.1569,-0.159,-0.1598,-0.1596,-0.1585,-0.1565,-0.1538,-0.1507,-0.1477,-0.1453,-0.1391,-0.1391,-0.1391,-0.1391,-0.1391,-0.157,-0.1794,-0.1794,-0.2109,-0.2602,-0.3406,-0.403,-0.4476,-0.4656,-0.479,-0.4786,-0.4529,-0.4172,-0.3735,-0.3354,-0.2758,-0.2273,-0.204,-0.1529,-0.1176,-0.1176,-0.0865,-0.0583,-0.0437,-0.0279,-0.0169,0.0,0.0,0.0,0.0,0.003,0.0058,0.0057,0.0113,0.014,0.0196,0.0252,0.0336,0.0505,0.0505,0.0505,0.0561,0.0701,0.0785,0.0842,0.0926,0.1066,-0.0898,-0.0898,0.0,0.0,0.0,0.0,0.0,0.0,0.0,0.0,0.0,0.0,0.0,0.0,0.0,0.0,0.0,0.0,0.0,0.0,0.0,0.0,0.0,0.0,0.0,0.0,0.0,0.0,0.0,0.0,0.0,0.0,0.0,0.0,-0.1892,-0.1614,-0.1389,-0.139,-0.1405,-0.139,-0.139,-0.139,-0.1391,-0.1391,-0.1391,-0.1392,-0.1467,-0.148,-0.1483,-0.1513,-0.1478,-0.1529,-0.1559,-0.1553,-0.1478,-0.1478,-0.1506,-0.1476,-0.1401,-0.1391,-0.1391,-0.1391,-0.1391,-0.1391,-0.1391,-0.157,-0.1794,-0.1794,-0.1974,-0.2199,-0.2199,-0.269,-0.3183,-0.3183,-0.3401,-0.3513,-0.3225,-0.294,-0.2584,-0.2161,-0.1675,-0.1218,-0.0943,-0.055,-0.0314,-0.0314,-0.0113,0.0,0.0,0.0,0.0,0.0,0.0,0.0,0.0,0.0122,0.0206,0.0206,0.0343,0.0336,0.0224,0.0336,0.0505,0.0701,0.0701,0.0757,0.0898,0.0898,0.0982,0.1094,0.1094,0.129,-0.0898,0.0,0.0,0.0,0.0,0.0,0.0,0.0,0.0,0.0,0.0,0.0,0.0,0.0,0.0,0.0,0.0,0.0,0.0,0.0,0.0,0.0,0.0,0.0,0.0,0.0,0.0,0.0,0.0,0.0,0.0,0.0,0.0,0.0,-0.206,-0.173,-0.1317,-0.1318,-0.1323,-0.1331,-0.1331,-0.1352,-0.1391,-0.1391,-0.1391,-0.1391,-0.1399,-0.1461,-0.1483,-0.1513,-0.1478,-0.1479,-0.1536,-0.1534,-0.1523,-0.1502,-0.1488,-0.1476,-0.1401,-0.1391,-0.1391,-0.1391,-0.13,-0.1211,-0.1211,-0.1121,-0.1076,-0.1256,-0.1345,-0.1436,-0.1436,-0.1569,-0.1838,-0.2377,-0.2394,-0.2309,-0.2174,-0.1794,-0.1468,-0.1275,-0.0907,-0.0589,-0.051,-0.0275,-0.0079,-0.0079,-0.0038,0.0,0.0,0.0,0.0,0.0,0.0134,0.0198,0.0226,0.035,0.0402,0.0414,0.0525,0.0604,0.0562,0.0589,0.0673,0.0842,0.0926,0.101,0.1038,0.1122,0.1262,0.1459,0.1459,0.1654,-0.0898,0.0,0.0,0.0,0.0,0.0,0.0,0.0,0.0,0.0,0.0,0.0,0.0,0.0,0.0,0.0,0.0,0.0,0.0,0.0,0.0,0.0,0.0,0.0,0.0,0.0,0.0,0.0,0.0,0.0,0.0,0.0,0.0,0.0,-0.2006,-0.1687,-0.1288,-0.1288,-0.1294,-0.1305,-0.1305,-0.1324,-0.1357,-0.1368,-0.1417,-0.1418,-0.1385,-0.1401,-0.1464,-0.1483,-0.1443,-0.1445,-0.1503,-0.15,-0.1443,-0.1483,-0.1473,-0.146,-0.1397,-0.1345,-0.13,-0.13,-0.1115,-0.0931,-0.0931,-0.0837,-0.0744,-0.0875,-0.0963,-0.0963,-0.0963,-0.0875,-0.0965,-0.146,-0.1493,-0.1337,-0.1211,-0.0945,-0.0727,-0.0552,-0.0353,-0.0196,-0.0196,-0.0079,0.0,0.0,0.0,0.0,0.0,0.0067,0.0135,0.0135,0.027,0.0368,0.0395,0.052,0.0601,0.0572,0.0712,0.0784,0.0786,0.0842,0.0898,0.0982,0.1178,0.1291,0.1291,0.1486,0.1682,0.185,0.1989,0.2212,0.0,0.0,0.0,0.0,0.0,0.0,0.0,0.0,0.0,0.0,0.0,0.0,0.0,0.0,0.0,0.0,0.0,0.0,0.0,0.0,0.0,0.0,0.0,0.0,0.0,0.0,0.0,0.0,0.0,0.0,0.0,0.0,0.0,-0.2181,-0.1795,-0.1499,-0.129,-0.129,-0.1305,-0.1294,-0.1294,-0.1296,-0.1299,-0.1371,-0.1387,-0.1391,-0.1419,-0.1388,-0.1391,-0.1391,-0.1391,-0.1393,-0.1466,-0.1459,-0.1394,-0.1466,-0.1459,-0.139,-0.139,-0.1254,-0.1073,-0.1073,-0.0882,-0.0694,-0.0694,-0.0642,-0.0632,-0.0674,-0.0674,-0.0674,-0.0674,-0.0548,-0.0423,-0.0603,-0.0649,-0.0599,-0.0411,-0.0366,-0.0282,-0.0039,0.0,0.0,0.0,0.0,0.0,0.0,0.0,0.0036,0.0034,0.0202,0.0303,0.0303,0.0438,0.0539,0.0539,0.0724,0.08,0.0745,0.0843,0.0904,0.0931,0.1039,0.1094,0.1122,0.1458,0.1656,0.1684,0.1961,0.2155,0.2324,0.2627,0.2905,0.0,0.0,0.0,0.0,0.0,0.0,0.0,0.0,0.0,0.0,0.0,0.0,0.0,0.0,0.0,0.0,0.0,0.0,0.0,0.0,0.0,0.0,0.0,0.0,0.0,0.0,0.0,0.0,0.0,0.0,0.0,0.0,-0.2467,-0.1816,-0.1631,-0.1412,-0.1233,-0.1233,-0.1211,0.0,-0.1241,-0.1254,-0.1319,-0.1333,-0.1369,-0.1391,-0.1397,-0.1413,-0.1391,-0.1391,-0.1391,-0.1391,-0.1397,-0.1396,-0.1391,-0.1397,-0.1306,-0.1166,-0.1166,-0.0977,-0.0789,-0.0789,-0.0648,-0.0467,-0.0467,-0.0338,-0.021,-0.0421,-0.0463,-0.0463,-0.0463,-0.0421,-0.0378,-0.0207,-0.0165,-0.0124,-0.0082,-0.008,-0.0079,0.0,0.0,0.0,0.0,0.0,0.0,0.0,0.0142,0.0244,0.0237,0.0371,0.0472,0.0472,0.064,0.0742,0.0742,0.0904,0.1022,0.093,0.0964,0.1025,0.1139,0.1109,0.115,0.1262,0.1681,0.2045,0.2298,0.2573,0.2852,0.3135,0.3216,0.3438,0.0,0.0,0.0,0.0,0.0,0.0,0.0,0.0,0.0,0.0,0.0,0.0,0.0,0.0,0.0,0.0,0.0,0.0,0.0,0.0,0.0,0.0,0.0,0.0,0.0,0.0,0.0,0.0,0.0,0.0,0.0,-0.2753,-0.2123,-0.1714,-0.1495,-0.1312,-0.1203,-0.1203,-0.1211,-0.119,-0.1204,-0.1228,-0.1298,-0.1305,-0.13,-0.137,-0.137,-0.1336,-0.135,-0.135,-0.135,-0.135,-0.1263,-0.1219,-0.1176,-0.1089,-0.1001,-0.0914,-0.0914,-0.0735,-0.0557,-0.0557,-0.038,-0.0207,-0.0207,-0.0123,-0.0041,-0.0163,-0.0204,-0.0204,-0.0204,-0.0204,-0.0163,-0.004,0.0,0.0,0.0,0.0,0.0,0.0,0.0,0.0,0.0,0.0076,0.0147,0.0141,0.028,0.0382,0.0406,0.0539,0.064,0.064,0.0808,0.0976,0.1043,0.1144,0.1229,0.1292,0.1256,0.131,0.1444,0.1512,0.1569,0.1625,0.2155,0.2545,0.2798,0.3158,0.3463,0.3691,0.3855,0.4079,0.0,0.0,0.0,0.0,0.0,0.0,0.0,0.0,0.0,0.0,0.0,0.0,0.0,0.0,0.0,0.0,0.0,0.0,0.0,0.0,0.0,0.0,0.0,0.0,0.0,0.0,0.0,0.0,0.0,0.0,-0.3156,-0.2265,-0.1734,-0.1632,-0.1313,-0.1171,-0.1171,-0.1177,-0.1182,-0.1187,-0.1187,-0.1217,-0.1281,-0.1268,-0.1301,-0.1298,-0.1298,-0.1301,-0.1305,-0.1263,-0.1263,-0.1221,-0.1011,-0.0969,-0.0927,-0.0758,-0.0674,-0.0632,-0.0632,-0.0504,-0.0335,-0.0335,-0.0165,0.0,0.0,0.0,0.0,0.0,0.0,0.0,0.0,0.0,0.0,0.0,0.0,0.0,0.0,0.0,0.0,0.0,0.0039,0.0038,0.0038,0.022,0.0323,0.0349,0.0452,0.0553,0.0541,0.0741,0.0876,0.0876,0.1076,0.1244,0.1379,0.1412,0.1498,0.1722,0.1668,0.1709,0.1868,0.2056,0.2181,0.2238,0.274,0.3074,0.3269,0.3713,0.399,0.4135,0.4436,0.4629,0.0,0.0,0.0,0.0,0.0,0.0,0.0,0.0,0.0,0.0,0.0,0.0,0.0,0.0,0.0,0.0,0.0,0.0,0.0,0.0,0.0,0.0,0.0,0.0,0.0,0.0,0.0,0.0,0.0,0.0,-0.2448,-0.176,-0.1386,-0.136,-0.1139,-0.1012,-0.1012,-0.1038,-0.1063,-0.1123,-0.1181,-0.1211,-0.1215,-0.122,-0.123,-0.1309,-0.1309,-0.1282,-0.1305,-0.1095,-0.1053,-0.1011,-0.08,-0.0758,-0.0716,-0.0716,-0.059,-0.0421,-0.0421,-0.0291,-0.0041,-0.0041,-0.004,0.0,0.0,0.0,0.0,0.0,0.0,0.0,0.0,0.0,0.0,0.0,0.0,0.0,0.0,0.0,0.0,0.0,0.0149,0.0256,0.0249,0.0388,0.0489,0.0476,0.0644,0.0745,0.0776,0.1043,0.1244,0.1244,0.1412,0.1614,0.1817,0.1817,0.1947,0.227,0.2161,0.2245,0.2568,0.2715,0.2907,0.3216,0.3299,0.3522,0.3882,0.4242,0.4463,0.4605,0.4763,0.4928,0.0,0.0,0.0,0.0,0.0,0.0,0.0,0.0,0.0,0.0,0.0,0.0,0.0,0.0,0.0,0.0,0.0,0.0,0.0,0.0,0.0,0.0,0.0,0.0,0.0,0.0,0.0,0.0,0.0,-0.2124,-0.2034,-0.1574,-0.1297,-0.1297,-0.1112,-0.0988,-0.0988,-0.1001,-0.1031,-0.111,-0.112,-0.1114,-0.1021,-0.1021,-0.104,-0.1072,-0.1072,-0.101,-0.0914,-0.0795,-0.0761,-0.077,-0.0567,-0.0486,-0.0446,-0.0365,-0.0243,-0.0162,-0.0162,-0.008,0.0,0.0,0.0,0.0,0.0,0.0,0.0,0.0,0.0,0.0,0.0,0.0,0.0,0.0,0.0076,0.0151,0.0151,0.0075,0.0038,0.0149,0.029,0.0426,0.0421,0.0554,0.0683,0.0675,0.0842,0.0976,0.0976,0.1177,0.1344,0.1446,0.1749,0.2051,0.2319,0.252,0.2704,0.2888,0.2898,0.293,0.309,0.3294,0.3547,0.383,0.3858,0.3996,0.427,0.457,0.4791,0.4936,0.4987,0.5069,0.0,0.0,0.0,0.0,0.0,0.0,0.0,0.0,0.0,0.0,0.0,0.0,0.0,0.0,0.0,0.0,0.0,0.0,0.0,0.0,0.0,0.0,0.0,0.0,0.0,0.0,0.0,0.0,0.0,-0.1595,-0.1565,-0.1296,-0.1116,-0.1086,-0.0935,-0.0845,-0.0845,-0.0851,-0.0912,-0.0932,-0.0952,-0.0906,-0.0786,-0.0786,-0.0786,-0.0751,-0.0797,-0.0737,-0.06,-0.0562,-0.0533,-0.0506,-0.0311,-0.0234,-0.0196,-0.0039,0.0,0.0,0.0,0.0,0.0,0.0,0.0,0.0,0.0,0.0,0.0,0.0,0.0,0.0,0.0077,0.0077,0.0077,0.0113,0.0224,0.0333,0.0365,0.0217,0.018,0.0325,0.0459,0.059,0.059,0.0785,0.0943,0.0943,0.111,0.1244,0.1244,0.1412,0.1614,0.1782,0.2185,0.2589,0.2954,0.3224,0.3451,0.3547,0.3623,0.3665,0.3645,0.3894,0.4132,0.4332,0.4387,0.4494,0.4598,0.4846,0.5011,0.5097,0.5128,0.5238,0.0,0.0,0.0,0.0,0.0,0.0,0.0,0.0,0.0,0.0,0.0,0.0,0.0,0.0,0.0,0.0,0.0,0.0,0.0,0.0,0.0,0.0,0.0,0.0,0.0,0.0,0.0,0.0,0.0,-0.1072,-0.0958,-0.0817,-0.0648,-0.0451,-0.0423,-0.0423,-0.0423,-0.0494,-0.0518,-0.0518,-0.0518,-0.0527,-0.0508,-0.0508,-0.044,-0.0339,-0.0535,-0.062,-0.0584,-0.0402,-0.0334,-0.0303,-0.0076,0.0,0.0,0.0,0.0,0.0,0.0,0.0,0.0,0.0,0.0,0.0,0.0,0.0,0.0,0.0,0.0,0.0038,0.0221,0.0293,0.0329,0.0438,0.0466,0.0496,0.0508,0.0464,0.0491,0.0491,0.0653,0.0777,0.0777,0.1045,0.1278,0.1278,0.1446,0.158,0.158,0.1918,0.222,0.235,0.2822,0.3293,0.3725,0.3861,0.4045,0.4243,0.4306,0.436,0.4342,0.4545,0.4664,0.4664,0.4936,0.4987,0.4873,0.5014,0.5097,0.5097,0.5242,0.5407,0.0,0.0,0.0,0.0,0.0,0.0,0.0,0.0,0.0,0.0,0.0,0.0,0.0,0.0,0.0,0.0,0.0,0.0,0.0,0.0,0.0,0.0,0.0,0.0,0.0,0.0,0.0,0.0,0.0,0.0,-0.0589,-0.0533,-0.0477,-0.0393,-0.0393,-0.0393,-0.0393,-0.0464,-0.0512,-0.0502,-0.0512,-0.0459,-0.0371,-0.0371,-0.027,-0.0101,-0.0172,-0.021,-0.0214,-0.0142,-0.0108,-0.0111,-0.0037,0.0,0.0,0.0,0.0,0.0,0.0,0.0,0.0,0.0,0.0,0.0,0.0,0.0,0.0,0.0,0.0111,0.0221,0.0292,0.0364,0.0472,0.0642,0.0697,0.0754,0.0967,0.086,0.0718,0.0853,0.1016,0.1178,0.1279,0.1514,0.1681,0.1681,0.1915,0.2116,0.2116,0.2453,0.2822,0.3086,0.3458,0.3861,0.4292,0.4486,0.4612,0.4693,0.4703,0.473,0.4713,0.4879,0.4963,0.4963,0.5128,0.5156,0.5042,0.5156,0.5242,0.5242,0.5407,0.5567,0.0,0.0,0.0,0.0,0.0,0.0,0.0,0.0,0.0,0.0,0.0,0.0,0.0,0.0,0.0,0.0,0.0,0.0,0.0,0.0,0.0,0.0,0.0,0.0,0.0,0.0,0.0,0.0,0.0,0.0,-0.0336,-0.0336,-0.0308,-0.028,-0.0252,-0.0252,-0.0252,-0.0315,-0.0324,-0.0334,-0.0345,-0.0291,-0.0199,-0.0201,-0.0135,0.0,0.0,0.0,0.0,0.0,0.0,0.0,0.0,0.0,0.0,0.0,0.0,0.0,0.0,0.0,0.0,0.0,0.0,0.0,0.0,0.0037,0.0112,0.0109,0.0216,0.0395,0.0463,0.0603,0.0812,0.0937,0.1023,0.1145,0.1345,0.1178,0.1043,0.1312,0.1446,0.158,0.1814,0.2051,0.2218,0.2321,0.2586,0.2785,0.2852,0.3157,0.3458,0.3754,0.4059,0.4395,0.4725,0.4964,0.5042,0.4985,0.5045,0.5026,0.4963,0.5097,0.5156,0.5156,0.5325,0.5352,0.5266,0.5352,0.5407,0.5407,0.5673,0.5946,0.0,0.0,0.0,0.0,0.0,0.0,0.0,0.0,0.0,0.0,0.0,0.0,0.0,0.0,0.0,0.0,0.0,0.0,0.0,0.0,0.0,0.0,0.0,0.0,0.0,0.0,0.0,0.0,0.0,-0.0336,-0.0196,-0.0196,-0.014,0.0,0.0,0.0,0.0,0.0,0.0,0.0,0.0,0.0,0.0,0.0,0.0,0.0,0.0,0.0,0.0,0.0,0.0,0.0,0.0,0.0,0.0,0.0,0.0,0.0,0.0,0.0,0.0,0.0,0.0,0.0,0.0,0.0145,0.029,0.0317,0.042,0.0557,0.0781,0.1077,0.1311,0.1311,0.1446,0.1614,0.1614,0.148,0.1446,0.185,0.1918,0.2051,0.2383,0.2618,0.2855,0.3159,0.3389,0.3589,0.3792,0.3928,0.4092,0.4287,0.4625,0.4894,0.5087,0.5288,0.5325,0.5131,0.5306,0.5311,0.5132,0.5242,0.5301,0.5329,0.5513,0.5622,0.5618,0.5622,0.5622,0.5622,0.6046,0.6561,0.0,0.0,0.0,0.0,0.0,0.0,0.0,0.0,0.0,0.0,0.0,0.0,0.0,0.0,0.0,0.0,0.0,0.0,0.0,0.0,0.0,0.0,0.0,0.0,0.0,0.0,0.0,0.0,-0.0112,-0.0084,-0.0056,-0.0056,-0.0028,0.0,0.0,0.0,0.0,0.0,0.0,0.0,0.0,0.0,0.0,0.0,0.0,0.0,0.0,0.0,0.0,0.0,0.0,0.0,0.0,0.0,0.0,0.0,0.0,0.0,0.0,0.0,0.0,0.0,0.0105,0.0212,0.0208,0.0314,0.0458,0.0446,0.0681,0.1019,0.1315,0.1446,0.1513,0.1513,0.1681,0.1883,0.2116,0.2351,0.2485,0.2284,0.2487,0.2788,0.3153,0.3456,0.3658,0.3761,0.4059,0.4325,0.4359,0.4495,0.4661,0.4855,0.5093,0.5292,0.5451,0.5571,0.5571,0.5464,0.5424,0.5425,0.5466,0.5485,0.5572,0.5658,0.5814,0.5946,0.6023,0.5946,0.5946,0.6046,0.6799,0.7417,0.0,0.0,0.0,0.0,0.0,0.0,0.0,0.0579,0.0,0.0,0.0,0.0,0.0,0.0,0.0,0.0,0.0,0.0,0.0,0.0,0.0,0.0,0.0,0.0,0.0,0.0,0.0,0.0,0.0,0.0,0.0,0.0,0.0,0.0,0.0,0.0,0.0,0.0,0.0,0.0,0.0,0.0,0.0,0.0,0.0,0.0,0.0063,0.0096,0.0129,0.0263,0.02,0.0,0.0,0.0,0.0,0.0,0.0067,0.0135,0.0135,0.0169,0.0236,0.0303,0.0408,0.0515,0.0609,0.0714,0.0824,0.0845,0.1111,0.1512,0.1848,0.1982,0.2084,0.2151,0.2319,0.252,0.2785,0.3121,0.3257,0.3019,0.3222,0.3525,0.3889,0.4125,0.4295,0.4425,0.4658,0.4824,0.4927,0.5057,0.519,0.5286,0.5491,0.5624,0.5719,0.5768,0.5728,0.5616,0.5571,0.5567,0.5603,0.57,0.5841,0.5978,0.625,0.6539,0.6907,0.6539,0.6598,0.7052,0.761,0.8123,0.0,0.0,0.0,0.0,0.0,0.0,0.1137,0.0944,0.0723,0.0,0.0,0.0,0.0,0.0,0.0,0.0,0.0,0.0,0.0,0.0,0.0,0.0,0.0,0.0,0.0,0.0056,0.0056,0.0056,0.0028,0.0028,0.0028,0.0,0.0,0.0,0.0,0.0,0.0,0.0,0.0,0.0,0.0,0.0,0.0029,0.003,0.0031,0.0092,0.0215,0.0313,0.045,0.0741,0.0558,0.0101,0.0101,0.0101,0.0101,0.0101,0.0236,0.0404,0.0404,0.0506,0.064,0.0841,0.0907,0.0974,0.1143,0.1311,0.1445,0.1479,0.1748,0.2118,0.245,0.2684,0.2854,0.3056,0.3192,0.336,0.3553,0.3756,0.3925,0.3925,0.4025,0.4195,0.4592,0.4658,0.4791,0.509,0.5153,0.5223,0.5392,0.5554,0.565,0.565,0.5818,0.5921,0.5921,0.5952,0.5876,0.5676,0.5763,0.5787,0.5686,0.5918,0.6159,0.6317,0.6788,0.7354,0.8004,0.7354,0.7467,0.8275,0.8427,0.8685,0.0,0.0,0.0,0.0,0.0,0.0,0.1882,0.1529,0.1142,0.0,0.0,0.0,0.0,0.0,0.0,0.0,0.0,0.0,0.0,0.0,0.0,0.0,0.0,0.0,0.0,0.0308,0.0308,0.0308,0.0224,0.0168,0.0168,0.0056,0.0,0.0,0.0,0.0,0.0,0.0,0.0,0.0,0.0,0.0057,0.017,0.0171,0.0315,0.0573,0.0588,0.0786,0.1121,0.1181,0.0983,0.0672,0.0807,0.0773,0.0672,0.0841,0.0908,0.0975,0.1076,0.1244,0.138,0.1446,0.1612,0.1846,0.1879,0.2149,0.2452,0.2621,0.2788,0.2989,0.322,0.3422,0.3591,0.3625,0.3758,0.3892,0.4087,0.4392,0.4661,0.4821,0.4725,0.4728,0.4957,0.5126,0.5263,0.5326,0.5422,0.5517,0.555,0.5719,0.5855,0.5855,0.6017,0.6148,0.6148,0.6252,0.6225,0.6017,0.6023,0.6088,0.6237,0.6404,0.6669,0.7074,0.7649,0.8182,0.8613,0.8156,0.8209,0.8679,0.8916,0.9133,0.0,0.0,0.0,0.277,0.0,0.0,0.0,0.2156,0.1852,0.0,0.0,0.0,0.0,0.0,0.0,0.0,0.0,0.0,0.0,0.0,0.0,0.0,0.0,0.0,0.0,0.0833,0.0814,0.0757,0.0673,0.0589,0.0449,0.0393,0.028,0.0112,0.0112,0.0056,0.0,0.0056,0.0112,0.0112,0.028,0.0393,0.0449,0.0589,0.0729,0.0898,0.1084,0.1316,0.1567,0.1744,0.1755,0.1675,0.1407,0.1207,0.1064,0.1244,0.1369,0.1453,0.1605,0.1876,0.2203,0.2271,0.2521,0.2817,0.2917,0.3086,0.3288,0.3458,0.356,0.3658,0.3956,0.4123,0.4225,0.4292,0.4361,0.4461,0.4655,0.4772,0.4925,0.5214,0.5089,0.5022,0.5292,0.5422,0.5524,0.5624,0.5723,0.5752,0.5752,0.5918,0.6023,0.5906,0.6088,0.6177,0.6152,0.6207,0.6251,0.6209,0.633,0.6482,0.6645,0.6972,0.7423,0.8031,0.8421,0.8765,0.9093,0.889,0.889,0.9093,0.9309,0.9439,0.0,0.0,0.0,0.0,0.0,0.3052,0.0,0.0,0.0,0.2255,0.0,0.0,0.0,0.0,0.0,0.0,0.0,0.0,0.0,0.0,0.0,0.0,0.0,0.0,0.0,0.1429,0.143,0.1289,0.1261,0.1121,0.0897,0.0813,0.0645,0.0393,0.0336,0.0252,0.0168,0.0252,0.0308,0.0364,0.0645,0.0813,0.0869,0.1121,0.1261,0.1318,0.1651,0.1881,0.2056,0.2322,0.2565,0.266,0.2019,0.1667,0.1575,0.174,0.1918,0.2071,0.2249,0.2617,0.2997,0.3126,0.3381,0.369,0.3893,0.3974,0.4025,0.4128,0.4179,0.4262,0.4557,0.4689,0.4722,0.4821,0.4875,0.4954,0.5088,0.5058,0.5068,0.529,0.5243,0.5232,0.5517,0.5585,0.5661,0.5766,0.5858,0.5898,0.5831,0.6051,0.6125,0.5959,0.6095,0.6189,0.6134,0.6147,0.6249,0.6377,0.6639,0.688,0.7074,0.7649,0.8249,0.8909,0.9028,0.9185,0.9439,0.9439,0.9439,0.9439,0.9536,0.9588,0.0,0.0,0.0,0.0,0.3436,0.0,0.0,0.0,0.2805,0.2673,0.0,0.0,0.0,0.0,0.0,0.0,0.0,0.0,0.0,0.0,0.0,0.0,0.0,0.0,0.0,0.0,0.2043,0.1903,0.179,0.1651,0.151,0.1205,0.1038,0.101,0.0757,0.0701,0.0785,0.0701,0.0757,0.101,0.1038,0.1205,0.151,0.1651,0.1847,0.21,0.2296,0.2567,0.2876,0.2907,0.3033,0.32,0.2873,0.2622,0.249,0.281,0.2934,0.2987,0.3303,0.3522,0.3676,0.3707,0.3937,0.4257,0.4452,0.4602,0.4694,0.4697,0.4745,0.4813,0.4845,0.4967,0.5059,0.5059,0.5195,0.5292,0.5122,0.5244,0.5287,0.5177,0.5259,0.5385,0.5422,0.5509,0.5553,0.5478,0.5708,0.5841,0.5651,0.5906,0.6111,0.6094,0.6216,0.6272,0.628,0.6392,0.6511,0.6649,0.6919,0.7266,0.7777,0.8468,0.9001,0.9335,0.9335,0.9439,0.9588,0.9588,0.9588,0.9588,0.9588,0.9588,0.0,0.0,0.0,0.0,0.0,0.0,0.0,0.0,0.326,0.0,0.0,0.0,0.0,0.0,0.0,0.0,0.0,0.0,0.0,0.0,0.0,0.0,0.0,0.0,0.0,0.0,0.0,0.0,0.2434,0.2348,0.2127,0.1877,0.1681,0.1512,0.1316,0.1204,0.1122,0.1204,0.1316,0.1512,0.1653,0.1877,0.2127,0.2348,0.2488,0.2627,0.2768,0.2988,0.3227,0.3227,0.3315,0.3462,0.3336,0.3147,0.2919,0.3214,0.335,0.3421,0.3687,0.3976,0.4228,0.44,0.4525,0.4665,0.4761,0.4803,0.4851,0.4851,0.4872,0.4889,0.4889,0.4947,0.4975,0.4975,0.5057,0.5119,0.5109,0.5091,0.5134,0.524,0.5238,0.526,0.5318,0.5479,0.5628,0.5684,0.58,0.5908,0.5884,0.6027,0.6139,0.6208,0.6262,0.6359,0.6516,0.6653,0.6862,0.7153,0.7663,0.818,0.8626,0.9021,0.9309,0.951,0.951,0.9536,0.9588,0.9588,0.9588,0.9588,0.9588,0.9588,0.3444,0.0,0.0,0.0,0.0,0.0,0.0,0.0,0.0,0.0,0.0,0.0,0.0,0.0,0.0,0.0,0.0,0.0,0.0,0.0,0.0,0.0,0.0,0.0,0.0,0.0,0.0,0.2814,0.2895,0.2868,0.2652,0.2478,0.2293,0.2097,0.193,0.1792,0.1682,0.1792,0.193,0.2097,0.2293,0.249,0.2659,0.2935,0.3047,0.3047,0.3188,0.333,0.3444,0.3444,0.3499,0.3613,0.3638,0.3494,0.3307,0.3564,0.3687,0.3789,0.3991,0.425,0.4528,0.4726,0.4823,0.4857,0.4857,0.4887,0.4887,0.4887,0.4891,0.4857,0.4857,0.4857,0.4857,0.4857,0.4887,0.4965,0.504,0.5034,0.5089,0.527,0.5242,0.5183,0.527,0.546,0.5642,0.5721,0.5812,0.5884,0.5944,0.6082,0.6209,0.6327,0.6478,0.6662,0.6852,0.7031,0.73,0.7783,0.8415,0.8916,0.9237,0.9387,0.951,0.9588,0.9588,0.9588,0.9588,0.9588,0.9614,0.9647,0.9614,0.9614,0.0,0.0,0.0,0.3613,0.0,0.0,0.0,0.0,0.361,0.0,0.0,0.0,0.0,0.0,0.0,0.0,0.0,0.0,0.0,0.0,0.0,0.0,0.0,0.0,0.0,0.0,0.0,0.3009,0.3105,0.3141,0.299,0.2914,0.2877,0.2877,0.2603,0.2521,0.2663,0.2521,0.2603,0.2877,0.2877,0.2961,0.3074,0.3299,0.3385,0.3385,0.3527,0.3583,0.3585,0.3585,0.3585,0.361,0.3744,0.3796,0.3796,0.3941,0.4058,0.4221,0.4415,0.4498,0.4498,0.4501,0.4604,0.4697,0.4697,0.4802,0.4887,0.4887,0.4813,0.4697,0.4697,0.4697,0.4697,0.4697,0.4895,0.5051,0.494,0.5165,0.5339,0.5139,0.5219,0.5297,0.5297,0.5474,0.5535,0.5341,0.5604,0.5763,0.5637,0.6078,0.6401,0.6396,0.6928,0.7268,0.7289,0.7536,0.7937,0.8521,0.8942,0.9237,0.9387,0.951,0.9588,0.9588,0.9588,0.9588,0.9588,0.9588,0.9673,0.9799,0.9647,0.9673,0.0,0.0,0.3613,0.3613,0.0,0.0,0.0,0.0,0.0,0.0,0.0,0.0,0.0,0.0,0.0,0.0,0.0,0.0,0.0,0.0,0.0,0.0,0.0,0.0,0.0,0.0,0.0,0.2944,0.3096,0.3213,0.3266,0.3242,0.3244,0.3244,0.3021,0.291,0.2965,0.291,0.3021,0.3244,0.3244,0.3299,0.3441,0.3499,0.3527,0.3527,0.3583,0.3613,0.3613,0.3613,0.3663,0.3744,0.3769,0.391,0.4079,0.4107,0.4166,0.4221,0.4436,0.4491,0.4491,0.4491,0.4525,0.4566,0.4566,0.4604,0.4644,0.4644,0.4607,0.4566,0.4566,0.4626,0.4713,0.4713,0.4833,0.4965,0.5029,0.5134,0.5198,0.5227,0.527,0.5352,0.5485,0.5563,0.5584,0.5521,0.5733,0.5972,0.6119,0.6495,0.682,0.7085,0.7402,0.7643,0.7863,0.8215,0.8633,0.9099,0.9256,0.9387,0.9536,0.9588,0.9588,0.9588,0.9588,0.9588,0.9588,0.9681,0.9792,0.9947,1.0095,1.018,0.3613,0.3613,0.0,0.3663,0.3638,0.0,0.3663,0.0,0.0,0.0,0.0,0.0,0.0,0.0,0.0,0.0,0.0,0.0,0.0,0.3372,0.0,0.0,0.0,0.0,0.0,0.0,0.282,0.2865,0.3008,0.3164,0.0,0.0,0.3427,0.3469,0.3357,0.3272,0.3272,0.3272,0.3357,0.3471,0.3471,0.3527,0.3613,0.3613,0.3613,0.3613,0.3613,0.3613,0.3613,0.3663,0.3716,0.3796,0.391,0.4052,0.4193,0.4193,0.4249,0.4328,0.4463,0.4491,0.4491,0.4491,0.4491,0.4491,0.4491,0.4491,0.4491,0.4491,0.4546,0.4574,0.4574,0.4656,0.4767,0.4767,0.4877,0.4983,0.5069,0.5128,0.5211,0.538,0.5407,0.5485,0.5704,0.5809,0.5841,0.5755,0.5978,0.6245,0.6549,0.6923,0.73,0.7616,0.7857,0.8156,0.8454,0.8798,0.914,0.9387,0.9439,0.9517,0.9588,0.9588,0.9588,0.9588,0.9588,0.9614,0.9673,0.9766,0.9955,1.0257,1.0514,1.0718]}]]